GFSNW_250_spd_003.txt.gz
Wind_Speed
50 46 44 40 38 36 35 33 33 31 31 29 25 22 19 13 13 12 11 11 9 5 5 4 4 3 4 6 7 9 11 13 16 18 19 18 20 21 24 28 31 34 36 41
54 48 45 39 38 37 35 36 34 32 31 30 27 23 19 16 13 13 13 14 12 10 8 7 7 8 9 11 13 15 17 19 21 21 23 24 24 23 25 27 30 34 34 41
57 51 48 42 39 36 37 37 36 33 32 31 30 25 21 19 17 16 16 16 15 14 13 12 13 14 15 17 18 20 22 24 25 27 26 27 27 29 33 34 35 39 38 39
58 53 50 44 39 36 35 40 39 37 35 33 30 26 23 22 21 20 20 19 19 18 18 17 17 18 20 22 23 24 26 29 30 32 32 35 36 38 38 38 39 40 42 43
61 54 50 47 41 36 35 41 41 40 37 32 29 26 25 24 24 24 23 22 23 23 22 20 20 22 23 26 28 29 30 31 35 39 39 41 41 40 39 41 40 42 45 47
63 60 53 52 44 39 35 40 41 40 37 37 36 33 29 27 27 27 26 27 26 25 25 25 25 27 28 30 31 32 33 36 38 41 43 44 46 44 39 39 39 44 44 47
67 62 59 54 51 47 40 36 38 40 38 35 34 35 34 32 32 31 31 30 30 30 30 31 32 33 34 36 37 38 40 41 41 44 45 48 45 46 45 46 45 44 47 50
66 65 61 58 57 54 47 42 39 36 35 34 32 33 36 37 36 35 33 32 34 35 35 37 38 40 41 43 45 45 45 46 47 48 49 51 50 48 47 49 49 49 53 55
62 65 63 61 59 56 55 50 44 39 35 35 35 35 34 36 39 38 39 39 40 41 43 45 46 47 48 48 48 50 51 52 53 51 51 52 50 48 51 49 51 53 58 62
64 65 64 62 63 57 55 56 51 47 44 42 38 38 39 38 37 37 39 42 44 46 47 49 51 53 53 54 54 55 55 54 57 52 54 53 52 53 56 56 56 61 65 70
66 66 66 65 65 62 60 57 54 52 49 49 45 43 42 41 40 42 44 45 46 49 49 51 51 53 55 55 57 56 56 56 58 58 60 56 54 54 56 59 62 65 70 74
71 65 65 65 70 68 66 60 60 60 55 54 53 52 48 49 50 50 51 51 53 52 54 56 57 57 57 57 57 58 62 60 61 61 65 61 59 57 60 64 67 71 75 79
66 68 70 66 69 70 71 69 67 65 64 60 57 56 58 58 57 59 59 60 61 60 62 62 62 62 62 61 59 61 68 64 61 62 66 63 65 65 67 71 76 79 84 89
58 66 69 70 69 66 67 65 66 66 65 65 64 63 63 65 65 67 66 66 67 68 67 65 65 65 63 62 63 65 73 68 65 64 66 66 71 71 76 78 84 88 92 94
59 58 62 71 71 69 70 68 67 67 68 65 66 65 65 67 70 71 70 70 69 67 65 64 64 65 67 59 59 70 75 68 65 64 68 70 73 78 81 85 89 93 96 102
61 57 55 55 61 72 74 71 70 67 68 68 69 69 69 70 70 72 73 71 69 68 65 63 63 67 69 57 59 67 70 69 68 71 72 75 79 83 89 92 94 98 102 106
66 64 62 58 57 56 56 65 75 77 77 78 76 75 73 73 73 71 70 69 66 66 63 61 64 67 64 58 59 69 69 71 75 78 80 83 87 90 92 95 98 103 107 111
72 68 65 63 59 57 54 55 59 61 61 64 63 59 64 70 68 67 66 66 66 64 63 61 64 63 64 61 71 71 74 75 78 82 86 89 90 92 96 98 104 106 109 112
75 74 71 68 63 59 60 63 64 64 61 58 51 52 59 63 64 67 68 68 68 67 66 67 66 63 66 73 77 78 81 83 85 87 89 91 94 97 101 104 106 109 113 119
80 81 79 73 69 69 72 70 69 67 65 61 59 61 63 65 68 72 75 77 77 73 70 71 69 67 75 83 84 86 88 90 91 93 94 96 100 102 105 106 110 113 118 117
88 87 83 80 80 80 80 78 76 73 71 68 65 67 69 72 73 76 79 80 81 78 73 77 75 75 82 87 90 92 92 93 97 98 98 99 100 105 105 110 114 116 116 119
93 92 89 88 89 90 90 87 84 79 76 72 70 72 76 76 79 82 82 85 86 86 82 84 83 85 90 92 94 96 98 102 102 102 101 104 107 109 111 113 115 115 118 121
91 93 94 94 96 96 97 93 89 85 82 81 83 84 84 84 85 86 87 90 92 93 93 91 93 95 97 98 101 103 105 105 105 104 107 110 113 114 113 114 116 116 118 117
96 97 97 100 104 102 101 97 97 97 94 91 88 89 90 90 92 94 96 97 99 101 100 100 102 102 102 103 106 107 107 108 110 114 115 116 114 114 114 116 117 117 114 114
98 100 102 103 105 105 101 98 97 96 98 94 93 93 94 96 98 99 101 103 103 102 104 104 105 106 107 110 112 112 113 114 114 112 112 114 113 112 113 117 117 113 111 110
97 98 102 105 106 109 109 108 106 106 103 104 103 101 101 102 103 104 104 104 105 104 107 109 109 111 112 113 112 114 114 113 112 114 113 112 114 115 116 113 110 110 108 103
97 99 100 101 102 104 106 107 108 109 110 111 112 109 108 106 107 109 108 107 108 109 109 110 111 111 111 111 111 111 110 110 110 112 115 117 117 111 108 105 106 101 99 97

GFSNW_250_spd_006.txt.gz
Wind_Speed
48 44 44 44 43 40 36 34 32 29 28 29 28 23 19 16 19 18 15 12 10 9 9 8 8 5 4 4 5 6 8 10 11 13 15 16 17 19 23 27 30 32 36 42
52 47 45 45 43 42 39 34 32 30 30 31 29 23 21 18 19 18 14 12 11 11 9 9 8 8 8 9 10 12 14 16 16 18 22 26 28 31 32 36 38 39 38 44
55 48 48 45 44 40 38 36 33 30 31 32 31 27 24 23 19 16 14 13 13 14 13 11 11 11 12 12 14 16 19 21 22 22 24 25 28 31 34 35 40 45 40 42
54 49 49 47 44 39 36 35 33 33 34 34 33 30 25 24 22 19 15 15 16 17 16 17 16 16 15 15 17 20 23 25 26 27 29 32 34 36 38 41 43 42 45 43
55 51 48 47 44 39 36 36 36 37 37 34 33 32 30 27 24 22 19 18 19 21 21 21 21 21 19 19 20 23 26 29 32 32 34 36 40 41 44 46 47 46 46 48
57 55 51 49 45 41 36 37 38 39 37 37 33 33 31 31 28 25 23 22 22 25 25 24 25 25 24 25 26 29 31 34 37 41 43 44 45 46 48 51 51 49 50 50
62 59 56 52 48 44 41 36 35 38 40 39 37 33 32 30 28 27 26 24 26 26 27 29 30 29 30 31 33 34 37 40 42 44 47 51 50 52 51 51 52 54 52 52
63 63 60 57 55 49 44 38 34 38 40 38 38 39 36 37 37 32 32 31 31 31 32 33 33 33 34 37 40 42 45 47 48 49 50 54 54 52 56 52 55 54 54 52
64 65 64 61 57 54 52 44 39 35 35 38 39 34 35 34 33 35 35 35 35 35 37 39 39 41 42 44 47 48 48 50 52 54 53 55 56 54 57 54 57 55 57 58
60 64 65 64 60 57 52 51 45 44 39 37 34 31 34 33 34 30 32 33 35 38 40 39 38 39 42 43 48 52 53 54 55 54 55 56 57 59 61 60 60 60 59 61
57 61 62 67 64 60 57 53 52 51 49 47 39 36 33 34 34 35 36 38 37 38 40 42 45 47 50 53 55 58 60 64 62 61 62 60 60 60 62 65 63 61 62 65
59 60 62 62 67 66 62 59 58 57 55 55 52 48 42 43 41 42 44 42 47 47 50 52 54 56 59 61 62 65 70 69 64 62 64 66 63 63 63 64 63 63 66 73
63 62 62 64 64 66 66 65 62 59 57 57 50 52 53 51 47 48 47 51 52 55 57 59 61 64 64 66 68 73 67 68 63 59 63 64 66 66 61 64 66 68 71 77
59 64 64 65 62 62 63 64 62 60 62 59 56 57 54 56 55 55 53 54 57 60 64 65 68 70 69 69 71 70 70 69 68 63 62 64 64 65 67 69 71 75 80 84
60 58 64 66 64 64 65 67 67 65 66 65 66 65 65 65 65 65 64 63 64 66 68 70 72 71 74 71 69 68 73 70 68 63 61 66 66 67 70 76 79 84 87 91
65 61 57 59 65 67 67 62 60 63 65 68 70 69 70 70 70 68 69 69 69 67 70 73 73 75 78 71 62 66 71 70 69 68 66 66 70 74 78 82 87 90 92 97
66 64 62 58 59 63 67 66 69 69 69 66 66 66 66 66 66 67 71 71 71 74 74 73 76 80 75 64 60 72 70 71 70 73 72 74 77 81 83 88 93 95 98 104
69 65 64 61 58 57 56 60 67 71 71 73 69 66 69 72 71 72 73 74 78 79 80 78 76 71 68 59 69 71 76 76 73 74 78 81 84 88 91 95 97 102 105 106
76 73 69 64 61 59 62 63 63 62 61 62 61 65 72 76 76 78 78 78 78 74 69 69 68 63 62 72 75 80 79 81 79 80 84 87 92 97 100 103 105 105 107 108
83 79 76 72 69 71 70 68 67 66 63 57 54 57 58 62 65 69 71 70 70 65 65 70 69 65 72 81 84 86 84 84 87 88 91 95 99 102 106 108 108 109 111 116
87 86 81 78 80 79 77 77 75 70 65 63 60 62 64 64 68 73 76 76 77 74 71 76 73 71 78 86 89 90 89 91 92 96 99 102 105 107 110 111 112 116 119 121
93 88 90 87 86 87 86 83 79 73 72 69 68 69 72 74 76 79 79 79 80 77 78 81 78 80 82 86 89 92 94 97 101 103 106 108 109 111 113 116 119 121 122 121
90 95 92 96 94 95 96 93 86 83 78 76 80 80 82 81 81 83 85 87 85 85 86 85 88 90 92 94 97 99 100 104 105 106 109 111 115 115 119 119 120 120 120 119
91 95 95 96 101 103 101 98 93 89 88 86 85 88 90 89 91 92 94 95 95 95 94 93 96 98 100 100 101 101 105 107 109 113 115 116 117 120 118 117 117 114 112 112
93 97 97 96 98 101 103 103 102 101 99 96 97 97 97 96 98 98 99 101 101 101 102 103 104 105 105 106 107 110 110 113 118 119 120 121 120 119 117 115 111 110 111 112
98 95 95 97 97 96 100 105 104 105 106 104 102 103 104 103 103 105 105 107 108 109 110 110 109 110 110 112 114 115 119 120 120 117 114 113 114 112 110 110 111 111 108 105
94 95 97 98 99 98 98 99 103 103 103 105 107 107 106 106 109 109 110 113 114 115 113 111 111 112 113 117 119 120 116 111 110 111 108 105 107 110 112 110 107 105 101 97

GFSNW_250_spd_009.txt.gz
Wind_Speed
53 46 48 40 43 39 37 36 35 28 27 26 27 25 22 20 19 18 17 14 14 13 13 12 11 10 9 7 5 5 5 6 8 10 10 13 15 17 18 23 26 30 36 39
55 49 45 45 44 40 40 38 36 29 27 25 27 25 23 20 19 18 16 16 14 13 13 12 11 10 10 9 10 10 9 10 14 16 19 19 19 23 27 32 34 34 36 40
58 50 44 42 45 42 40 38 35 29 27 28 28 27 25 21 19 19 18 16 14 13 12 11 12 11 11 12 13 13 13 14 16 19 21 22 24 27 28 30 35 42 42 44
61 53 47 44 49 43 40 38 36 33 31 31 32 30 26 23 20 18 18 16 15 15 14 14 15 14 13 14 15 16 17 18 20 22 24 28 31 35 37 39 40 43 47 47
60 53 47 44 48 45 43 38 35 32 30 27 30 32 29 25 23 22 20 17 15 16 18 20 19 17 17 17 18 20 22 24 25 28 32 35 38 41 43 45 47 51 50 52
60 55 46 44 48 45 41 37 37 33 35 29 32 34 33 28 27 22 21 19 19 22 20 18 21 19 19 20 23 24 26 29 32 35 39 42 45 48 49 51 52 53 53 53
60 57 50 45 47 44 44 43 35 32 31 31 34 36 34 31 30 25 23 23 24 24 20 21 21 22 23 24 27 28 31 34 38 41 43 43 44 49 51 52 54 57 57 57
59 60 51 50 49 47 47 38 34 31 33 34 33 35 35 32 30 25 28 28 26 25 27 27 27 26 27 28 30 34 37 37 38 42 46 49 49 55 60 58 59 61 62 61
59 62 56 50 49 49 44 39 41 37 29 29 32 35 35 32 31 32 31 31 33 33 33 32 31 31 33 32 35 33 35 40 45 48 52 55 56 61 61 57 59 61 64 64
58 61 56 55 52 50 48 44 43 41 34 29 28 29 35 37 37 36 34 33 29 29 29 30 31 33 31 31 36 41 44 47 52 55 58 59 62 57 58 58 58 60 60 62
55 58 59 57 58 55 52 50 48 44 44 38 30 27 30 34 35 34 31 31 30 31 31 35 38 40 42 43 45 50 52 56 60 61 63 63 61 59 60 61 59 58 59 58
53 56 57 59 58 59 57 54 52 53 52 47 43 38 34 33 32 37 37 33 37 35 37 41 43 44 46 50 52 57 58 62 66 68 68 68 62 62 60 59 62 61 60 62
55 53 54 58 60 61 61 60 57 55 53 52 51 48 48 45 42 42 43 43 43 44 47 47 48 51 53 55 58 63 64 68 71 71 71 74 68 61 59 61 61 61 63 68
57 54 54 52 57 60 63 63 63 59 57 55 52 52 52 50 50 51 53 53 54 51 54 52 52 53 55 56 60 65 71 75 76 73 76 74 69 65 64 65 65 67 71 76
56 56 55 55 53 55 60 62 62 63 62 60 60 59 58 58 55 55 55 55 55 57 58 60 62 65 67 65 66 67 73 77 79 77 80 78 71 70 72 73 73 76 79 82
57 54 54 57 57 56 54 56 59 62 64 64 65 64 64 61 61 61 61 63 64 65 68 68 69 72 72 64 64 69 75 81 84 80 79 75 71 74 76 79 81 84 87 90
59 58 56 53 57 58 59 58 59 60 61 62 62 61 61 62 63 63 66 68 70 73 72 70 70 70 69 68 66 74 80 84 84 81 77 74 76 80 82 85 88 91 93 96
66 61 59 57 55 53 55 59 63 65 64 60 55 56 61 63 62 63 67 69 71 69 67 67 73 75 74 68 75 79 83 85 79 73 77 78 80 84 86 89 91 95 98 102
73 71 66 63 59 60 61 59 58 59 60 60 60 65 68 69 69 70 72 74 76 74 75 78 77 73 73 77 77 74 71 74 77 81 83 84 86 89 90 93 98 102 104 106
80 77 73 69 69 67 64 65 64 61 58 53 53 60 63 67 71 74 76 78 78 75 74 77 73 67 70 74 75 75 78 80 81 83 86 88 89 93 96 100 103 106 108 111
84 84 80 78 79 76 73 70 67 65 62 60 58 60 61 64 69 73 75 74 73 72 71 73 70 67 73 76 81 82 83 84 86 88 91 94 96 98 103 106 108 111 114 117
86 88 88 86 86 86 83 77 75 72 70 66 66 69 71 71 74 77 77 78 78 77 76 77 76 75 77 80 83 84 87 89 93 96 98 101 103 107 109 113 115 117 119 122
92 88 90 93 93 94 92 87 83 79 78 77 78 79 80 80 82 84 85 85 85 83 82 82 84 86 86 87 88 89 93 97 99 101 105 109 112 113 115 120 121 120 123 123
90 95 100 98 95 96 98 94 91 89 89 88 86 86 86 87 89 91 92 94 93 94 92 90 92 94 96 96 96 99 102 105 108 109 112 114 117 120 123 124 123 120 112 110
83 86 91 94 101 103 101 101 100 99 98 96 96 96 97 96 99 99 100 102 104 103 104 103 101 101 104 105 107 109 111 112 115 118 119 121 121 121 121 118 111 109 106 105
77 87 87 91 95 98 101 104 104 104 103 103 105 104 104 105 105 106 107 109 111 114 114 113 113 114 114 117 119 120 120 122 122 121 120 120 116 110 108 107 105 104 103 101
74 79 85 88 90 96 96 96 97 99 102 104 104 105 107 109 111 111 112 116 116 117 118 120 122 123 124 124 124 123 122 121 118 113 108 105 104 102 102 101 102 102 102 97

GFSNW_250_spd_012.txt.gz
Wind_Speed
38 53 49 44 46 43 42 41 38 36 33 31 28 27 25 23 20 20 19 16 13 12 12 12 14 14 13 12 10 10 9 7 7 7 9 12 15 16 19 20 24 29 31 32
45 56 48 47 46 45 43 42 39 36 34 31 30 28 24 21 20 20 19 16 15 14 15 16 14 13 11 11 12 12 11 12 12 12 13 13 15 20 23 26 29 32 35 36
51 56 48 49 48 45 43 40 39 34 32 30 31 29 24 21 20 19 19 17 17 16 16 15 13 13 13 13 13 13 14 15 15 16 17 17 19 24 29 32 36 39 41 46
57 56 49 50 46 46 39 43 40 39 35 32 32 29 26 23 20 20 19 18 17 18 18 16 15 16 15 14 14 15 16 17 17 17 20 22 26 30 32 36 38 41 45 48
61 56 50 50 46 46 42 41 40 38 33 26 27 28 27 25 21 19 18 18 20 21 22 20 18 16 16 16 16 16 18 19 20 21 23 28 32 35 37 40 44 47 51 55
62 55 49 49 45 46 45 44 41 38 32 30 26 27 29 28 25 21 21 22 21 21 18 16 16 18 17 18 18 19 20 21 23 26 29 33 35 38 40 44 49 52 57 58
60 57 50 47 45 42 46 45 41 41 37 31 30 27 28 31 28 24 24 24 22 19 19 18 18 18 20 21 22 23 25 26 28 30 32 33 37 43 46 50 55 56 57 58
63 59 55 48 42 42 47 44 43 39 36 29 28 24 27 31 33 30 27 24 23 23 23 23 22 23 24 25 26 28 29 31 32 32 36 39 44 48 51 55 60 59 63 60
61 59 58 52 44 45 48 46 42 38 33 27 28 26 27 31 32 32 31 30 26 25 26 25 28 28 28 27 31 31 29 30 34 40 43 44 49 53 56 60 63 64 68 64
60 57 58 55 46 44 47 47 43 40 37 31 27 26 28 33 35 34 32 32 32 31 30 29 26 24 24 25 28 34 36 39 43 47 50 52 55 58 62 64 64 64 68 65
56 59 59 56 49 45 44 46 44 42 41 37 30 24 25 29 34 36 36 36 36 35 33 32 30 28 30 34 35 39 40 44 50 53 57 57 61 64 66 67 68 69 71 67
48 55 63 59 52 48 46 45 46 44 38 37 36 38 32 27 28 30 34 38 39 36 36 35 35 35 36 38 39 45 48 52 54 55 58 63 68 70 71 71 72 73 74 69
48 49 58 65 58 52 49 48 46 47 47 42 40 39 40 38 36 34 32 32 37 40 39 40 40 40 43 45 47 50 52 55 58 63 67 71 71 72 73 73 75 77 76 72
49 46 52 63 64 59 54 51 52 50 50 50 49 49 47 47 47 48 46 47 47 47 47 47 50 53 53 54 54 56 60 63 68 68 72 70 71 75 74 77 79 80 76 74
49 48 47 51 60 60 57 55 55 55 54 53 54 52 51 51 51 52 53 54 55 54 54 55 57 58 57 55 57 59 67 72 75 73 74 73 76 77 77 80 83 79 77 78
58 55 52 50 50 52 56 56 55 56 59 58 60 59 58 57 56 56 57 58 59 60 63 63 63 66 65 61 61 67 76 78 76 73 76 81 82 81 81 84 81 79 81 85
57 56 56 56 56 57 55 53 52 52 55 55 58 60 62 64 63 64 65 66 68 70 68 67 67 69 67 64 62 74 74 75 77 80 84 83 83 84 86 84 83 86 88 89
60 59 57 56 56 55 54 55 56 56 55 53 49 50 57 61 63 66 68 70 73 71 69 67 69 68 68 62 74 75 77 79 82 84 83 83 83 83 83 85 87 90 91 93
64 62 60 57 56 55 55 55 56 56 54 52 51 54 57 61 64 66 67 68 69 67 66 69 69 66 68 73 76 77 80 81 81 80 80 81 84 85 87 89 91 93 96 99
67 65 63 63 62 61 60 57 55 52 50 49 55 60 62 67 71 73 73 73 71 68 68 72 69 66 72 77 76 76 78 79 80 82 83 85 88 91 92 94 98 101 103 107
71 69 69 69 68 67 67 65 62 60 57 57 58 61 62 63 66 70 71 70 70 68 68 71 66 64 72 74 76 78 79 82 85 87 90 91 94 97 100 102 105 108 110 114
73 74 77 77 76 75 74 70 69 68 67 64 65 68 71 72 74 75 75 76 77 74 73 74 71 72 76 79 81 83 86 88 91 93 96 99 102 105 107 110 113 115 119 121
75 76 77 79 83 84 80 79 77 78 78 77 77 77 78 78 80 82 82 83 82 84 83 82 83 85 86 89 89 91 94 95 98 101 103 106 110 113 116 119 121 124 127 128
85 81 81 82 84 86 84 87 87 87 87 88 86 87 88 88 90 92 93 94 94 94 92 93 94 97 98 98 99 102 103 104 106 109 113 115 119 122 124 126 125 124 122 116
77 81 86 90 92 92 93 95 94 92 94 97 96 95 96 96 96 97 101 103 104 105 105 104 106 108 110 110 110 112 113 116 118 119 120 122 123 121 117 114 112 108 105 105
70 77 80 81 83 86 90 94 97 101 100 98 98 99 102 103 105 106 108 111 111 112 112 114 115 116 117 119 119 119 120 120 118 115 117 114 112 111 108 107 104 103 104 101
67 72 76 75 78 81 86 89 92 96 97 98 101 103 107 110 113 115 114 116 117 117 116 116 117 118 118 119 118 116 116 115 109 106 102 101 101 102 102 103 104 99 98 94

GFSNW_250_spd_015.txt.gz
Wind_Speed
56 57 49 43 51 47 42 41 40 40 39 35 32 29 27 28 27 24 23 20 19 15 12 13 14 15 16 16 15 14 11 8 6 5 6 7 8 11 14 16 18 21 24 28
61 58 47 51 53 45 43 42 42 42 37 35 32 30 30 27 24 23 23 20 15 13 14 15 15 17 16 15 14 12 10 9 8 10 12 12 13 14 16 21 24 27 29 32
62 54 49 57 52 47 46 45 43 41 37 34 33 31 28 25 23 24 22 18 15 15 14 15 16 16 15 15 12 11 12 14 15 15 16 15 16 18 22 26 29 29 33 37
61 52 54 57 51 49 46 45 43 42 36 35 34 30 27 24 23 23 22 20 19 18 17 17 18 18 17 15 14 14 15 16 18 19 19 18 20 23 27 28 29 33 37 44
59 55 60 56 51 50 47 46 46 43 40 35 34 32 28 24 23 23 23 23 22 22 19 17 17 15 13 14 15 16 17 19 20 21 22 22 25 28 28 29 33 38 42 46
59 58 61 54 51 50 47 47 46 43 39 37 34 33 30 27 24 25 25 23 23 22 18 17 16 16 19 19 18 19 21 21 21 23 22 25 32 31 29 34 40 44 45 51
61 60 59 53 52 51 51 49 47 43 40 38 36 33 32 30 27 26 26 26 24 20 18 19 19 19 19 18 20 23 24 24 25 27 28 28 33 34 35 39 46 49 52 56
62 60 59 53 53 50 52 45 45 44 44 42 33 31 30 30 30 29 30 26 25 24 22 22 21 21 21 21 23 26 27 29 29 30 32 30 36 42 43 45 50 55 58 61
62 61 58 54 53 51 50 48 47 46 46 37 30 29 26 28 32 34 32 30 28 26 26 24 25 25 26 26 29 31 31 30 30 31 33 35 42 47 51 52 56 60 65 64
60 62 58 51 52 49 52 50 48 47 45 38 34 31 31 31 33 33 34 33 33 32 31 28 29 29 30 31 33 33 30 32 34 37 37 38 47 52 57 58 60 65 69 67
60 60 57 53 48 48 46 50 48 47 43 40 37 34 33 36 34 32 32 33 35 34 35 35 36 34 34 35 35 37 39 39 40 41 45 46 54 57 58 62 66 69 69 70
60 59 59 53 49 45 44 48 48 47 45 41 39 36 32 34 34 32 32 36 38 38 39 39 39 40 40 41 40 42 41 44 45 52 57 58 60 61 63 65 69 71 72 73
58 61 58 57 53 47 43 42 49 46 45 42 39 40 40 39 36 33 31 34 38 37 39 41 43 44 44 43 42 43 46 52 57 60 63 66 65 65 68 71 74 74 75 78
53 56 59 58 57 52 47 44 42 45 46 45 42 42 44 44 44 44 43 42 41 39 38 39 41 42 42 44 46 49 55 62 65 62 65 66 69 72 74 76 76 76 78 84
54 50 56 54 56 58 53 49 46 44 43 45 47 49 49 48 47 47 48 49 50 51 52 52 53 52 52 50 50 55 63 70 70 67 71 72 73 75 77 77 78 80 83 84
53 53 50 51 55 60 57 55 50 49 47 47 48 49 50 52 54 56 56 57 57 57 56 55 55 58 58 54 55 64 75 75 76 74 75 75 76 77 78 79 82 84 82 81
51 52 50 47 45 48 59 60 59 55 52 51 51 52 52 55 57 59 61 62 63 62 61 61 63 65 64 61 61 77 77 79 80 79 78 75 79 80 82 83 82 82 83 85
53 53 52 51 48 45 47 55 64 63 59 56 55 55 58 60 63 65 67 69 70 68 68 70 71 69 70 64 74 74 75 75 77 79 80 81 82 81 81 82 84 87 89 91
53 54 55 57 58 57 56 56 57 59 61 61 59 59 61 62 66 68 69 70 70 68 67 70 70 64 63 71 73 74 78 78 79 78 78 80 82 83 85 87 90 94 95 99
53 51 51 51 54 55 54 53 54 55 55 54 57 62 64 68 70 71 71 71 68 63 63 67 65 63 69 74 75 76 77 77 77 78 80 82 85 88 91 94 97 102 104 107
58 56 56 56 55 56 56 55 54 54 54 56 57 62 64 67 68 70 70 68 69 66 67 69 66 65 70 73 77 78 80 82 82 84 87 90 93 96 99 103 106 109 112 116
64 61 61 61 61 61 58 56 56 56 57 59 64 68 70 70 72 73 72 74 73 72 73 74 73 74 78 82 83 84 85 88 90 92 96 99 102 105 109 111 114 116 118 120
68 68 67 67 66 65 63 62 62 65 68 69 70 72 75 76 78 79 80 81 81 82 82 83 82 84 87 89 90 91 94 96 99 101 104 107 110 113 116 117 119 122 123 122
73 72 73 73 70 70 71 72 73 74 76 76 78 81 83 85 87 88 90 92 93 92 91 92 94 96 97 98 100 102 103 105 107 108 111 113 115 117 120 122 122 118 113 111
76 76 78 76 76 77 78 79 78 80 81 83 86 89 90 93 96 97 99 101 102 103 104 104 104 105 108 109 110 111 111 112 113 114 115 118 120 120 115 112 112 113 114 112
81 80 80 81 83 85 84 85 84 83 86 89 92 93 95 96 98 99 100 104 104 107 109 110 112 112 112 110 112 113 114 114 113 112 109 107 109 110 110 110 111 110 109 108
76 78 82 83 83 88 91 88 88 93 96 97 99 100 103 105 108 108 107 108 106 108 110 108 107 107 108 106 104 105 106 104 104 105 104 101 99 101 100 102 100 97 96 93

GFSNW_250_spd_021.txt.gz
Wind_Speed
78 77 71 63 55 49 36 30 27 28 24 30 32 29 28 29 25 23 22 22 20 19 18 15 13 13 12 12 12 15 17 19 19 17 15 10 7 5 6 8 10 11 13 15
78 78 71 64 53 46 41 35 30 32 27 35 35 33 32 30 27 25 25 23 22 20 17 14 12 12 13 13 17 19 20 19 16 12 8 6 7 9 10 12 15 16 17 20
78 78 71 64 56 52 45 39 37 35 33 42 38 37 35 31 28 27 27 25 23 21 19 17 16 15 15 17 18 17 16 14 11 9 8 9 10 12 15 17 18 21 21 26
78 76 70 66 60 53 48 40 41 39 40 41 40 40 36 32 31 31 30 26 25 23 21 18 18 16 18 17 16 15 14 12 11 12 12 12 14 16 20 22 24 26 27 32
74 72 71 68 62 57 48 44 44 46 51 48 45 42 37 34 33 33 32 29 27 25 22 20 19 18 18 17 16 14 14 15 17 15 15 16 19 23 26 27 29 29 31 37
69 68 67 68 63 56 51 52 50 54 54 49 45 42 39 38 37 36 33 31 28 26 24 22 20 19 20 19 18 19 20 21 18 18 20 20 25 31 30 31 32 33 35 38
65 63 62 64 61 57 59 55 57 58 55 50 48 45 41 39 38 37 34 32 29 26 25 24 23 23 22 22 23 23 24 24 22 25 25 24 32 36 36 34 36 36 37 36
62 61 62 62 62 62 61 59 61 60 56 53 48 44 41 39 39 37 33 32 31 27 26 25 24 25 26 26 26 26 27 27 26 28 30 29 35 39 42 41 39 41 38 41
60 62 64 65 64 65 60 63 63 60 57 52 50 46 41 41 39 36 33 33 31 29 27 27 27 27 26 28 29 30 30 30 30 33 31 33 39 44 44 44 42 46 46 49
64 66 65 66 66 61 63 63 62 59 57 52 48 44 43 44 39 36 33 30 29 28 29 29 29 30 29 30 32 34 33 34 35 37 36 38 44 44 46 47 47 49 52 57
65 65 67 66 61 64 63 63 63 58 56 52 48 45 45 44 40 36 34 30 30 29 30 31 30 30 31 35 36 38 38 38 40 42 45 45 47 48 49 48 50 52 56 61
63 66 65 61 64 63 63 62 59 56 55 52 49 46 45 43 41 37 35 33 33 33 33 33 32 35 36 37 38 41 43 45 46 48 50 51 51 53 53 53 55 60 62 65
66 63 61 60 65 61 62 62 59 58 56 53 49 45 44 44 41 38 37 37 36 34 33 34 37 37 39 40 41 43 45 48 51 51 54 55 55 55 57 60 61 65 69 71
62 60 55 65 65 61 60 60 58 57 55 53 50 47 45 44 43 40 39 38 36 35 35 35 37 39 39 40 42 44 47 49 49 50 54 55 58 62 63 65 69 72 76 80
59 55 53 65 62 59 61 59 56 56 53 52 51 47 46 46 45 44 43 42 41 41 40 40 40 41 42 43 46 51 59 57 56 56 60 60 64 67 69 73 77 81 85 88
55 52 58 64 58 54 54 53 50 48 49 50 50 49 47 47 48 49 49 48 48 47 45 44 43 46 46 47 52 60 62 63 64 63 64 66 69 72 76 80 84 87 88 85
53 50 57 63 57 54 53 53 55 54 53 51 50 50 49 49 50 51 52 52 50 49 49 49 51 54 56 56 59 65 68 68 69 69 70 73 77 80 84 88 87 84 83 82
49 50 55 59 57 50 50 52 52 51 51 52 51 52 54 54 54 54 53 53 53 53 53 55 57 59 62 61 65 68 71 73 75 76 77 79 83 85 84 83 82 81 83 86
47 44 49 57 60 55 51 50 47 47 45 46 50 54 56 56 58 57 57 56 56 56 57 61 64 63 64 65 67 71 74 77 80 82 84 85 86 84 81 82 85 89 92 94
46 44 40 58 59 62 56 53 49 48 46 44 47 49 51 53 55 56 57 58 59 61 64 65 64 64 69 73 74 76 79 83 85 87 87 86 84 85 87 90 94 97 100 103
48 45 41 47 63 55 64 57 53 52 51 52 53 55 58 59 59 61 63 64 65 64 64 68 69 71 76 80 83 85 87 87 87 88 86 86 89 93 96 99 102 104 106 110
51 48 45 43 47 56 56 58 58 60 60 61 63 64 63 65 67 68 68 70 71 72 72 74 75 77 81 84 85 85 85 85 85 87 90 94 98 100 103 106 109 111 114 116
50 46 47 47 44 43 44 51 60 67 68 69 70 70 70 69 70 69 70 70 71 72 73 75 77 80 81 82 83 84 86 88 91 94 97 101 104 106 110 112 113 115 118 118
59 56 52 49 48 47 50 52 55 58 60 64 66 67 67 68 69 68 70 71 72 72 74 77 78 78 80 82 86 89 93 96 97 101 104 107 109 111 113 115 118 117 116 116
57 59 57 55 52 53 54 55 57 59 61 62 65 66 67 69 69 70 71 72 72 74 77 79 82 84 87 90 94 98 101 104 106 110 111 113 113 115 117 117 117 116 117 117
64 60 59 60 60 59 60 60 61 62 63 64 65 66 68 70 71 72 75 76 79 81 83 86 89 92 95 98 101 105 108 112 112 115 117 114 113 113 112 114 115 115 112 111
67 67 67 65 65 65 65 65 66 66 66 68 69 70 73 74 75 78 82 84 87 89 93 97 99 101 103 105 107 111 110 114 113 109 110 112 113 114 113 110 105 100 100 101

GFSNW_250_spd_024.txt.gz
Wind_Speed
101 101 103 101 90 78 73 59 49 45 38 34 32 29 27 28 26 23 26 23 22 21 19 18 17 16 15 14 14 14 16 17 17 17 20 20 19 15 13 12 14 15 16 17
100 98 95 94 80 73 73 57 51 46 38 36 32 32 30 30 26 27 28 25 22 19 18 18 16 15 14 13 14 16 18 20 23 22 20 17 15 15 15 16 18 19 21 22
93 94 90 83 80 82 78 60 55 45 37 39 36 34 33 31 28 31 27 24 23 22 22 20 17 15 15 14 17 20 21 22 21 18 17 17 15 15 17 20 21 22 25 26
84 84 83 81 84 84 76 61 54 48 37 38 39 38 37 34 32 31 28 27 25 26 25 22 18 15 15 18 21 22 22 21 18 17 15 16 17 18 20 23 24 25 28 30
69 72 75 79 85 85 73 62 56 46 41 43 43 40 38 35 34 33 31 28 27 28 25 22 18 17 18 20 22 22 22 21 20 20 21 19 19 22 24 25 27 29 30 35
66 70 76 79 82 78 69 63 54 50 45 45 45 41 42 38 37 36 32 30 31 28 26 24 22 22 23 24 24 24 25 24 24 24 22 21 25 27 27 29 31 32 34 38
69 71 73 76 79 76 71 66 60 52 49 50 48 47 46 42 41 38 34 33 33 30 28 26 26 25 26 27 28 28 28 28 28 27 25 25 31 32 33 33 35 35 37 40
69 71 72 75 78 77 72 67 62 55 52 54 51 51 49 44 41 38 36 36 35 32 30 29 29 29 29 30 31 30 30 30 30 30 30 30 33 37 39 37 38 38 40 44
68 67 70 76 78 76 75 68 64 55 52 55 55 53 50 44 41 39 39 38 36 35 33 32 32 32 32 33 33 33 33 32 33 34 33 34 38 40 41 42 42 46 48 49
61 63 73 74 76 75 73 70 65 57 57 59 57 53 49 45 43 42 41 40 38 36 36 34 32 33 33 33 34 33 34 34 35 36 37 39 41 42 44 46 47 49 53 56
58 64 68 71 72 72 70 69 67 63 62 60 58 56 51 46 45 43 44 41 38 38 37 36 35 34 34 36 37 37 36 36 38 40 43 42 44 44 47 49 52 56 58 59
62 63 65 68 71 70 69 67 67 64 63 59 59 57 53 49 47 44 42 41 37 37 39 38 35 36 37 37 37 38 39 40 43 45 46 46 48 49 49 50 53 56 58 57
64 65 67 69 69 67 63 68 66 65 63 61 60 57 52 50 46 45 43 41 39 39 38 36 36 36 37 38 38 41 43 45 47 48 49 47 46 47 50 54 57 58 60 65
68 67 67 66 66 65 70 68 66 63 63 61 60 57 53 50 47 46 45 44 41 39 38 37 37 38 38 40 42 45 47 47 46 48 52 51 55 57 59 61 61 64 67 71
60 62 64 64 68 68 65 66 63 63 64 61 59 57 53 49 47 47 46 45 44 43 42 41 40 39 39 40 41 44 46 48 50 52 54 57 62 65 66 66 69 72 74 76
58 61 63 69 65 62 64 64 62 62 60 58 57 56 53 49 48 48 47 46 45 43 42 42 41 43 45 45 48 52 54 54 53 58 65 67 68 69 72 74 75 77 79 82
59 62 63 55 55 59 61 56 57 57 57 57 58 57 54 50 49 47 46 46 46 47 47 47 49 51 51 51 52 56 59 62 64 68 71 71 72 74 76 77 79 82 86 90
57 58 54 53 59 63 59 56 57 60 59 58 56 55 55 53 52 50 49 49 50 51 52 53 55 54 55 54 59 62 66 70 73 76 75 76 79 80 80 82 86 90 90 89
49 50 48 44 56 58 57 53 53 52 51 51 53 55 57 56 56 54 54 53 53 53 54 56 57 57 58 62 66 69 72 76 77 78 81 82 82 84 87 90 92 89 89 89
49 50 48 46 56 58 56 52 49 49 50 52 53 55 56 57 58 58 58 57 56 55 56 57 58 61 67 70 71 73 76 79 80 82 84 86 89 92 92 90 91 91 92 96
46 47 46 47 53 59 56 52 51 51 52 54 56 57 59 60 60 60 58 57 56 55 58 63 61 60 69 73 76 78 79 81 83 86 90 92 91 91 92 92 94 97 101 104
48 47 44 46 49 53 58 53 53 55 53 54 57 57 56 55 56 56 56 58 58 55 58 62 62 70 75 76 78 81 84 86 88 87 88 90 92 92 95 98 101 104 108 113
47 47 45 43 43 46 52 57 58 60 62 62 60 59 61 62 63 64 64 64 63 65 66 68 71 77 78 79 81 82 83 85 87 89 91 92 95 97 100 104 108 111 114 118
48 47 46 43 41 41 48 56 62 65 63 66 67 64 64 64 65 65 68 69 70 70 72 75 78 80 80 80 82 83 85 86 88 91 94 96 99 103 108 111 114 114 118 118
53 51 47 47 47 47 47 47 49 54 62 65 64 65 67 69 69 70 71 72 74 74 75 75 76 78 81 82 83 85 87 90 94 96 99 102 106 111 112 112 115 116 115 115
57 54 53 52 53 53 52 53 54 54 56 58 60 62 63 65 66 66 68 70 71 73 74 76 78 80 82 84 87 90 93 97 100 103 106 109 110 111 113 114 112 112 114 113
60 62 62 61 62 60 59 59 59 59 61 62 63 65 67 67 68 69 71 72 74 76 78 81 83 85 87 90 94 97 101 104 106 108 108 110 111 110 108 109 111 113 113 111

GFSNW_250_spd_027.txt.gz
Wind_Speed
121 116 112 106 101 97 91 94 94 87 77 81 71 70 62 58 43 35 27 27 24 22 21 20 20 20 20 21 22 22 22 22 22 20 20 22 23 24 22 19 19 18 17 16
114 108 107 108 104 96 95 96 94 89 81 79 67 64 58 48 40 33 29 28 22 24 23 24 24 24 22 21 21 21 21 23 23 24 24 25 24 22 21 22 21 20 21 20
102 101 104 105 104 102 104 101 95 88 81 63 61 58 53 44 41 35 33 28 26 27 28 26 24 23 21 19 19 20 22 24 24 23 22 24 23 23 23 23 22 22 26 25
95 97 98 99 98 98 103 101 93 86 76 55 53 57 50 44 40 37 35 29 31 31 28 26 26 24 22 21 21 22 23 24 25 25 23 24 23 23 24 24 25 27 27 29
87 91 95 91 92 94 96 93 90 85 75 58 56 54 46 44 42 40 37 35 35 31 28 29 27 24 21 20 21 23 25 26 26 26 26 24 23 26 27 26 28 29 30 34
85 88 88 87 94 90 86 88 88 82 66 53 63 49 45 48 43 41 38 36 34 31 31 32 29 25 21 23 26 27 27 27 28 28 26 26 28 29 27 30 31 30 32 35
78 81 74 80 78 75 79 77 76 70 55 60 55 48 45 49 45 42 40 39 34 35 34 33 31 28 24 25 28 30 29 29 30 30 29 28 32 31 32 32 34 34 37 41
73 62 64 67 73 77 76 77 73 68 58 67 60 50 44 51 48 44 42 40 37 36 34 34 33 29 25 27 30 32 32 32 33 34 34 34 35 36 37 37 39 37 42 45
50 48 65 69 72 75 74 71 69 60 70 63 55 49 47 51 47 46 44 41 38 37 35 35 33 30 27 30 32 33 34 36 37 37 36 37 39 39 40 41 41 43 47 48
54 56 60 68 70 71 74 72 68 71 74 70 57 48 48 52 50 47 46 44 40 39 38 37 34 32 31 32 34 35 36 38 38 38 39 40 40 41 42 44 45 47 50 52
62 65 67 67 69 71 71 70 71 83 76 67 54 51 51 53 52 48 46 46 40 41 40 38 36 36 34 34 36 37 37 38 40 40 42 42 43 43 46 47 49 50 53 55
64 64 67 68 66 68 70 70 77 83 74 61 57 55 53 53 56 53 51 48 43 42 38 39 39 38 37 38 39 38 39 41 43 45 47 44 44 46 48 49 52 55 55 58
61 62 61 63 66 67 67 67 83 82 71 62 59 53 55 53 54 51 51 46 44 43 43 42 40 40 41 41 41 41 41 42 42 45 47 45 47 49 51 54 55 57 59 63
58 58 61 64 65 69 76 80 83 79 69 65 57 55 58 55 56 52 50 47 47 46 44 43 41 42 44 44 42 43 43 43 45 47 48 48 49 50 53 57 57 61 67 68
54 57 59 63 68 75 79 82 80 77 72 64 60 59 60 58 58 54 52 50 47 46 45 44 43 44 44 43 42 43 46 45 47 47 46 51 55 56 57 59 66 71 71 75
58 60 62 66 72 77 76 77 76 72 68 65 64 61 60 60 57 55 53 52 51 48 46 46 45 44 44 44 45 45 48 48 49 52 56 57 60 60 64 68 73 75 78 81
60 64 67 69 73 71 72 72 69 71 66 64 62 62 61 60 58 56 54 54 52 50 50 49 49 49 48 47 47 49 53 55 57 61 62 62 67 67 71 76 79 82 84 85
59 61 65 66 66 68 68 69 65 64 64 66 62 58 58 59 56 56 55 54 53 52 51 51 51 51 51 49 53 58 62 63 64 65 68 70 71 76 79 82 84 87 88 89
57 59 60 61 61 60 60 60 62 62 63 62 58 55 58 59 58 57 56 54 53 52 51 53 53 53 54 58 62 65 67 68 69 71 73 76 79 82 84 86 87 88 91 96
50 52 55 57 57 54 57 60 61 59 59 58 55 56 59 58 59 58 58 57 55 53 54 56 55 56 60 64 66 68 69 71 71 72 78 81 83 84 86 86 91 92 90 93
42 47 49 48 50 51 50 50 52 54 56 55 53 55 56 56 56 59 59 59 59 58 58 59 58 60 68 71 72 72 72 72 75 79 82 82 83 85 89 91 91 92 95 96
43 43 47 47 42 43 46 47 47 52 54 52 52 54 56 56 57 58 59 61 60 58 61 63 62 67 74 74 73 73 75 78 80 82 83 85 89 91 91 91 95 97 99 102
44 45 47 45 40 38 43 50 53 53 57 55 52 53 55 56 56 56 57 59 59 61 62 62 64 72 74 74 76 78 80 81 82 84 88 90 91 91 94 97 99 101 104 107
45 43 43 41 40 40 43 48 55 56 54 54 54 55 57 58 60 60 61 62 64 64 65 66 73 74 75 77 78 80 82 84 88 90 91 90 93 97 98 100 103 107 111 114
45 44 42 41 42 43 43 46 50 55 58 57 57 57 59 62 64 65 66 67 67 67 69 74 76 77 77 79 81 84 88 90 89 89 92 94 96 98 103 107 109 112 115 118
47 47 47 47 47 47 46 46 46 49 53 58 62 64 64 65 65 66 69 70 70 72 75 76 78 81 83 86 85 84 85 88 90 92 95 99 103 106 108 110 113 116 116 114
51 52 51 50 49 50 50 51 51 51 52 54 55 57 61 66 70 72 74 76 77 78 79 79 78 78 80 83 85 87 89 92 96 101 103 105 106 109 113 113 114 113 113 112

GFSNW_250_spd_030.txt.gz
Wind_Speed
110 103 102 98 99 93 96 94 93 96 93 80 77 73 72 71 67 69 68 65 59 40 34 26 23 22 21 23 24 24 21 21 24 24 26 27 27 27 28 26 22 21 22 24
111 107 103 98 92 95 94 95 93 95 88 79 76 73 76 71 70 71 68 63 54 38 31 26 23 21 25 24 24 26 28 28 27 28 30 30 27 26 25 23 23 25 26 22
113 114 110 104 99 94 93 91 98 93 88 78 78 77 71 69 68 67 68 60 40 37 32 28 24 26 24 25 26 27 26 27 30 32 30 25 26 26 26 26 28 23 26 21
102 110 110 106 104 104 104 100 94 92 87 79 79 77 75 73 72 69 68 53 38 39 34 29 27 28 28 28 28 27 28 30 30 30 27 28 27 27 28 27 25 24 24 25
91 96 98 107 111 111 111 104 97 94 91 88 78 78 76 76 75 68 58 42 42 40 36 32 31 29 30 28 27 26 27 28 28 30 29 27 27 29 28 26 23 25 27 28
80 85 85 98 102 102 100 100 98 94 90 86 81 76 76 73 67 52 46 45 45 44 36 35 34 32 31 28 26 26 27 27 27 28 28 27 29 28 26 25 26 27 29 33
70 78 80 80 85 86 95 96 96 91 84 81 77 80 78 73 65 60 49 48 46 41 41 37 37 35 32 28 26 27 28 25 27 28 27 28 30 29 28 29 30 30 33 36
68 73 75 70 81 69 85 89 86 81 76 81 80 76 70 69 58 52 51 47 41 48 42 41 37 35 34 30 27 27 27 30 31 30 30 32 33 32 34 34 35 35 39 43
65 71 70 66 64 68 76 75 77 73 76 69 69 71 68 62 49 50 48 49 47 44 43 41 38 37 35 34 31 28 29 33 33 34 33 34 35 37 38 39 39 41 46 46
61 63 64 61 59 67 67 67 67 67 69 72 70 64 57 52 48 48 46 50 46 47 47 43 40 38 37 36 33 29 31 34 36 36 36 37 38 41 41 43 45 45 48 50
55 55 57 54 63 64 66 67 67 70 56 59 63 67 56 50 52 47 46 49 46 47 47 44 39 39 37 36 33 32 31 34 35 37 39 40 42 42 46 46 48 51 52 53
48 51 56 63 64 66 70 66 63 61 58 60 55 50 49 58 52 47 43 45 50 52 50 41 40 39 38 36 36 34 33 36 38 39 41 42 43 46 47 49 54 54 53 54
53 59 63 63 66 67 68 69 36 20 63 53 61 56 59 58 51 41 43 46 49 50 47 47 44 41 39 38 38 36 37 38 40 42 45 43 46 48 47 51 52 52 54 56
61 62 64 65 69 70 71 69 85 71 69 63 59 57 63 57 50 44 48 48 52 54 51 47 43 43 42 41 40 38 40 42 43 46 48 50 48 45 50 52 50 52 58 60
59 60 63 65 65 67 64 66 66 57 68 59 57 65 65 56 50 48 52 52 53 52 51 47 45 45 45 44 41 42 42 46 48 50 49 54 50 48 50 51 55 61 64 66
54 55 57 59 61 63 67 74 68 60 61 61 64 65 63 54 52 52 50 53 55 55 51 47 46 48 48 45 45 44 46 50 51 50 53 52 51 51 54 60 63 67 69 72
58 60 60 60 62 62 64 63 62 59 63 67 66 69 64 58 55 54 51 52 56 52 53 52 50 51 49 50 50 47 51 53 53 56 56 54 54 56 63 67 71 73 75 78
52 53 55 57 61 63 68 63 63 63 68 70 68 68 65 63 57 54 52 50 55 54 57 56 54 53 52 52 51 53 56 55 57 59 61 60 62 67 69 72 75 78 81 85
47 50 54 57 59 55 60 61 62 64 68 70 69 68 68 62 60 58 57 56 58 57 56 58 57 56 54 54 58 58 61 60 60 63 65 68 70 72 74 77 78 82 87 89
44 47 50 54 57 56 59 56 57 62 65 70 71 71 70 64 63 61 59 57 57 58 58 59 56 56 58 59 62 63 65 65 66 68 69 71 74 77 79 81 84 88 90 90
45 47 50 55 55 56 59 57 58 60 65 69 72 72 66 63 61 60 62 59 57 56 57 58 58 57 61 65 66 67 69 69 70 71 73 76 78 80 83 86 88 90 91 92
39 44 48 51 53 55 56 59 58 60 62 63 66 67 64 60 59 58 59 58 57 56 57 59 57 61 67 70 71 72 73 73 74 76 78 80 82 85 87 89 90 92 95 99
34 36 39 42 43 45 48 49 49 49 52 55 57 56 55 56 57 58 59 57 55 55 56 57 58 66 70 73 74 74 75 76 78 80 81 84 85 87 89 91 93 97 100 101
35 37 37 37 38 39 40 43 44 47 48 49 51 53 56 58 60 59 58 57 56 56 55 56 65 67 69 71 73 75 78 80 81 83 85 86 88 90 93 96 100 99 99 103
33 34 36 37 39 41 43 42 43 43 46 47 49 51 52 55 57 58 57 57 56 56 57 64 68 70 72 75 77 80 81 83 85 86 87 90 92 96 98 98 99 102 105 108
31 31 32 35 43 42 40 40 41 42 42 46 51 54 55 55 56 57 59 60 58 60 66 68 71 74 76 78 80 82 84 86 88 90 92 95 98 98 99 102 104 107 111 116
36 35 34 35 39 43 44 43 42 42 43 43 45 49 54 57 61 62 63 64 66 67 69 72 74 76 79 82 84 86 88 90 93 95 97 96 98 101 104 107 112 113 114 116

GFSNW_250_spd_036.txt.gz
Wind_Speed
121 118 120 117 115 114 110 106 102 95 99 92 80 70 67 65 72 66 61 58 59 60 59 56 52 50 50 49 40 32 30 26 26 27 26 26 29 33 35 37 36 37 37 32
115 121 118 120 119 119 115 108 103 101 104 91 75 71 66 69 72 65 61 63 62 62 58 55 52 49 47 49 38 31 26 29 27 21 22 23 23 27 28 29 32 34 33 28
110 116 120 121 122 122 119 114 112 107 106 90 83 78 71 74 74 68 65 64 63 60 57 57 56 52 48 43 38 28 26 30 26 21 19 18 22 23 23 23 27 28 29 29
100 111 116 120 122 124 124 122 114 102 96 90 83 79 73 75 75 69 65 63 60 57 57 58 55 50 51 45 33 29 26 30 28 25 21 21 25 27 30 29 30 32 29 31
89 102 111 113 118 125 130 123 116 108 99 97 93 85 75 77 76 71 65 61 61 59 56 57 47 51 50 46 37 29 29 30 27 28 26 25 28 31 31 29 29 31 30 29
79 91 103 108 109 117 112 114 115 108 104 101 98 83 75 75 78 69 65 63 62 57 53 56 52 52 52 44 38 30 29 29 29 30 28 26 28 34 28 30 31 31 32 29
73 85 92 98 105 98 100 108 112 107 103 100 89 84 77 80 78 69 60 64 61 57 55 56 53 53 51 45 36 31 30 31 31 31 28 26 32 29 31 31 32 32 31 28
69 75 82 89 94 90 95 101 106 106 101 94 92 85 79 86 83 75 71 64 58 55 56 53 48 53 52 50 39 32 33 32 31 30 29 28 29 29 28 26 27 26 27 30
64 67 74 80 84 83 88 93 95 96 99 95 90 87 85 77 76 75 67 62 57 52 51 51 53 52 51 49 38 34 33 34 32 32 29 27 29 30 26 24 23 29 31 33
58 62 66 71 73 77 82 82 91 91 89 94 90 85 81 84 81 70 62 59 55 51 52 53 58 53 51 41 35 34 34 38 36 33 32 31 32 29 29 27 31 34 37 39
53 57 59 61 63 69 70 72 80 90 89 87 85 82 78 73 70 67 60 57 52 53 54 57 57 51 47 35 34 33 36 39 40 36 36 34 33 31 32 33 37 40 40 42
50 53 54 58 60 64 66 64 71 86 88 83 80 76 72 64 58 57 56 54 56 58 57 58 59 52 47 43 35 34 39 41 42 40 39 37 36 37 38 40 42 43 44 46
47 50 54 55 57 58 61 64 70 78 83 84 80 77 72 67 62 61 58 58 59 60 59 56 55 52 47 38 36 36 38 42 44 41 41 41 42 42 42 43 44 45 46 47
47 53 56 58 60 63 61 61 64 69 73 80 75 72 71 65 64 61 58 60 61 55 57 51 46 42 41 41 39 38 41 42 46 43 44 44 46 47 46 46 47 48 48 50
51 56 61 62 62 62 64 62 59 59 61 63 65 63 62 61 60 58 56 53 51 46 42 44 45 44 42 41 42 38 43 45 48 46 47 47 49 51 52 50 50 50 51 53
55 56 58 63 64 62 58 55 51 52 51 51 53 49 49 48 42 27 25 42 40 45 43 43 48 46 41 42 41 40 43 47 49 52 51 51 52 54 53 53 52 53 54 56
58 62 64 65 64 59 53 49 49 49 48 48 45 42 40 41 47 50 51 41 34 25 33 46 49 49 48 42 37 42 44 45 50 54 56 57 56 56 58 60 61 62 65 66
67 71 72 72 67 64 58 54 51 50 48 45 44 57 43 38 42 45 41 45 27 27 48 52 52 58 57 50 42 42 45 49 50 55 58 59 60 61 62 64 66 68 70 71
69 71 75 76 71 65 61 54 50 39 44 40 38 34 32 39 49 55 56 44 55 62 66 60 56 60 60 53 54 46 49 51 52 55 59 62 63 64 66 68 70 71 73 75
74 76 79 80 73 65 64 54 56 51 47 42 44 46 53 63 65 62 63 58 61 67 71 70 66 58 57 57 57 55 54 55 56 59 59 63 66 68 70 72 73 75 77 79
73 78 83 84 83 69 80 75 69 69 67 64 64 66 69 72 71 68 66 66 61 61 67 74 70 62 60 60 62 61 61 62 63 64 66 66 68 70 73 76 77 77 79 81
75 75 74 70 76 81 82 81 82 75 75 75 70 65 66 54 47 51 58 61 63 60 61 71 74 66 65 65 67 67 70 71 70 71 72 70 72 75 77 79 80 81 82 84
77 84 79 77 72 66 73 76 71 71 74 73 66 58 51 46 48 55 55 55 57 60 60 70 75 72 69 71 73 71 71 73 75 75 72 76 76 75 76 79 80 82 83 85
57 58 63 70 71 69 41 53 54 53 49 51 56 55 50 51 57 57 58 56 57 58 59 69 75 75 76 77 77 77 77 78 79 78 78 76 75 75 77 80 82 84 86 88
43 44 32 52 48 56 38 44 46 53 54 54 62 60 58 57 54 54 55 58 59 63 65 70 77 81 82 81 82 82 82 82 84 83 82 76 76 79 81 82 84 86 88 90
51 49 47 60 59 60 48 42 42 43 44 52 56 66 69 63 62 58 57 58 57 63 68 70 72 76 79 82 83 83 83 82 81 76 76 78 81 82 84 85 87 90 93 95
40 43 44 48 53 54 55 49 46 45 48 49 55 58 62 59 59 57 55 54 57 61 63 69 74 75 74 75 77 77 77 77 78 80 81 83 85 86 88 90 92 93 95 99

GFSNW_250_spd_039.txt.gz
Wind_Speed
92 96 101 100 104 109 111 112 111 104 103 98 81 71 66 66 69 64 60 58 56 59 55 51 48 47 50 49 52 50 49 42 34 26 22 24 26 28 24 25 28 30 29 31
88 92 99 103 104 110 111 111 110 108 110 100 79 76 73 71 73 68 64 60 56 54 52 49 49 49 51 50 52 50 49 44 34 26 20 24 25 27 24 26 30 32 30 31
83 89 95 105 107 108 112 114 117 113 117 97 83 80 77 72 73 71 66 61 57 53 54 50 51 52 52 50 51 51 45 42 37 30 23 18 23 25 25 23 24 23 25 21
78 85 92 100 109 109 111 116 114 109 110 95 85 82 77 74 77 72 67 62 54 52 51 52 54 53 51 50 53 49 45 42 38 32 27 21 23 24 22 23 24 23 24 21
74 81 87 94 103 111 114 108 109 111 103 100 94 85 77 75 76 71 65 59 58 58 56 55 54 53 55 50 50 50 52 46 40 31 31 26 24 27 26 25 21 21 25 26
68 74 82 92 98 106 103 98 108 111 107 103 100 87 80 76 79 73 67 61 56 58 55 56 54 53 52 48 48 49 52 47 41 33 29 25 24 33 26 22 23 25 25 29
66 71 77 87 95 92 88 96 104 107 103 103 94 87 85 80 78 76 71 65 62 61 62 57 53 51 51 49 50 49 50 42 41 36 29 22 32 31 27 28 27 27 30 32
61 65 71 81 88 87 85 90 97 99 102 101 99 90 89 86 85 81 74 67 65 68 65 59 52 49 51 44 46 46 46 42 38 33 31 26 31 32 31 28 27 28 30 31
58 62 67 78 81 83 80 84 90 91 98 100 101 91 85 83 82 83 75 71 68 67 62 57 52 47 42 46 44 45 46 45 37 32 31 29 36 31 33 29 27 31 32 30
56 60 66 73 75 75 77 80 82 89 89 97 101 95 86 86 85 80 76 69 65 63 57 57 53 51 45 46 45 47 46 44 38 32 32 33 38 32 32 32 36 33 33 33
54 56 62 67 69 68 68 76 80 78 85 94 97 94 92 88 85 80 76 73 69 63 61 60 60 52 51 48 47 47 44 43 40 37 33 33 38 34 35 40 39 38 36 35
49 52 56 60 59 59 64 71 70 75 88 91 92 90 86 85 89 85 78 70 67 60 58 59 56 52 50 49 48 49 46 43 40 39 33 35 41 41 39 41 42 43 42 40
43 45 48 50 53 55 61 68 75 81 86 90 91 89 87 85 84 78 69 67 67 60 57 59 57 51 46 48 47 49 44 40 37 37 37 39 43 44 43 43 44 46 47 47
43 42 43 47 51 57 62 67 72 77 83 86 86 86 82 80 79 75 66 64 59 58 57 56 53 48 50 51 51 48 43 39 36 37 40 41 43 45 46 47 48 49 51 52
39 41 45 51 54 55 58 66 71 72 72 78 83 81 80 78 71 64 63 59 59 56 55 52 49 49 50 51 50 41 38 38 40 40 39 41 45 47 49 50 51 53 54 56
40 44 49 50 51 56 61 60 61 62 67 73 79 80 78 72 69 66 63 61 60 56 55 54 51 50 52 49 45 36 40 44 45 43 42 41 44 48 51 52 53 55 56 58
45 48 50 54 58 59 56 55 59 62 62 66 71 74 75 73 68 63 61 61 57 53 51 54 52 48 49 44 38 41 47 49 47 42 41 44 46 46 49 54 56 59 62 63
49 53 56 62 64 66 68 67 62 59 61 61 65 70 70 70 66 63 60 57 54 49 37 38 43 46 50 40 38 47 52 53 52 50 46 45 47 49 52 53 56 60 63 65
54 56 60 63 67 66 63 62 63 61 59 56 51 50 53 55 57 56 48 42 41 36 37 34 38 35 35 43 50 45 53 57 58 57 61 62 60 59 57 56 58 60 63 65
59 62 65 64 61 56 54 51 49 47 47 49 47 46 43 41 41 37 34 30 31 34 44 47 38 39 49 54 62 63 62 62 63 63 64 66 68 70 68 67 67 67 68 69
62 67 67 63 61 56 52 50 49 46 43 43 42 41 48 53 46 51 50 41 39 37 49 55 51 53 54 55 55 58 58 61 67 70 71 72 73 71 71 74 76 77 76 77
63 65 60 58 58 59 58 57 55 55 53 54 58 62 60 58 47 53 58 64 72 69 62 58 63 64 70 73 71 72 72 71 72 74 77 79 82 81 80 81 81 82 83 83
67 68 66 62 60 58 57 53 52 51 58 60 68 70 65 66 60 67 73 81 77 68 63 58 64 67 68 73 78 81 81 83 87 85 84 86 87 85 85 84 83 85 86 87
72 67 66 61 54 51 50 50 51 53 56 60 56 77 62 68 66 69 74 70 68 64 61 63 68 71 74 77 82 85 83 82 85 88 91 93 92 91 88 87 90 91 94 95
66 65 66 61 59 59 60 61 61 60 54 51 53 60 64 68 69 61 62 63 60 64 69 70 74 76 72 70 72 76 79 82 84 83 86 90 93 94 93 94 97 98 98 97
59 61 60 63 62 64 60 64 62 67 64 64 61 62 57 59 64 67 62 58 60 62 66 68 66 67 68 72 72 71 74 78 80 82 86 91 94 96 98 100 98 96 94 92
45 56 53 55 54 69 62 65 61 64 67 50 57 49 66 50 49 57 67 67 65 63 63 66 70 69 66 65 65 67 68 73 78 82 85 86 87 88 90 91 90 89 91 92

GFSNW_250_spd_042.txt.gz
Wind_Speed
84 86 93 95 98 100 101 96 89 94 104 100 90 78 72 75 74 70 65 59 59 58 55 52 48 45 44 41 42 42 43 43 46 47 45 31 23 22 24 25 30 28 29 36
80 82 86 93 95 98 99 96 89 96 106 99 86 84 77 75 76 74 68 61 58 59 55 50 47 45 44 41 44 43 43 45 47 47 45 41 23 22 21 25 30 32 33 37
78 78 82 88 93 94 95 99 97 99 96 88 89 84 77 73 75 73 67 62 58 57 56 50 48 47 47 45 46 42 45 46 47 46 45 45 27 24 24 23 27 30 29 30
75 75 79 84 89 91 94 99 95 89 81 78 82 84 80 76 76 76 69 65 59 57 55 52 51 50 48 47 45 45 46 46 48 51 49 46 34 24 21 24 24 23 30 26
70 69 73 81 86 91 94 89 91 87 81 85 88 86 77 75 76 73 68 64 61 58 56 55 52 51 50 48 47 46 46 46 49 49 47 45 34 26 24 25 28 28 29 32
68 67 71 76 81 86 84 80 87 87 85 88 88 84 80 76 79 72 69 66 65 60 59 59 58 54 52 50 46 47 48 46 47 47 45 43 33 31 25 24 25 26 27 31
63 60 68 72 74 77 80 77 82 83 84 88 83 86 85 79 77 77 73 69 64 61 65 60 56 53 51 47 46 46 48 48 47 50 47 39 40 31 28 25 24 24 25 31
57 57 63 68 72 73 78 76 80 82 83 87 91 89 86 82 82 81 76 71 68 66 62 64 59 53 51 49 46 47 46 45 46 47 46 39 36 37 30 28 25 27 29 31
55 54 59 63 65 73 74 72 76 83 86 88 89 91 89 84 79 82 76 76 76 72 70 65 56 51 45 46 47 47 43 45 48 42 42 41 39 38 32 28 27 35 31 29
49 49 53 58 64 68 69 71 74 78 82 92 89 85 87 85 82 81 77 74 74 69 62 58 51 49 48 47 45 46 48 48 45 47 46 42 41 40 35 31 39 33 33 32
46 46 51 56 60 62 67 69 72 74 77 87 90 87 87 86 84 80 80 83 75 68 64 59 55 54 49 47 46 49 48 49 48 50 45 41 43 38 38 37 37 36 33 36
43 45 49 53 53 58 60 62 69 73 78 86 90 87 87 83 85 86 87 78 73 68 65 59 55 56 54 50 49 49 49 49 51 49 45 44 43 41 38 40 39 38 37 37
42 43 46 47 48 52 56 64 69 70 72 79 89 89 89 84 83 86 84 79 73 67 68 67 64 62 55 51 50 53 56 53 51 46 44 46 44 42 39 39 39 38 40 40
37 39 38 38 41 48 53 60 65 67 72 76 86 89 89 86 86 81 80 79 72 68 67 64 62 60 59 56 55 55 55 53 46 42 42 49 44 41 40 40 41 40 41 43
33 34 34 36 40 45 51 57 63 70 73 74 78 84 87 87 82 77 77 77 74 70 67 65 59 56 57 56 57 54 52 47 45 42 49 45 43 40 42 42 41 41 43 46
35 36 38 40 44 48 50 56 62 69 71 76 79 83 86 85 82 77 75 73 73 70 67 63 62 61 59 55 53 53 50 46 41 45 49 47 43 42 46 43 42 43 43 44
37 40 42 43 46 49 51 55 60 69 71 72 72 77 80 82 82 79 73 68 64 65 63 63 62 60 57 54 49 51 46 47 46 48 48 48 49 50 50 48 47 45 46 48
34 38 42 46 48 50 56 60 61 61 65 68 69 75 80 79 75 72 68 66 63 60 60 57 56 55 57 56 51 48 48 50 49 52 48 49 52 54 57 57 56 57 60 60
34 37 40 45 51 53 55 59 60 60 59 61 66 72 75 74 72 65 77 71 67 63 59 59 59 58 56 50 49 49 52 54 52 54 57 57 55 56 58 60 60 65 67 68
38 41 44 47 48 52 55 58 59 58 57 59 63 68 71 72 76 68 64 69 67 61 58 59 60 55 52 50 46 47 51 52 55 61 66 66 65 61 58 64 67 69 77 82
43 44 45 46 51 53 55 57 58 57 58 58 59 59 64 70 72 71 68 65 59 56 55 56 55 53 52 48 44 47 49 52 57 59 61 66 71 70 70 68 71 74 77 82
40 43 45 48 51 52 52 53 56 55 52 51 50 51 54 57 59 60 61 60 57 60 49 41 44 44 42 42 51 60 62 66 65 63 65 66 68 73 77 77 77 80 85 86
45 47 49 50 49 47 48 45 43 42 40 39 42 45 47 48 45 43 47 44 41 43 44 48 45 44 46 60 67 66 68 70 70 73 76 77 78 79 81 84 86 91 95 99
53 51 49 46 47 48 48 45 44 44 41 37 38 38 43 46 49 53 50 40 41 47 56 55 53 54 63 70 75 74 78 79 76 79 78 79 81 84 84 87 93 98 101 101
53 51 53 53 52 50 49 51 52 51 52 55 55 54 54 56 59 61 56 53 55 53 59 65 62 64 70 74 77 82 84 79 79 78 80 84 86 91 95 96 93 94 93 90
50 48 49 48 49 50 54 54 53 52 53 54 54 54 58 63 65 63 63 66 66 62 64 72 74 79 80 80 81 83 87 86 86 86 84 85 89 90 91 94 91 86 86 86
43 43 45 53 50 52 50 51 53 52 52 55 55 60 66 66 71 74 71 74 77 73 73 76 80 82 89 92 89 88 89 92 93 92 91 87 83 86 93 90 87 86 86 88

GFSNW_250_spd_045.txt.gz
Wind_Speed
86 85 88 91 95 96 99 99 97 92 107 111 92 77 72 76 76 77 73 67 65 59 57 53 50 51 50 46 43 40 37 33 34 38 36 40 38 39 34 24 26 28 30 36
82 82 83 86 88 95 97 92 92 99 109 103 84 76 77 81 81 81 74 72 67 62 59 57 52 51 50 47 44 43 38 34 35 34 38 40 37 37 33 26 24 27 35 40
77 79 79 84 81 88 93 93 92 102 104 81 82 80 78 79 83 83 76 73 70 64 59 57 54 52 50 47 42 42 38 37 36 33 39 40 37 36 32 27 24 23 27 39
70 74 76 81 79 82 88 89 90 91 83 76 74 74 78 81 83 82 79 74 67 65 60 60 58 54 51 47 46 43 39 38 35 36 39 38 38 38 38 31 30 25 29 25
64 71 75 78 77 78 79 80 82 85 75 75 80 79 77 78 83 83 77 73 70 67 62 61 60 56 52 50 48 44 40 39 37 37 40 39 38 39 33 28 27 31 28 27
61 66 71 73 71 69 64 71 78 77 73 78 81 75 78 76 80 80 77 73 76 69 63 64 63 58 54 52 48 45 41 37 39 38 40 37 40 40 35 29 27 27 27 33
57 62 65 64 62 59 63 72 76 71 74 78 75 80 80 79 77 83 79 73 75 73 70 65 63 59 57 53 50 47 41 39 38 41 40 35 42 42 37 29 26 28 31 32
52 55 56 54 56 57 59 70 69 70 76 81 80 84 82 82 82 87 82 77 77 81 72 65 62 59 57 52 50 46 40 40 43 41 39 37 40 44 38 32 31 30 32 31
47 48 49 51 53 56 66 66 62 70 75 79 85 88 86 83 81 87 83 80 77 77 69 63 63 60 56 53 49 46 43 44 42 39 37 35 42 42 42 35 35 36 29 33
42 43 46 51 56 62 62 59 61 68 74 81 87 89 86 86 83 83 84 80 80 78 73 69 64 60 58 53 49 45 46 43 40 37 35 37 41 47 43 40 36 36 33 34
41 42 45 48 55 54 51 53 59 67 74 79 86 93 90 87 84 82 81 85 82 78 73 68 63 63 60 57 49 47 44 40 41 40 40 38 47 44 46 42 43 37 35 36
40 42 44 46 47 47 49 54 58 69 77 82 88 91 90 88 85 86 85 80 81 76 76 69 64 58 56 51 45 42 41 43 44 47 43 43 45 48 46 46 43 39 38 37
36 38 40 40 41 44 47 52 57 66 78 80 86 93 94 91 87 85 82 81 76 71 68 67 65 59 53 46 44 47 46 46 48 48 47 47 46 46 50 44 41 41 38 38
31 33 34 37 41 41 46 52 58 68 78 80 85 92 97 94 87 82 82 82 76 72 68 64 59 54 54 54 53 49 50 51 52 51 47 48 49 51 46 42 42 42 42 40
32 34 35 39 41 43 47 51 58 66 74 79 83 89 95 94 89 85 84 82 78 73 67 60 58 57 55 54 54 52 52 53 54 51 54 48 50 52 48 42 46 47 45 43
32 34 36 37 38 41 45 50 57 65 73 78 79 85 94 92 88 84 83 83 82 76 71 65 59 56 56 56 51 50 50 51 52 51 52 53 50 47 43 46 48 52 52 47
31 33 34 35 37 41 46 53 59 64 69 71 72 79 90 92 88 85 83 80 76 74 71 65 61 61 60 55 51 52 53 52 53 51 53 55 56 53 50 47 49 54 53 53
32 33 34 34 37 42 46 48 53 59 65 69 72 72 84 90 88 86 83 77 75 72 67 64 60 62 61 58 55 56 58 58 55 53 54 56 55 54 51 52 52 56 52 50
34 36 38 40 42 45 47 49 53 56 62 68 68 74 83 88 87 83 78 75 70 67 64 62 62 62 61 58 58 59 60 58 58 59 59 58 55 55 57 59 54 55 55 58
29 30 31 35 38 42 48 50 53 56 62 67 73 74 81 83 85 80 77 73 70 65 62 64 61 60 59 58 57 59 60 59 59 60 59 58 56 59 62 64 62 61 63 64
29 30 31 32 35 40 40 45 48 53 59 62 64 65 69 77 79 76 75 72 73 69 66 64 60 59 58 55 56 59 61 61 61 60 57 55 59 60 60 62 65 66 67 68
29 27 25 24 25 29 33 41 46 49 50 55 62 61 64 68 75 77 76 79 82 77 73 70 65 61 59 58 61 62 60 60 62 63 56 60 60 60 61 65 67 68 73 72
35 36 37 37 34 30 27 30 44 54 56 55 54 55 58 64 72 75 76 76 79 66 64 68 64 65 64 63 61 61 60 62 65 67 63 63 67 69 71 73 74 77 79 79
34 37 39 43 47 48 50 49 49 51 49 46 47 50 55 62 66 70 74 72 66 64 64 65 59 59 66 66 64 67 63 65 68 65 59 65 64 64 71 73 77 82 84 89
41 39 39 39 37 37 36 35 36 35 37 41 46 49 53 56 58 62 65 66 65 64 65 66 65 64 65 68 69 67 60 62 64 64 67 71 73 77 81 85 87 88 92 97
40 40 40 40 39 39 40 43 43 40 37 37 39 41 43 47 51 55 58 60 61 61 62 68 70 70 66 61 63 64 66 67 65 69 72 75 82 87 91 93 96 99 101 103
36 38 39 38 38 39 38 39 41 42 42 42 43 43 45 45 46 48 49 50 53 62 63 67 66 67 69 71 70 71 70 70 72 76 79 83 89 92 95 98 102 104 105 104

GFSNW_250_spd_048.txt.gz
Wind_Speed
83 83 85 86 90 96 99 101 97 103 111 118 114 104 101 99 91 84 80 78 75 70 74 65 58 48 54 51 47 43 44 41 39 37 31 28 24 30 31 28 32 26 25 34
81 83 83 85 85 89 92 90 94 101 111 111 100 88 89 93 91 82 83 81 79 74 74 68 63 64 63 53 51 45 45 42 40 39 34 29 25 27 31 28 28 29 27 32
74 78 82 83 84 85 87 84 89 95 98 94 91 86 83 82 87 82 83 83 81 75 76 70 66 68 60 56 52 48 46 43 41 40 35 29 27 28 31 28 29 30 31 32
69 71 75 78 81 80 80 78 77 77 83 87 81 85 79 77 82 82 82 82 78 77 78 73 67 66 59 58 55 52 47 44 43 42 36 31 29 32 31 30 27 27 35 31
64 65 67 72 73 75 70 68 65 72 72 82 78 81 79 78 82 85 79 80 82 82 82 78 73 69 65 62 56 54 46 45 43 39 38 35 31 35 32 32 27 26 30 35
57 60 63 67 68 70 56 55 63 69 66 74 67 74 73 77 82 85 82 85 88 86 83 81 74 70 66 61 58 54 49 46 44 43 42 33 35 36 35 32 29 30 29 32
52 55 59 61 62 56 49 57 66 67 60 62 65 74 76 80 80 86 86 84 86 85 87 81 74 73 66 63 59 55 51 49 48 43 41 32 41 35 38 31 31 31 29 30
47 49 51 52 54 51 52 56 59 61 62 67 68 76 77 85 90 92 85 85 86 89 90 83 77 70 65 64 63 56 52 51 48 44 40 37 40 41 37 33 33 30 30 30
39 40 44 47 49 49 51 56 61 62 64 65 65 75 78 84 88 95 93 89 87 87 86 84 75 68 64 66 61 55 53 52 49 43 38 36 48 41 38 35 38 30 33 32
35 38 42 46 47 49 56 59 61 57 60 59 62 71 80 89 93 95 95 92 88 86 83 83 75 68 67 66 60 55 53 52 46 44 40 38 45 39 43 35 38 36 36 37
35 39 43 46 50 52 55 57 56 56 55 57 64 75 83 93 99 101 94 96 92 83 81 77 72 66 64 63 59 55 55 53 48 47 41 37 47 44 40 40 38 38 40 41
35 39 43 46 48 51 53 51 49 51 56 60 66 75 82 90 97 101 96 85 88 79 76 75 74 65 66 64 60 59 55 50 48 46 43 46 44 44 42 41 39 41 44 44
38 41 43 46 48 49 48 49 51 53 58 62 66 77 82 92 96 95 95 93 86 78 76 78 76 68 69 64 58 56 54 53 50 49 44 47 47 45 44 42 40 43 47 47
37 38 39 40 43 45 47 49 47 53 58 63 69 76 80 89 94 91 92 90 85 79 77 78 73 65 67 65 63 59 55 52 49 48 47 50 50 47 45 42 41 48 48 50
34 36 36 37 40 42 43 44 49 53 55 59 64 74 78 85 91 94 93 90 85 79 74 72 72 68 65 65 63 57 57 53 49 47 53 54 51 49 48 45 47 47 49 51
34 36 38 40 40 41 42 46 50 52 55 58 66 74 81 88 94 95 92 87 81 76 70 69 71 67 65 64 59 58 55 51 53 52 55 55 53 54 52 50 50 49 49 53
35 37 37 37 38 41 43 47 48 51 53 59 69 77 80 80 88 90 88 83 76 71 71 67 67 67 63 57 50 55 54 54 54 55 58 59 59 58 57 53 53 53 54 55
34 34 33 34 36 37 40 44 46 49 53 61 66 70 73 80 86 88 87 81 76 72 69 68 65 63 62 55 54 58 58 59 58 61 63 64 60 59 58 60 62 59 57 56
33 33 33 34 33 35 38 42 44 45 49 55 60 64 68 79 86 89 86 81 75 71 65 66 67 62 55 55 62 63 64 64 64 65 64 64 61 62 61 65 64 65 62 61
31 31 30 29 30 34 36 38 39 41 46 52 58 68 74 81 86 88 85 79 73 71 68 68 64 62 63 61 62 66 67 67 67 66 64 64 65 65 64 67 65 63 63 65
24 25 25 26 27 30 33 34 36 38 44 51 57 61 69 81 86 85 84 80 73 69 65 64 64 65 64 65 66 67 69 68 67 69 69 69 68 66 67 64 62 66 67 69
24 24 24 25 25 26 29 34 38 43 49 53 57 62 70 74 82 82 82 79 72 69 68 69 66 67 68 69 69 69 70 69 71 73 72 69 67 67 66 68 70 70 75 77
30 27 25 23 24 23 23 26 33 40 48 55 60 63 61 64 71 79 79 77 74 72 72 71 68 68 69 68 69 69 69 70 70 71 71 69 69 69 67 69 73 77 78 79
35 37 37 33 30 26 22 23 27 33 42 50 52 53 56 61 69 75 80 78 76 77 73 72 72 70 69 69 69 68 69 70 72 73 73 72 72 73 74 77 79 82 80 79
30 31 35 36 35 33 32 30 31 32 38 46 46 46 50 57 65 72 76 78 78 78 77 76 75 74 71 71 71 71 72 73 75 76 78 77 77 81 81 81 81 81 82 78
29 31 32 33 34 34 33 33 35 37 40 43 44 45 48 53 59 66 74 77 78 79 78 79 79 78 75 74 73 77 76 75 79 81 80 80 84 85 85 85 84 83 82 82
32 34 34 33 33 34 34 35 37 38 38 39 41 42 44 47 52 59 63 67 70 74 78 80 79 76 74 72 71 70 73 76 80 84 87 89 89 88 88 85 87 86 83 84

GFSNW_250_spd_051.txt.gz
Wind_Speed
81 85 87 90 93 96 98 98 93 101 109 114 113 110 100 98 102 104 100 96 90 87 84 82 74 71 70 64 61 53 56 56 40 39 37 40 43 38 34 31 31 28 29 31
79 80 82 84 87 89 91 89 92 97 105 102 98 98 97 95 104 106 106 100 98 95 91 88 81 78 76 65 64 57 53 53 48 42 42 41 43 38 36 33 29 30 27 31
76 78 80 82 84 85 85 81 86 90 91 88 90 87 89 91 92 99 105 106 107 104 97 92 88 84 76 69 69 64 53 50 51 46 46 40 43 41 40 36 29 31 29 32
72 75 75 80 83 86 87 81 74 78 76 76 75 78 83 85 88 92 98 107 108 105 102 100 95 91 78 76 72 67 61 55 53 52 48 42 42 42 42 39 33 31 33 32
69 71 74 76 81 85 87 77 64 72 67 72 76 77 78 81 84 90 91 93 101 106 108 103 95 83 82 80 73 71 66 56 54 52 50 43 41 43 44 40 35 32 35 34
65 66 68 72 76 79 77 63 58 66 64 64 71 68 68 75 81 81 87 89 96 102 101 103 95 83 83 80 74 70 66 67 60 54 52 45 37 47 45 41 40 33 37 35
56 58 60 64 67 68 66 61 64 61 62 60 61 66 68 71 74 78 81 90 91 96 101 97 92 83 83 79 76 68 65 60 56 58 55 41 46 46 46 44 41 37 38 32
49 52 55 57 59 59 60 63 56 57 57 58 67 64 66 70 71 79 86 88 84 97 95 94 88 88 85 80 78 71 67 65 59 55 53 49 47 48 49 46 41 41 38 31
43 46 46 48 52 52 57 55 55 56 56 56 66 61 65 67 68 77 80 88 94 86 89 91 87 84 81 84 78 74 70 67 65 58 54 47 51 54 50 49 41 46 34 35
37 39 43 44 46 48 49 50 54 56 55 62 63 63 67 71 69 71 78 88 89 86 91 91 84 82 83 83 78 77 71 67 60 55 52 48 53 56 52 46 53 42 35 36
32 35 37 40 42 42 44 50 54 57 58 61 60 64 65 66 67 72 74 87 90 92 92 87 85 79 76 80 77 77 68 64 58 58 56 47 55 58 51 51 48 45 43 38
28 32 35 37 38 44 48 50 55 58 60 60 60 63 65 64 66 74 81 80 91 89 88 85 84 79 74 74 79 76 67 62 60 57 55 55 58 55 54 52 49 45 43 40
27 31 34 36 42 45 48 51 52 53 54 56 57 59 61 63 68 76 75 85 93 91 89 90 88 82 75 72 74 73 66 64 58 55 53 55 54 55 56 54 50 48 42 42
30 35 39 42 42 45 48 49 53 53 52 53 56 58 57 60 66 70 71 80 89 90 88 87 85 80 78 71 71 66 64 63 59 55 56 56 55 59 61 55 52 48 47 46
30 33 36 40 44 46 47 49 51 53 52 52 55 55 55 59 63 69 75 78 84 85 83 82 77 74 74 70 69 59 60 59 57 54 59 61 58 63 61 60 56 52 52 50
31 34 37 40 42 43 45 43 44 43 47 52 51 51 53 58 63 72 72 76 83 85 84 81 78 75 72 66 60 61 62 61 62 61 63 59 59 62 62 60 56 54 54 54
33 35 36 37 38 38 38 42 46 48 49 48 48 48 52 56 59 64 68 74 78 81 79 79 77 72 66 61 59 62 64 64 64 63 62 62 59 60 65 63 61 58 58 58
32 33 34 36 38 39 38 38 42 43 42 41 40 46 50 53 58 65 72 74 78 78 76 77 75 69 64 59 63 65 62 62 65 65 66 64 64 63 63 65 65 64 63 64
33 33 33 33 33 34 36 36 36 37 37 39 43 47 53 53 62 68 70 72 73 75 76 75 73 67 61 59 63 67 65 64 65 66 66 66 65 67 67 68 69 69 67 67
29 28 27 27 27 28 29 29 31 34 36 38 42 46 48 59 64 68 71 69 72 73 73 74 71 68 60 59 66 69 68 67 68 70 70 68 67 66 69 72 71 69 69 71
26 25 25 25 25 24 24 25 27 29 32 34 40 43 50 56 63 60 56 65 71 73 73 71 68 64 59 59 65 70 71 71 71 71 70 71 73 72 72 73 72 72 73 77
24 23 22 21 21 21 22 22 24 26 28 33 37 37 45 49 49 52 60 65 69 73 73 71 66 62 62 64 67 70 71 71 72 72 74 76 75 75 76 76 76 75 78 81
24 23 22 20 21 21 20 20 21 25 28 32 37 40 49 55 61 61 64 65 69 70 72 72 68 65 65 69 69 69 71 71 72 75 77 77 78 79 79 80 78 79 80 82
25 24 23 21 19 18 18 20 20 24 28 31 37 44 49 53 48 56 64 65 68 72 71 69 67 64 64 68 70 73 74 75 77 78 79 79 81 82 81 82 83 84 85 85
27 27 28 26 24 23 22 23 22 23 26 30 36 41 45 51 55 56 63 67 68 69 70 69 67 65 65 67 70 73 76 77 78 79 81 82 83 84 85 86 86 87 87 87
29 30 29 28 28 28 27 24 24 25 26 28 31 36 44 48 50 56 63 67 69 70 71 71 71 70 71 73 73 73 73 75 78 80 81 83 83 83 83 85 87 89 92 94
26 28 29 28 28 27 28 26 24 25 27 29 32 36 36 35 44 52 60 65 67 70 73 74 74 74 75 74 75 77 79 79 80 81 84 83 85 86 87 90 91 94 96 99

GFSNW_250_spd_054.txt.gz
Wind_Speed
81 82 84 86 89 92 94 95 95 100 107 109 110 109 107 108 109 108 116 111 106 101 99 100 94 73 68 68 67 67 63 60 63 52 45 43 40 34 35 37 38 39 35 33
76 77 79 82 85 88 90 88 89 96 100 99 96 95 97 99 103 103 106 107 102 98 93 94 91 83 73 74 66 70 69 67 62 58 49 42 50 38 38 39 39 41 37 36
70 72 74 76 80 82 86 85 86 87 88 86 85 85 85 89 94 92 101 109 105 101 97 90 83 78 75 78 73 74 70 69 65 61 53 51 47 49 43 43 39 45 39 36
68 70 71 73 74 76 82 79 73 70 74 73 72 78 80 84 84 87 90 99 99 102 106 97 94 90 87 80 80 84 80 71 68 58 57 54 46 50 46 43 44 44 42 37
69 72 73 74 75 79 81 77 68 63 62 65 70 71 70 74 78 83 80 93 89 97 101 105 102 104 99 90 84 88 83 72 69 62 63 57 47 43 47 44 46 43 45 39
65 67 71 72 75 79 82 80 69 63 59 64 70 60 58 63 71 76 77 86 91 96 95 108 114 105 101 99 95 90 88 79 73 65 65 68 51 46 45 45 45 45 42 40
64 67 70 73 75 74 81 75 70 66 60 65 64 63 62 66 70 71 76 85 86 78 99 105 112 107 106 102 101 95 91 86 75 69 72 66 53 55 51 49 48 48 44 44
66 65 65 66 68 72 75 68 69 70 65 61 63 65 65 69 70 71 73 77 68 84 97 100 99 101 106 108 105 100 95 92 79 76 75 63 61 63 58 53 53 49 47 47
56 57 58 58 61 65 64 65 72 67 61 56 61 66 66 68 69 68 67 69 73 83 91 92 99 99 104 109 109 104 100 93 87 79 74 61 57 63 63 56 51 53 51 49
46 47 49 51 54 55 54 60 63 62 57 59 60 59 64 66 67 67 69 70 76 81 78 80 89 93 101 101 97 100 97 94 88 81 70 60 55 58 62 54 54 59 52 49
37 39 41 42 45 46 50 54 54 52 53 56 54 57 61 60 68 67 64 73 67 68 72 74 83 90 90 87 86 89 92 86 77 73 71 62 62 65 63 57 61 56 54 51
31 34 37 38 40 43 44 44 45 50 54 51 55 56 59 65 66 67 69 57 61 63 67 74 79 88 85 80 77 81 81 74 69 72 69 65 65 68 66 65 60 58 57 55
25 28 32 35 38 39 39 40 43 47 50 55 56 58 59 64 64 60 55 50 53 57 58 67 75 82 81 77 75 76 75 74 69 70 67 63 64 64 67 67 61 61 60 56
22 25 27 31 34 37 39 41 43 46 51 55 57 58 60 54 55 52 50 51 53 56 70 73 71 72 73 73 74 75 73 69 66 66 68 67 64 60 73 68 63 61 60 57
23 26 29 34 37 39 41 43 46 48 49 52 51 50 48 51 50 50 50 50 55 57 51 56 59 66 73 73 73 67 67 65 63 56 65 71 68 67 67 64 62 64 63 58
22 27 30 31 32 33 34 36 39 40 41 44 44 46 48 46 47 47 45 50 53 56 71 70 64 72 71 68 64 66 63 61 61 58 65 66 60 66 67 64 65 67 63 63
20 23 26 28 30 33 35 36 38 41 43 44 45 46 46 45 44 43 44 48 53 60 54 54 65 71 71 69 67 67 68 65 62 60 62 62 65 66 67 67 67 66 68 68
22 24 27 29 31 33 33 35 36 36 35 36 38 38 39 39 42 44 44 48 53 55 56 61 66 71 69 68 71 74 70 62 59 56 56 61 65 67 69 68 66 67 68 68
27 27 29 29 29 31 32 33 34 35 35 36 37 37 37 38 40 40 42 47 52 61 66 59 68 73 71 70 71 68 66 65 62 59 60 63 64 65 68 70 69 69 69 72
27 26 28 29 29 29 29 29 29 29 30 31 33 31 31 33 37 40 44 45 53 58 52 55 65 66 67 67 68 65 64 62 59 61 64 66 67 69 71 72 70 70 72 74
26 27 27 26 26 25 23 24 25 25 27 26 27 30 32 35 37 40 44 44 48 49 51 56 61 63 64 64 62 62 62 61 62 67 67 69 68 69 69 70 71 72 73 75
21 21 21 21 21 21 20 20 22 24 26 26 29 31 31 32 34 37 42 45 46 50 52 55 57 59 63 64 64 64 63 63 65 69 71 70 69 70 71 72 73 74 76 77
19 19 18 16 16 18 20 21 20 20 22 25 27 28 30 33 36 39 40 43 45 48 51 53 56 60 63 64 66 65 64 65 67 72 74 75 75 76 76 78 80 80 82 82
19 19 19 18 19 18 19 22 22 21 19 22 24 24 26 29 30 39 41 38 38 43 46 50 57 62 64 65 66 66 66 65 69 73 77 79 80 80 81 81 83 84 85 86
21 21 20 19 19 20 20 21 21 21 21 22 23 27 29 29 30 32 33 26 29 43 51 54 59 61 64 66 66 69 69 68 69 71 72 75 78 80 82 85 86 87 87 90
21 22 21 20 19 19 19 22 20 18 21 23 21 21 25 28 32 33 35 37 38 42 48 55 60 64 66 67 68 69 70 71 72 74 77 79 81 83 84 85 87 89 91 93
24 23 23 22 22 21 20 20 20 21 20 19 21 25 26 27 28 30 31 32 38 44 50 55 61 64 65 67 69 72 74 76 77 78 79 81 83 85 88 89 91 93 94 96

GFSNW_250_spd_057.txt.gz
Wind_Speed
76 77 78 80 81 83 86 85 85 89 94 94 93 93 99 99 100 108 107 111 111 106 105 105 99 93 86 86 84 80 79 80 72 58 51 51 56 54 50 43 38 34 29 33
76 76 77 78 80 82 84 84 85 87 89 82 80 86 89 94 95 96 100 109 110 109 109 110 107 100 93 96 95 88 87 84 75 66 55 53 53 46 40 46 48 37 31 40
70 71 72 74 75 78 81 83 82 81 80 81 77 79 82 85 85 87 91 97 105 106 106 107 102 100 104 104 103 96 96 87 74 65 59 58 58 57 52 47 46 40 35 39
67 68 69 71 73 75 81 80 71 73 71 71 74 77 76 81 83 86 86 87 94 100 105 106 100 101 99 96 96 94 93 90 82 67 64 62 57 51 46 48 48 43 40 40
59 60 62 65 67 69 76 73 65 66 66 66 69 70 66 68 72 77 79 79 90 98 91 95 99 104 101 95 96 91 92 84 78 74 67 64 63 53 49 53 48 42 40 36
55 57 60 62 66 70 74 68 62 61 59 60 64 54 54 61 70 71 73 77 86 83 82 95 94 96 99 100 104 94 89 82 80 74 74 73 61 53 52 51 44 44 39 42
57 59 60 63 66 68 71 65 56 56 49 55 48 54 55 60 67 67 71 72 68 66 92 89 87 88 89 95 99 97 90 88 81 76 77 81 64 61 57 53 46 48 49 46
56 58 59 62 65 67 70 69 58 56 52 54 55 55 56 63 70 69 68 63 66 80 87 83 81 85 85 85 92 92 106 89 81 81 81 72 67 63 64 59 49 49 56 52
57 60 62 65 67 70 71 68 62 62 61 50 53 61 65 66 68 68 64 62 75 79 80 77 76 75 80 81 87 95 98 102 89 85 84 75 69 64 63 63 53 53 57 63
61 63 64 65 65 69 68 68 67 70 67 60 56 57 64 70 68 64 66 71 76 78 75 71 71 69 77 82 86 88 96 95 94 92 87 81 75 74 69 66 51 58 62 65
57 57 59 61 63 65 65 65 68 66 63 55 54 55 59 63 64 63 66 79 77 73 63 59 60 66 72 74 80 82 92 100 101 92 92 82 82 81 80 64 62 64 62 63
47 48 49 51 54 57 58 60 62 62 60 57 53 53 58 57 58 64 67 68 66 56 53 52 58 62 74 71 75 81 87 91 98 83 82 88 86 82 81 73 68 69 67 64
35 37 38 40 43 45 46 52 55 52 53 53 53 53 54 56 57 56 58 56 48 47 49 55 60 63 69 71 68 74 80 87 82 72 80 83 87 86 83 78 75 73 70 63
27 29 31 33 35 37 42 44 42 44 49 49 52 49 49 51 50 49 46 44 40 48 55 54 57 58 66 69 73 75 74 77 78 71 73 74 74 78 77 75 71 71 70 69
19 22 26 28 30 35 38 37 41 45 43 45 48 43 44 43 42 44 42 43 48 53 52 52 53 53 64 68 69 68 68 70 70 68 72 71 69 64 67 66 66 71 72 72
16 19 22 25 27 29 30 31 31 30 34 36 37 37 37 38 40 43 44 47 51 51 49 50 48 51 58 63 63 65 69 73 70 66 68 63 61 59 61 62 65 70 73 70
12 15 17 20 23 25 27 29 29 29 28 28 32 34 32 32 34 38 42 46 46 43 47 49 48 51 55 59 61 58 57 59 62 64 60 58 60 58 59 61 62 65 68 66
18 19 20 22 24 25 24 24 27 29 32 35 36 38 41 41 41 42 45 46 43 44 45 45 41 53 60 58 60 62 64 63 62 60 58 57 60 60 56 60 63 66 68 69
22 21 21 22 22 25 27 27 27 28 29 31 33 35 37 38 38 37 39 41 39 43 42 45 50 47 53 54 59 63 64 62 59 57 56 54 54 58 60 60 61 65 68 70
28 28 26 25 25 25 25 27 29 29 29 29 29 30 31 31 31 34 38 37 38 36 41 47 49 41 44 54 59 61 63 61 58 56 55 55 56 54 59 64 66 68 70 72
27 26 25 25 24 26 27 27 27 26 27 27 29 30 31 32 32 32 30 30 31 34 40 42 45 55 50 55 56 62 62 60 58 58 58 61 65 64 64 67 67 69 71 72
24 24 25 25 25 24 24 24 25 25 25 25 26 26 27 27 26 25 25 26 29 33 38 42 44 40 42 49 57 62 62 62 63 65 66 67 65 65 65 67 69 71 72 73
27 26 24 24 22 22 22 23 23 23 23 23 23 27 27 28 28 29 31 29 29 34 37 33 36 36 41 48 57 63 64 65 66 66 65 64 65 67 68 70 73 75 76 76
25 22 20 19 18 19 20 21 21 21 21 22 23 23 24 23 26 29 30 30 31 32 32 34 39 42 46 52 57 63 65 66 66 66 65 65 66 67 69 73 77 79 79 80
23 21 20 19 19 18 19 19 21 21 21 18 18 19 19 19 19 19 21 22 24 27 32 35 37 40 46 52 59 63 65 67 67 67 66 67 68 70 72 75 79 81 83 85
25 23 20 19 18 17 17 19 20 19 20 19 18 17 18 16 16 14 14 16 22 26 30 35 38 40 44 50 58 64 68 69 68 69 70 71 72 73 75 77 80 83 85 88
27 27 26 23 19 18 21 22 19 23 24 20 18 18 16 16 14 13 15 12 15 17 22 32 40 44 47 53 61 67 69 71 72 72 73 74 76 77 79 82 83 85 87 89

GFSNW_250_spd_060.txt.gz
Wind_Speed
75 76 75 75 75 76 80 81 77 83 85 84 78 73 86 90 100 102 101 100 97 96 99 97 95 93 91 90 84 81 80 78 74 72 69 65 62 58 57 49 46 45 44 35
74 73 73 73 73 77 79 81 76 78 81 71 70 78 86 88 86 89 93 103 106 102 101 100 94 97 98 96 94 92 96 88 82 79 75 69 63 63 60 53 49 45 44 40
67 68 69 70 73 76 80 81 75 72 69 69 70 74 77 77 79 82 88 93 98 106 110 111 103 96 95 98 97 93 96 94 87 80 77 74 71 68 66 60 55 52 47 47
66 67 69 70 71 74 80 77 66 64 65 70 72 74 76 76 77 76 80 83 93 97 98 102 96 104 103 100 98 97 94 87 86 83 81 81 77 73 71 67 54 50 50 49
61 62 64 67 69 73 78 69 61 61 66 69 69 69 68 74 73 72 72 76 82 83 84 89 95 93 95 104 103 98 98 94 93 88 84 81 80 75 69 69 65 54 51 42
57 59 60 63 66 71 71 65 61 60 63 62 63 57 63 67 69 69 70 74 73 77 84 86 90 89 93 97 103 105 97 98 95 85 83 85 86 72 70 68 59 58 53 46
51 53 55 57 60 63 64 61 63 60 59 61 55 63 65 66 68 68 68 68 71 82 86 85 84 83 81 85 94 95 97 103 94 87 87 91 71 73 68 63 62 58 58 52
50 51 53 55 57 59 60 59 59 55 53 54 58 57 61 63 61 60 62 62 69 75 79 78 78 78 78 78 81 78 90 99 99 95 91 82 76 73 71 66 64 61 59 54
49 51 52 54 55 58 59 58 57 53 50 47 55 58 58 58 58 61 54 65 70 73 76 76 71 69 69 74 73 75 82 91 96 93 87 87 75 77 76 69 69 66 64 61
47 49 51 53 55 58 57 53 53 51 48 47 51 49 51 59 59 55 61 65 69 70 69 71 64 61 65 65 66 70 79 82 84 84 77 71 77 80 80 78 63 77 72 66
46 49 51 53 55 57 53 53 56 52 48 48 47 49 51 56 57 55 61 71 63 69 64 65 57 51 58 61 62 70 74 77 77 77 85 79 77 81 84 78 78 77 74 67
47 48 50 52 53 55 53 53 53 56 49 46 45 46 51 55 58 60 63 63 68 67 61 56 55 49 56 58 61 69 71 68 73 79 83 84 81 78 81 79 79 78 77 70
44 45 46 48 50 53 51 52 56 55 54 54 51 45 49 57 65 68 66 70 66 62 55 51 51 48 55 54 58 68 69 65 71 81 79 83 81 77 74 81 85 82 78 77
35 37 40 42 44 45 46 45 48 53 52 52 55 52 47 50 55 65 68 63 56 55 52 49 48 46 51 52 60 65 70 74 79 84 87 85 82 72 65 69 79 83 80 78
24 27 30 32 34 36 38 42 48 47 47 48 52 50 50 48 49 48 47 48 51 50 48 43 43 47 50 52 59 64 70 70 74 79 82 82 76 68 60 64 68 72 79 81
18 21 24 27 28 31 34 34 32 34 36 38 41 40 37 36 37 35 38 45 45 45 42 41 44 48 51 54 56 61 64 66 72 72 74 76 71 72 67 62 62 66 69 72
15 16 18 21 22 24 26 32 31 28 30 33 31 28 30 33 36 40 42 40 41 41 44 46 47 50 51 51 54 58 62 64 66 68 71 70 67 70 68 64 63 61 60 61
17 18 19 20 22 24 24 25 26 26 27 24 24 26 27 30 31 32 36 37 39 42 42 45 47 51 51 51 51 57 61 62 62 63 68 69 64 63 61 62 60 57 56 58
20 20 22 22 22 23 24 25 25 26 28 28 29 31 32 32 34 36 36 38 40 41 41 42 48 51 47 46 51 53 57 61 61 60 65 69 62 59 60 56 54 56 56 58
24 25 21 21 23 24 27 28 30 30 29 31 34 34 33 33 34 35 36 38 41 44 43 45 45 43 44 43 44 52 54 56 61 60 62 63 63 57 53 55 58 57 57 62
26 27 28 26 26 26 26 26 27 29 31 32 32 32 31 33 32 32 33 37 39 41 41 40 39 39 39 36 38 45 51 54 57 59 59 60 60 59 59 59 56 57 60 61
28 29 29 29 27 27 28 29 30 31 31 32 31 30 29 29 30 30 30 32 33 34 32 31 30 30 30 31 36 37 46 53 55 55 56 58 60 61 60 57 57 59 61 64
30 30 30 29 29 30 30 30 28 26 25 24 25 26 27 28 28 28 27 25 24 25 21 21 25 30 33 30 33 42 47 52 52 51 54 58 60 61 61 61 64 62 61 63
25 25 25 25 26 26 26 27 26 26 26 26 26 24 22 21 21 19 20 21 23 24 25 29 32 33 30 35 40 44 43 46 50 52 53 56 60 61 63 65 66 67 67 68
24 23 23 22 21 21 21 22 22 22 22 20 19 19 17 16 16 17 18 21 23 23 23 25 28 28 30 35 41 42 42 45 48 50 52 56 61 64 66 68 69 71 72 74
25 23 23 21 20 18 18 19 19 19 18 16 17 17 17 16 15 17 18 19 19 20 24 25 24 24 29 34 38 41 44 46 50 53 56 60 65 67 70 73 75 76 77 80
25 24 22 21 22 22 20 19 20 20 20 19 18 16 17 16 12 12 15 15 17 18 22 25 26 29 34 38 42 44 46 50 53 56 61 64 67 69 73 76 77 79 81 82

GFSNW_250_spd_063.txt.gz
Wind_Speed
77 77 77 77 75 77 78 77 73 74 80 76 70 71 72 77 85 86 87 89 87 84 84 86 83 80 84 84 82 80 77 74 69 66 62 57 52 48 49 52 51 47 43 39
72 73 73 75 75 74 75 74 69 73 79 67 66 70 76 78 79 89 91 94 90 85 85 83 81 83 87 87 88 84 83 82 78 75 75 70 70 70 67 56 53 48 45 41
65 68 70 73 74 75 77 75 70 66 65 60 68 69 73 75 80 83 85 91 99 94 91 91 89 87 89 91 89 89 87 85 83 78 78 78 76 73 69 66 61 56 51 51
56 60 66 69 71 75 78 74 66 62 61 64 71 69 72 74 75 79 84 88 92 93 97 101 98 95 96 96 94 95 91 90 89 85 85 87 83 80 78 73 68 63 54 50
51 54 58 63 66 71 71 64 61 58 61 67 68 67 65 71 71 74 79 81 90 89 88 94 96 99 104 101 97 98 94 95 95 94 94 93 91 84 79 76 71 62 58 54
48 50 52 56 62 65 62 59 55 55 58 66 64 62 70 70 72 72 76 78 81 82 88 89 92 92 94 94 97 101 101 97 95 93 96 92 87 77 82 78 75 71 64 55
45 47 50 53 56 56 55 57 57 54 58 63 61 66 66 66 69 72 75 75 78 84 81 79 81 81 81 85 91 90 90 98 100 101 103 102 89 87 86 84 82 77 72 66
43 47 49 51 54 54 52 54 50 50 54 59 63 61 60 62 63 66 70 73 78 79 77 76 75 76 76 77 80 84 86 90 95 94 94 91 87 87 87 84 78 77 74 68
42 43 46 49 51 53 53 52 51 53 58 59 63 62 61 64 66 66 68 71 72 72 68 68 68 71 74 76 77 78 78 80 85 86 84 84 78 86 90 90 80 80 79 75
42 43 45 47 48 50 50 46 48 51 52 56 59 59 61 63 64 66 67 70 66 68 63 63 64 63 66 68 69 73 77 76 79 80 81 74 77 87 90 89 77 85 83 74
40 41 43 45 47 49 50 47 48 46 47 51 53 56 57 59 58 60 62 64 58 57 57 58 61 62 63 64 65 69 72 75 76 78 77 71 73 80 81 85 87 89 84 77
41 41 42 43 45 47 46 44 44 45 48 50 53 54 55 57 60 63 63 60 61 58 54 54 58 60 61 59 60 65 69 71 74 77 74 75 76 75 74 76 78 81 83 81
45 46 47 48 49 49 46 46 47 46 43 46 45 48 52 52 58 59 56 57 57 57 57 57 58 60 60 55 55 64 64 68 69 74 67 74 80 77 74 72 68 65 71 77
42 45 48 49 50 49 48 47 50 48 43 41 48 46 45 52 54 56 54 55 57 58 55 55 56 56 58 55 52 57 60 65 63 63 68 73 78 75 74 76 70 67 64 69
36 39 41 42 42 42 43 46 50 46 46 46 48 45 47 48 51 56 57 53 57 56 55 51 52 49 49 50 51 54 58 57 58 61 67 72 77 78 77 79 71 72 76 75
26 28 31 32 33 34 34 35 37 39 41 44 48 50 49 49 54 56 53 54 58 57 54 45 41 49 45 45 48 55 59 57 53 61 65 73 76 80 78 77 73 72 73 67
19 22 24 26 29 31 32 36 41 39 42 45 47 47 48 43 44 46 49 51 52 51 51 49 49 47 45 51 52 53 56 53 52 59 66 73 75 80 81 80 73 74 70 61
16 19 21 23 25 26 29 29 31 32 29 33 32 33 35 35 32 35 38 42 45 46 49 49 47 48 48 48 49 54 56 55 54 58 62 70 75 82 86 82 78 77 72 64
17 20 21 21 21 22 24 26 27 27 28 26 24 28 28 30 32 33 34 36 39 43 45 47 47 48 51 50 51 56 57 55 55 57 62 70 74 88 87 81 80 74 70 65
19 21 21 23 24 25 27 29 30 30 27 26 28 29 32 31 31 31 33 36 38 38 39 41 41 44 45 50 52 53 53 52 53 54 57 64 72 77 79 80 76 70 69 69
23 22 21 20 21 23 25 25 26 27 28 30 31 31 29 28 28 31 34 36 37 38 39 40 41 42 41 41 44 47 49 49 48 46 48 56 62 70 69 71 68 68 63 60
24 26 25 23 22 23 23 24 24 26 26 25 25 25 26 28 29 29 30 30 32 35 34 34 34 36 37 39 41 44 44 42 42 47 51 52 55 58 63 67 67 66 62 59
24 24 25 24 24 23 23 23 21 21 22 23 23 24 24 25 26 26 27 28 29 27 29 30 31 29 30 32 34 36 38 40 41 46 48 51 53 54 58 61 64 67 65 64
24 24 26 27 27 26 26 25 25 24 24 24 23 23 22 20 19 19 19 19 19 20 22 23 23 25 28 32 35 36 40 40 45 44 47 48 46 52 54 58 60 61 64 67
24 24 24 24 25 26 27 27 27 26 25 24 24 23 22 21 20 20 20 19 19 20 22 23 25 25 27 27 25 28 33 39 48 53 51 48 45 44 48 54 58 60 63 65
24 25 26 25 24 23 23 23 25 26 25 24 24 23 21 18 16 16 15 14 17 19 22 24 25 26 27 29 30 32 37 40 42 45 44 44 45 46 49 52 56 59 63 67
23 23 23 25 24 22 22 24 24 23 20 17 16 15 13 11 8 8 8 11 13 16 17 18 21 25 28 30 32 33 36 42 44 44 45 45 46 49 52 56 60 63 67 71

GFSNW_250_spd_066.txt.gz
Wind_Speed
72 72 73 73 74 77 75 74 68 68 76 69 60 62 63 69 74 71 69 72 71 73 77 75 78 75 78 79 76 78 74 71 65 65 66 66 63 59 57 50 44 41 39 38
69 68 69 70 71 74 76 74 70 69 73 61 59 62 69 75 77 76 76 75 72 74 79 82 85 85 84 81 81 72 75 76 74 73 70 68 68 65 61 54 48 40 38 40
61 61 61 62 65 69 71 69 68 66 64 54 61 65 67 71 78 81 79 81 80 78 78 81 81 85 86 83 83 82 80 75 72 72 74 73 69 67 63 61 55 50 39 47
54 53 54 55 57 61 64 60 58 58 55 57 62 66 66 70 72 77 80 81 82 84 81 81 83 85 82 85 85 85 84 80 80 81 79 78 75 71 69 65 59 52 52 52
48 49 49 51 52 54 51 49 53 54 55 63 64 61 60 68 71 73 78 80 85 82 80 85 85 88 85 84 83 84 85 85 85 81 82 81 81 82 76 74 75 71 71 63
44 44 44 45 47 45 39 42 47 50 56 62 63 59 65 67 71 71 74 77 82 80 82 78 82 82 86 84 88 86 84 85 86 84 85 85 83 87 86 81 79 79 76 72
41 40 40 40 40 38 37 40 47 48 54 57 60 64 66 66 68 70 75 74 75 77 73 76 80 80 81 82 84 89 89 90 90 86 90 90 82 91 91 88 84 84 82 80
39 38 37 36 36 34 37 40 38 43 48 54 58 58 64 66 69 70 72 72 76 72 70 71 73 74 75 78 80 82 83 86 89 91 97 88 89 92 92 94 87 89 86 85
38 37 35 34 33 34 36 35 37 40 48 49 56 60 62 66 68 67 70 72 69 69 67 67 68 69 71 73 73 75 76 81 85 86 88 89 95 100 99 98 88 92 89 85
37 37 37 35 34 34 35 35 36 40 46 50 53 58 60 61 62 64 68 70 67 63 63 65 66 68 67 69 71 73 73 75 78 79 84 84 86 94 102 101 99 98 97 91
35 36 36 35 36 36 35 37 37 42 45 48 50 54 57 59 62 65 69 64 61 61 60 63 66 67 69 67 68 72 73 74 76 77 77 75 80 84 87 91 88 84 87 87
34 34 35 36 35 35 35 36 39 42 44 45 48 52 55 57 61 62 60 61 59 56 55 55 61 61 62 62 62 66 67 71 73 75 74 75 76 78 78 79 81 82 80 84
39 38 38 36 35 36 34 35 38 40 41 44 47 48 51 54 58 58 56 58 57 54 56 56 56 57 57 59 61 62 63 67 68 69 66 68 71 77 80 75 73 74 74 76
42 42 41 40 40 38 35 33 38 40 41 44 44 47 50 55 53 53 53 57 54 51 50 50 47 50 53 55 56 55 59 61 60 59 61 63 68 72 73 74 73 72 72 73
41 43 45 45 45 44 42 38 38 42 47 47 47 48 49 50 50 52 53 51 51 49 47 44 44 46 51 55 55 53 61 59 57 51 58 61 64 65 66 70 70 74 73 72
34 37 39 42 44 46 44 40 38 38 39 39 46 47 48 49 50 52 51 50 51 48 42 36 40 46 52 53 54 57 60 62 60 50 52 54 59 62 62 64 70 74 72 73
26 29 33 37 38 38 37 39 47 48 46 45 47 49 49 49 51 49 48 48 47 49 44 44 42 49 52 53 54 53 59 59 54 49 48 50 57 61 59 62 66 72 72 73
21 24 27 30 31 33 34 42 45 35 39 44 44 46 50 48 50 50 50 50 48 50 50 45 47 51 51 45 45 52 62 54 48 46 51 51 55 57 57 59 66 74 75 75
18 21 23 26 29 32 33 34 34 36 37 39 43 45 45 45 47 47 48 49 50 50 47 48 51 50 48 44 46 49 49 47 47 45 50 51 53 56 56 60 65 68 70 71
16 18 19 21 22 23 26 28 31 32 33 29 23 27 34 35 41 44 45 46 45 44 46 50 50 46 41 41 42 43 48 46 49 50 50 50 50 54 57 62 63 64 67 67
19 21 23 23 23 23 23 23 24 23 22 26 31 35 37 40 39 38 36 39 41 43 44 44 41 38 37 36 38 41 42 41 41 47 50 49 48 51 55 57 60 63 67 67
17 21 21 21 22 23 25 25 27 29 30 30 29 27 26 27 27 28 30 32 35 37 34 30 33 35 34 35 35 36 33 38 42 44 42 42 44 46 49 51 53 60 65 70
19 21 21 20 20 20 20 21 21 22 23 23 23 23 23 23 24 25 25 25 25 26 27 28 28 30 31 32 34 35 36 39 39 40 40 41 43 46 50 51 53 57 61 67
19 23 26 27 26 25 25 24 23 22 21 20 19 19 18 18 16 15 15 15 15 16 17 20 24 26 27 27 29 32 34 35 37 38 41 43 46 50 52 54 55 56 58 58
24 25 25 25 25 25 26 27 26 25 24 24 23 22 20 18 16 15 14 14 15 16 17 17 17 18 20 22 25 27 31 34 35 39 42 45 48 52 52 51 50 52 53 56
26 25 25 26 26 25 25 25 26 25 23 22 21 21 19 17 15 12 11 10 9 10 10 12 13 15 18 21 24 28 31 34 38 41 43 47 51 51 50 50 51 51 51 52
25 26 26 24 24 23 23 22 22 20 20 20 19 17 15 12 9 7 5 5 6 8 9 11 13 15 17 19 22 25 28 30 33 35 39 42 45 46 46 48 51 52 52 53

GFSNW_250_spd_069.txt.gz
Wind_Speed
72 72 72 71 73 72 70 67 62 64 68 63 57 54 57 59 63 61 63 66 66 65 62 62 63 65 71 73 77 76 72 65 63 60 62 62 63 62 60 55 52 51 44 38
68 68 68 68 70 69 67 61 61 65 67 56 53 57 61 65 67 67 68 70 72 73 69 72 68 68 71 75 75 75 74 74 70 68 65 61 60 60 59 59 57 52 48 41
64 64 61 62 64 62 57 56 55 59 61 53 59 58 61 67 71 69 70 74 74 78 77 76 76 71 70 73 71 70 71 74 77 73 69 69 65 65 66 64 61 55 50 50
61 59 58 57 56 54 47 47 50 53 54 58 61 61 62 69 71 71 72 77 78 77 77 78 81 79 75 74 71 75 74 68 68 74 76 75 75 72 70 65 63 61 58 56
53 53 51 51 52 47 38 43 48 48 49 56 58 59 61 66 70 72 74 76 80 77 75 76 73 76 73 78 76 79 77 83 77 75 80 77 72 73 78 77 72 68 65 62
49 48 46 45 42 36 38 43 43 41 45 49 55 57 63 69 70 69 73 75 75 77 78 70 71 71 72 76 82 84 81 82 85 87 87 84 77 77 78 76 72 70 67 65
43 41 38 38 35 33 38 40 38 36 45 49 57 61 63 68 69 71 72 74 76 75 72 71 70 69 72 71 72 80 85 88 90 88 89 87 82 85 85 84 80 79 74 71
36 35 34 34 31 31 35 35 34 40 46 50 56 58 62 68 69 67 68 73 76 74 69 68 68 70 71 74 77 75 76 81 86 86 86 83 86 90 92 94 86 86 82 77
33 32 32 30 29 29 31 32 33 38 44 46 54 58 59 64 66 68 69 70 70 69 66 64 64 66 67 71 73 74 76 81 82 83 86 85 86 89 93 93 85 91 89 87
30 29 27 28 27 27 29 30 32 36 41 45 46 52 56 60 64 67 70 68 65 60 58 59 62 64 65 67 69 73 74 78 78 79 80 80 85 91 97 94 91 90 89 89
31 29 26 27 26 27 27 29 33 39 43 45 47 49 52 56 62 63 62 62 59 57 58 58 59 61 62 63 66 67 69 69 70 72 73 76 81 85 90 92 96 95 94 94
32 30 28 26 27 26 28 31 34 36 38 41 44 47 50 52 55 56 56 58 56 54 55 57 60 61 61 62 62 63 64 65 67 69 71 73 76 78 79 83 85 89 89 93
33 33 31 28 28 29 30 31 33 36 38 40 39 43 48 51 53 53 55 56 55 54 54 57 57 56 60 59 61 63 65 67 66 67 69 73 73 74 73 78 77 80 83 80
33 34 32 31 30 30 34 32 36 38 38 39 43 44 44 46 46 47 52 56 53 51 52 53 55 53 56 57 60 61 61 60 62 63 66 70 74 71 72 76 77 76 79 77
32 34 33 31 30 32 36 36 37 40 39 39 41 43 45 46 47 49 51 49 48 46 47 48 51 53 54 58 56 55 56 58 58 60 63 67 71 69 68 70 71 69 73 75
29 32 34 34 34 31 35 37 36 38 38 39 43 44 44 44 43 44 43 42 44 45 43 45 49 52 54 51 50 51 52 53 54 55 58 60 61 65 64 60 62 64 64 67
26 30 32 34 34 34 33 36 40 39 35 36 37 38 41 41 39 41 42 44 43 42 41 42 43 45 45 44 46 51 52 52 53 51 54 57 56 51 49 49 51 54 56 61
22 25 29 32 33 35 34 34 37 39 38 38 38 40 39 40 40 40 40 40 39 39 36 35 40 43 45 44 45 50 52 51 50 55 60 57 49 45 48 50 50 55 54 56
19 22 24 26 28 30 28 28 27 30 34 38 40 39 38 36 37 35 36 36 38 37 36 37 40 41 44 44 47 48 50 53 57 60 56 49 49 45 47 49 51 52 50 53
17 19 21 23 24 23 25 23 24 27 29 33 36 41 42 41 42 41 41 42 44 43 44 44 42 39 40 43 46 50 55 55 58 58 49 47 49 50 48 50 50 51 53 51
18 19 20 20 21 22 25 25 26 26 29 31 32 33 34 35 40 42 44 46 47 50 52 52 49 47 50 49 49 51 50 49 48 40 34 42 45 46 48 50 48 47 47 49
17 22 23 23 22 21 21 21 21 20 16 20 21 24 27 32 34 32 37 39 40 40 43 42 41 45 43 41 41 40 39 39 37 34 37 40 41 41 39 40 43 45 45 46
14 15 17 19 22 26 28 29 30 28 25 23 21 21 22 23 22 23 24 26 26 27 29 31 31 28 28 28 30 31 32 32 29 31 34 34 33 37 40 43 44 46 46 46
22 23 23 22 22 22 23 23 23 23 22 21 20 18 17 17 17 17 16 15 13 12 13 13 15 17 17 19 20 21 24 26 29 28 27 29 33 37 40 42 44 46 47 49
23 24 24 24 24 24 24 24 23 22 20 19 17 16 15 15 14 14 14 14 13 12 13 13 12 11 11 15 20 23 21 21 22 25 28 32 36 38 40 43 45 47 48 50
25 26 26 25 24 24 25 24 25 24 23 23 22 21 21 19 17 16 16 15 14 13 13 12 13 15 16 17 18 20 22 24 25 27 30 33 37 39 42 44 46 49 52 54
31 31 30 29 27 27 26 25 25 26 24 24 23 22 18 18 17 14 11 10 9 8 9 10 12 13 14 16 18 21 24 27 31 34 36 37 39 42 44 46 48 50 52 53

GFSNW_250_spd_072.txt.gz
Wind_Speed
66 66 67 68 68 66 63 61 58 65 64 60 55 55 58 58 65 60 65 66 66 71 72 68 63 63 59 70 66 63 60 62 63 62 62 62 63 58 59 61 57 54 53 51
63 63 63 64 66 63 62 58 57 62 64 58 60 60 58 62 69 66 66 69 70 72 73 66 66 63 66 69 71 67 68 68 66 63 64 61 64 63 62 57 58 57 57 55
58 60 62 63 65 61 56 53 57 63 62 63 63 61 61 62 71 71 67 71 73 71 75 70 65 64 63 65 72 72 71 70 72 67 64 64 60 62 62 61 59 58 58 59
57 59 61 60 60 53 49 53 57 63 60 64 61 58 61 67 72 70 70 72 73 76 74 74 69 68 68 68 67 71 71 75 78 78 73 70 64 61 63 63 63 62 62 63
53 54 55 55 52 44 48 51 57 56 56 57 56 57 60 66 75 73 72 75 77 75 72 72 75 75 71 75 72 65 68 71 76 83 84 81 78 73 68 63 58 62 63 64
48 49 49 48 45 45 48 51 51 46 49 48 49 55 61 66 71 75 71 74 75 73 76 70 75 76 78 74 73 75 71 75 78 82 81 83 80 78 78 79 75 71 72 70
44 44 44 44 43 43 43 45 41 41 48 44 49 50 57 65 68 73 71 70 74 73 71 73 74 77 79 78 78 77 78 76 78 82 81 79 74 73 76 72 78 86 79 76
39 40 39 38 36 37 40 37 40 41 45 45 45 49 54 62 67 67 68 69 70 72 70 70 70 74 78 81 82 80 81 79 77 79 84 80 77 83 82 78 80 80 76 75
34 33 33 33 33 33 35 35 36 37 39 45 48 47 53 58 62 64 65 66 65 68 67 67 68 71 72 80 85 82 83 83 86 84 83 84 88 90 92 91 92 87 86 83
29 29 29 29 29 29 30 31 32 35 39 41 43 47 52 54 58 59 62 63 66 62 63 65 67 70 72 74 76 76 78 76 77 83 85 87 89 90 91 91 92 94 93 91
28 28 27 28 28 28 28 30 31 35 37 36 41 43 46 49 54 56 58 61 62 59 57 61 67 67 70 73 76 77 76 75 75 78 80 83 86 90 96 97 97 97 97 97
29 28 26 27 27 28 29 29 28 29 31 36 38 39 43 46 51 53 57 59 59 56 57 59 62 67 68 69 69 69 69 72 75 74 77 79 82 85 87 89 92 93 94 97
28 28 27 27 27 28 29 28 28 29 30 33 34 38 41 42 46 51 52 54 54 54 56 57 56 59 62 64 66 68 68 70 70 71 72 75 75 76 79 83 86 88 88 89
28 28 27 28 29 29 30 30 30 30 32 34 35 34 36 40 45 47 47 46 47 47 51 54 54 56 57 60 62 61 63 63 66 65 68 69 71 70 73 75 78 81 83 82
30 29 30 29 31 31 32 31 32 30 32 35 35 36 37 40 43 45 46 46 48 46 47 48 53 54 57 59 60 61 62 62 62 64 65 67 68 67 71 72 74 76 78 78
27 29 32 30 31 35 33 29 28 28 32 33 35 37 37 39 40 41 42 45 45 44 44 48 49 54 55 57 59 61 61 60 60 60 63 64 66 69 69 71 72 73 75 77
26 29 30 30 32 39 35 32 35 34 34 35 35 35 36 36 36 37 38 40 41 42 41 44 49 52 53 54 55 55 58 58 58 59 61 61 64 67 68 67 68 68 70 69
23 27 29 30 33 37 41 40 36 33 33 33 34 35 36 38 38 37 37 38 38 38 41 45 48 52 51 48 50 54 56 58 59 61 61 62 64 64 67 66 66 66 65 60
21 22 26 28 31 35 42 42 38 35 30 29 31 33 33 35 34 33 34 35 36 39 42 44 46 48 46 48 53 54 57 58 58 58 57 58 59 60 62 60 58 54 54 48
22 22 23 25 26 30 34 40 41 34 29 30 27 25 28 28 28 29 29 31 32 34 36 38 38 41 43 46 50 53 54 55 55 53 51 53 55 55 57 51 47 47 50 47
19 21 22 22 24 24 26 30 31 34 33 33 32 30 28 28 27 26 27 27 29 30 32 34 35 36 41 46 50 53 55 55 56 56 56 56 56 55 56 50 48 53 49 47
17 20 22 24 24 26 28 30 30 30 30 30 32 32 32 31 31 31 30 31 31 31 34 35 33 37 36 39 42 45 47 51 54 56 58 57 55 53 53 52 50 47 47 46
16 20 23 24 25 27 29 31 32 31 29 29 30 30 30 31 32 32 33 33 33 33 34 35 34 34 34 35 35 35 36 39 41 42 44 45 47 47 47 48 47 45 44 44
18 17 20 21 24 23 25 26 27 28 27 26 26 25 25 24 23 23 22 21 23 25 25 25 25 26 25 25 26 28 29 30 30 32 33 35 37 38 40 41 42 42 43 43
22 22 23 23 23 23 22 21 22 22 21 22 21 20 17 15 15 15 15 15 16 18 20 21 21 20 20 22 23 24 23 22 21 22 25 28 31 34 37 39 41 40 41 43
26 26 25 24 24 24 24 23 23 21 20 20 19 18 17 15 13 13 13 14 14 15 13 14 14 17 18 18 18 19 19 22 25 27 28 29 29 31 34 37 39 41 44 46
28 28 28 28 27 27 25 25 24 22 21 20 19 19 18 16 15 14 12 12 11 12 13 14 15 15 16 18 20 22 24 25 27 28 30 32 34 36 37 39 42 45 47 48

GFSNW_250_spd_075.txt.gz
Wind_Speed
65 67 68 70 72 67 66 62 61 64 64 58 53 55 62 63 60 58 61 59 59 58 61 60 61 62 58 59 72 62 55 55 54 59 60 58 61 59 59 57 52 48 56 62
60 63 64 66 68 67 66 62 63 65 63 57 58 62 63 63 61 63 64 63 63 62 63 65 69 69 65 65 77 71 65 57 63 61 59 64 60 64 54 55 63 57 54 59
54 57 60 62 63 60 59 60 62 66 64 63 64 66 66 66 67 66 68 67 67 66 66 68 70 71 73 69 73 76 77 68 64 66 70 65 65 68 62 58 58 59 63 61
49 52 54 56 56 54 56 55 59 64 64 65 66 66 64 65 66 68 68 67 69 70 68 69 73 74 77 76 71 75 81 81 76 72 69 69 66 63 58 61 62 61 64 67
44 47 50 51 52 55 54 57 61 64 64 62 61 60 60 63 66 63 65 66 71 75 70 69 74 79 73 78 75 67 69 71 76 74 73 65 61 63 63 61 61 64 69 71
40 42 44 46 51 52 55 60 61 58 56 58 55 59 59 58 60 62 64 63 65 69 70 71 69 75 75 74 74 71 70 71 77 77 74 72 63 59 60 68 65 69 70 73
36 38 41 44 45 48 52 55 51 50 56 54 54 53 54 57 59 59 60 62 65 66 64 69 70 73 77 79 73 72 76 75 75 79 78 79 81 78 73 67 68 72 71 69
31 34 37 41 41 45 48 47 47 46 50 50 48 48 49 51 52 54 57 58 63 64 64 66 68 72 74 79 77 72 77 77 76 77 79 83 83 82 85 86 85 79 77 73
28 31 33 36 38 39 41 40 39 42 44 45 41 41 44 47 48 48 51 56 59 63 64 64 68 70 74 77 82 77 77 79 76 75 75 77 84 84 88 90 95 89 87 86
27 29 30 32 33 36 37 35 37 39 43 40 37 41 43 43 41 43 48 51 56 61 61 62 65 71 73 75 78 84 81 80 81 81 78 77 78 81 84 88 93 90 94 93
27 28 29 30 31 33 33 34 35 37 36 30 36 38 39 40 40 42 46 49 55 58 57 60 64 69 72 74 77 81 84 84 83 86 83 83 89 86 85 87 92 92 91 91
26 27 29 30 30 31 32 31 33 34 30 31 34 34 34 35 37 39 41 45 51 53 55 59 62 67 70 73 76 79 80 83 89 89 87 87 88 88 89 89 87 89 92 94
29 30 31 31 31 31 32 30 31 29 25 31 31 32 31 34 37 37 40 43 46 52 56 59 61 61 66 71 74 76 81 84 85 85 87 88 92 89 87 88 90 92 95 98
30 31 32 33 32 31 30 29 28 26 27 28 23 26 30 31 32 34 36 38 43 49 52 54 57 59 61 67 71 71 75 80 81 83 83 86 89 87 87 89 88 88 88 89
30 31 31 31 32 32 31 26 24 24 24 23 25 25 27 31 32 33 34 37 41 45 47 52 55 57 59 60 65 68 73 74 75 77 77 82 83 81 80 82 81 82 84 84
32 34 34 33 33 33 30 21 23 27 26 26 24 24 25 28 29 30 33 37 40 39 43 48 53 56 56 58 59 63 67 69 74 72 74 74 73 71 77 77 77 77 78 79
29 32 34 35 35 34 32 29 29 28 27 27 24 23 24 25 27 31 31 31 33 35 37 41 46 50 52 54 58 59 60 61 62 65 68 66 68 67 71 72 74 74 75 76
26 30 33 36 37 39 38 35 27 27 26 26 26 25 25 25 27 27 29 31 33 35 37 40 46 48 48 51 54 57 60 61 62 64 65 65 67 69 71 71 72 72 74 76
25 27 30 34 37 42 42 35 28 27 25 26 27 27 26 27 27 28 29 29 30 31 36 41 43 45 46 51 58 61 62 62 64 66 65 66 67 68 70 71 73 73 73 73
24 25 27 31 38 43 43 38 30 24 23 23 24 23 25 26 27 28 29 30 31 34 36 38 39 40 44 49 55 58 60 62 64 65 65 67 66 67 68 69 71 72 73 73
23 23 25 32 37 41 40 34 28 21 23 23 21 22 21 22 23 24 26 28 30 33 35 36 38 41 47 51 54 57 58 59 61 63 63 64 65 65 67 67 68 69 69 67
24 25 26 30 33 36 37 35 32 28 23 23 22 20 19 19 19 20 21 22 24 27 32 32 33 42 45 45 49 52 54 55 56 56 58 59 59 59 60 61 61 58 59 58
23 25 29 32 33 32 32 33 34 32 30 27 24 23 21 20 21 22 24 27 29 31 33 35 37 40 40 42 45 47 50 53 55 55 57 57 56 55 54 56 58 59 60 59
23 24 27 31 37 40 41 40 37 34 30 28 26 24 23 23 23 26 27 25 24 26 28 29 30 33 36 37 40 44 48 50 54 56 58 60 61 60 60 59 58 58 58 56
21 21 24 26 27 29 33 37 38 37 37 34 32 31 30 30 29 27 24 25 27 26 27 26 26 26 28 29 29 31 33 36 38 40 42 45 46 46 45 45 46 46 47 48
24 23 24 24 25 26 27 27 28 28 29 29 27 26 24 24 22 21 20 19 19 19 20 20 22 23 25 26 29 29 31 33 34 35 38 39 39 38 39 40 41 42 43 45
28 28 27 27 27 26 26 26 25 25 23 23 21 20 19 17 16 14 12 11 10 10 13 16 17 18 20 21 23 24 26 28 29 30 31 32 33 35 37 39 41 42 43 44

GFSNW_250_spd_078.txt.gz
Wind_Speed
49 53 56 56 60 63 65 68 67 68 69 64 61 63 68 69 70 70 72 72 73 68 63 54 58 53 49 43 51 51 46 50 48 53 53 57 57 54 57 54 54 50 51 48
44 46 48 50 55 58 61 63 67 68 66 61 57 62 63 62 63 61 61 63 64 63 62 56 56 55 48 51 56 58 55 49 48 56 55 54 58 58 54 56 60 58 59 52
38 40 39 44 48 53 55 60 63 67 63 61 60 60 61 59 60 58 58 59 61 60 58 57 57 56 54 56 59 67 64 60 52 57 60 62 57 56 55 57 57 61 64 64
32 34 36 38 44 49 51 54 59 64 61 63 61 58 58 57 59 61 60 59 60 62 61 59 57 59 58 59 65 68 71 69 60 57 62 64 64 57 58 56 61 64 61 64
28 29 32 36 42 45 45 50 57 57 57 59 60 59 59 61 63 63 62 60 62 62 61 62 61 60 58 60 70 67 71 78 74 70 62 66 62 61 64 65 56 58 62 63
26 28 30 33 37 39 43 48 52 52 54 56 54 58 62 64 66 65 62 60 59 59 65 62 61 56 60 63 67 75 73 81 80 76 75 66 68 68 69 66 61 64 61 68
24 26 29 32 33 38 44 48 48 49 53 53 56 59 60 59 59 57 53 53 54 58 57 62 61 59 63 63 64 76 79 77 86 82 79 73 69 72 73 74 68 72 68 70
22 23 27 30 34 39 44 44 46 48 51 51 50 50 48 50 50 51 50 48 50 58 58 60 60 62 61 62 70 72 79 81 77 87 83 79 75 71 70 81 75 75 71 70
21 23 25 27 33 35 36 38 39 44 46 46 47 46 46 47 45 45 47 49 55 57 54 54 57 59 61 66 69 75 77 78 76 79 91 84 82 82 75 78 83 82 73 69
20 22 23 26 29 32 34 34 37 40 40 38 38 41 42 42 41 45 47 48 49 50 50 51 56 59 59 64 72 77 80 80 74 75 77 81 88 89 88 86 85 81 76 67
19 21 22 24 26 28 30 31 34 34 31 33 35 38 39 38 38 38 39 41 40 42 46 50 55 57 60 63 71 74 78 78 77 73 69 75 78 82 81 88 87 86 86 83
21 22 22 24 25 27 27 30 28 29 25 31 32 34 34 35 35 36 37 39 38 40 45 48 54 57 59 61 65 71 74 77 79 77 75 79 83 83 82 83 92 90 88 93
22 23 24 24 26 27 28 26 26 23 24 30 29 27 29 32 33 34 35 35 37 40 41 47 53 56 56 61 62 69 72 74 77 82 80 78 83 86 86 84 84 83 88 95
25 26 26 27 27 28 28 25 22 22 22 24 23 27 27 27 30 32 32 36 37 37 41 44 49 52 53 58 60 63 69 72 74 78 87 89 83 83 85 87 86 85 85 86
28 27 29 29 29 29 28 23 19 22 23 23 26 25 25 25 26 28 30 32 33 35 37 40 46 49 50 53 56 63 64 70 72 77 82 83 85 89 86 89 90 92 93 92
33 33 32 31 30 30 28 24 22 24 22 23 21 22 22 22 24 26 28 29 30 33 37 40 45 48 49 51 56 58 57 64 70 74 83 83 79 87 88 88 87 87 88 93
31 33 34 33 32 29 30 31 26 21 21 22 20 20 20 19 20 22 26 27 29 31 33 38 42 46 47 50 51 54 56 59 64 72 75 75 77 82 84 86 87 86 86 86
28 31 34 34 35 34 35 31 20 21 20 19 18 20 20 18 18 20 24 25 28 32 36 39 41 43 47 49 52 54 56 57 59 63 67 72 75 77 81 81 82 82 83 83
26 28 30 34 37 39 40 27 24 22 20 20 20 20 18 16 17 19 22 24 26 30 34 37 38 41 45 50 53 56 59 59 62 62 62 66 68 71 75 76 78 78 79 79
25 26 28 30 36 40 39 28 24 23 19 19 18 18 18 18 19 19 21 21 23 26 29 31 33 36 41 45 50 53 56 59 61 62 64 67 68 69 72 73 74 76 77 77
24 26 28 31 35 38 32 27 24 23 19 17 18 19 18 17 18 19 20 22 25 26 27 29 31 36 40 45 48 51 53 55 57 59 61 64 66 68 70 72 74 75 75 75
22 24 26 29 30 31 27 24 25 24 20 18 17 17 17 17 18 19 19 22 23 25 27 29 32 38 42 43 43 44 47 50 53 55 58 61 65 67 69 71 72 72 72 73
19 20 23 26 26 25 24 24 27 28 25 23 20 18 18 17 16 16 17 20 23 24 26 28 33 37 37 39 42 45 48 50 52 54 56 59 61 63 65 66 67 67 66 65
22 23 25 27 29 30 33 35 34 29 24 22 21 19 18 16 16 18 20 21 21 24 26 26 28 31 36 37 40 42 45 47 49 52 54 55 56 56 56 57 58 58 58 59
21 21 22 25 27 28 26 26 26 26 24 21 18 16 16 17 17 18 17 18 20 21 24 25 27 29 32 35 38 41 44 46 48 50 52 53 55 57 58 60 60 60 60 60
22 21 22 22 25 26 27 27 27 26 23 20 18 16 15 14 16 15 16 17 18 20 21 21 22 23 23 23 24 26 28 30 33 35 37 39 41 42 44 46 49 51 52 53
23 23 22 21 20 21 22 21 23 23 21 19 18 17 15 15 18 19 18 18 16 16 16 16 17 18 19 20 21 24 26 28 29 30 31 33 35 36 38 40 41 43 44 45

GFSNW_250_spd_081.txt.gz
Wind_Speed
43 42 41 41 38 40 44 45 59 61 62 59 58 58 61 66 64 66 68 70 73 73 76 75 77 76 66 55 52 46 44 38 40 38 41 48 51 62 58 53 48 44 43 42
40 37 37 37 36 37 36 42 54 56 57 57 57 61 62 61 59 59 61 64 66 65 64 64 65 64 53 50 48 44 44 40 45 41 46 55 52 62 58 54 47 44 41 39
34 32 31 31 32 31 32 40 49 51 52 56 56 58 59 59 60 57 56 55 57 56 56 55 59 59 50 45 49 45 44 45 50 49 49 57 59 61 53 53 50 48 44 46
31 28 26 26 26 27 31 38 45 47 48 55 56 56 56 57 57 55 51 50 50 52 50 49 50 50 47 42 48 45 47 51 56 51 51 61 64 58 57 55 54 58 54 51
29 25 23 23 24 26 29 37 40 41 48 50 53 53 55 57 56 53 50 46 48 48 47 47 47 44 41 41 49 49 52 58 62 57 55 57 63 62 58 56 59 56 55 55
26 24 21 21 24 28 32 35 36 42 46 46 48 51 53 54 52 50 49 48 45 46 45 47 48 47 46 46 47 51 53 62 68 65 60 54 59 66 62 67 63 65 64 63
24 22 20 21 25 29 31 30 32 37 40 40 47 48 49 49 51 52 51 50 47 49 50 53 53 48 45 44 46 51 53 64 72 73 64 58 58 65 65 63 67 72 70 66
21 20 21 22 23 26 28 28 32 36 37 42 45 47 47 48 48 49 49 49 48 55 52 55 51 49 45 47 47 51 55 65 72 80 73 66 66 64 65 66 65 69 70 64
20 19 20 21 21 22 25 27 30 35 37 43 40 41 43 45 48 47 48 48 49 46 51 52 48 48 51 53 51 54 59 64 69 79 79 74 74 71 64 70 76 72 71 67
18 18 19 19 20 22 24 27 30 33 32 33 35 39 40 41 40 44 45 45 45 49 53 52 49 49 53 52 56 58 62 64 64 77 84 79 80 77 74 74 72 75 73 71
17 17 18 18 19 20 21 25 27 26 27 31 33 37 39 39 41 44 44 42 46 50 50 47 45 49 52 54 55 60 63 65 65 71 75 80 87 81 82 79 78 75 72 76
17 18 17 18 19 18 20 21 21 23 26 31 32 33 34 35 37 40 40 43 46 42 40 42 45 48 50 54 57 61 61 64 67 67 78 85 82 85 87 83 82 77 76 77
19 17 17 18 19 19 18 19 20 22 27 26 27 29 31 32 34 35 37 37 41 36 35 40 44 45 48 52 55 60 59 61 68 69 71 76 85 87 84 84 87 87 86 82
20 19 19 18 17 17 17 17 18 22 24 22 25 26 27 29 31 32 31 33 30 31 35 40 42 41 44 49 53 58 58 63 68 71 71 74 78 78 82 86 89 91 90 90
23 22 21 20 19 18 16 17 18 22 21 21 22 23 26 26 28 27 27 28 30 33 36 37 38 39 42 49 52 55 57 61 63 69 67 74 78 81 84 82 78 76 83 89
27 27 27 25 23 21 21 20 22 23 19 17 18 20 20 21 21 22 25 22 25 31 33 35 36 37 40 44 44 48 53 59 60 67 72 77 87 86 87 74 70 74 76 78
34 34 33 31 28 26 26 22 14 20 19 15 16 16 17 16 17 20 23 25 28 31 31 34 35 36 37 39 41 48 53 56 60 62 63 70 74 80 79 80 79 78 78 80
30 31 31 31 29 30 29 23 18 23 18 13 13 15 14 13 17 21 22 23 25 28 30 33 35 36 38 39 43 46 49 53 56 58 58 63 71 75 77 76 79 81 81 81
28 28 29 28 31 36 33 22 24 22 16 13 13 13 12 14 17 17 19 22 25 27 31 32 33 34 38 42 44 46 49 52 54 57 60 62 64 68 72 73 76 78 79 80
26 27 28 31 35 33 31 21 26 21 17 14 15 15 14 17 20 20 20 22 24 26 27 30 32 35 37 39 43 44 46 50 52 55 57 59 62 63 66 68 71 75 77 79
22 27 29 31 32 32 27 22 27 24 18 16 17 17 17 18 18 19 20 20 22 24 26 27 30 33 35 38 39 41 42 45 47 50 53 55 58 62 65 66 67 69 71 73
22 24 26 27 25 22 18 27 28 23 19 18 19 20 19 18 19 18 19 20 19 19 21 24 28 31 33 34 34 35 36 39 42 45 49 53 57 59 62 65 66 67 69 71
18 19 20 21 21 19 20 28 29 28 23 17 16 19 19 19 18 16 16 16 18 17 21 25 25 23 27 29 32 35 38 41 43 46 49 51 53 56 59 62 65 67 68 69
19 20 21 23 25 27 34 40 37 27 21 18 16 15 13 14 16 16 15 16 18 21 22 22 25 29 31 33 35 38 40 42 44 45 47 48 50 53 55 58 60 62 64 66
21 20 20 23 26 31 34 33 29 26 22 20 18 16 16 15 13 13 13 14 15 17 20 22 24 26 29 31 33 35 37 39 41 43 45 46 47 49 50 52 53 55 56 57
18 17 18 22 26 29 32 32 32 28 22 20 18 16 13 13 12 12 13 13 13 14 15 16 17 18 19 21 23 24 25 27 28 30 33 35 38 40 43 45 46 48 49 51
18 18 19 19 23 27 30 31 31 29 25 20 16 14 11 8 7 6 7 8 9 9 9 10 11 12 13 16 19 22 24 26 28 31 33 35 38 40 42 44 45 47 49 50

GFSNW_250_spd_084.txt.gz
Wind_Speed
56 50 46 42 38 36 35 37 36 37 39 41 47 56 63 62 58 58 56 57 65 63 65 70 69 66 64 66 68 68 67 63 57 47 42 44 32 36 37 38 45 48 51 49
51 46 41 37 33 33 32 30 29 29 32 39 49 57 61 57 54 55 54 55 59 58 60 68 70 68 64 62 63 64 63 57 55 45 39 41 35 37 38 46 51 50 55 47
47 42 37 33 30 30 29 27 27 26 31 38 47 54 57 55 52 54 52 52 54 54 52 58 62 59 60 61 59 60 60 55 46 43 39 41 37 41 42 55 54 52 54 54
44 38 33 29 28 27 26 23 22 25 33 40 47 51 52 49 48 51 50 50 51 49 49 48 53 47 48 54 54 56 51 46 42 43 42 45 44 46 49 60 58 53 58 54
39 36 30 26 26 24 22 20 24 31 34 37 42 48 51 51 49 49 51 52 49 48 45 42 47 45 44 44 46 47 45 45 43 45 47 48 45 49 43 62 57 53 59 57
35 31 28 25 22 21 17 17 22 27 32 37 44 50 48 48 43 42 44 47 45 45 44 42 42 41 38 40 39 41 42 43 45 49 53 52 50 55 53 65 67 65 61 62
32 28 26 22 20 17 15 19 25 28 32 38 43 46 43 42 42 41 41 43 45 45 45 43 42 41 39 36 36 36 39 43 45 54 56 54 55 58 59 58 69 71 65 63
29 26 23 21 18 17 18 21 26 28 32 36 38 39 37 37 38 39 41 42 44 45 45 44 42 38 36 38 36 36 41 43 45 55 58 56 59 60 62 64 70 72 66 66
27 23 21 19 17 17 19 22 25 26 32 34 33 37 39 41 40 41 41 43 43 45 47 46 43 41 40 38 40 39 39 43 43 52 60 63 64 64 64 67 69 68 71 68
25 22 19 17 17 17 19 21 23 27 28 29 33 36 39 41 42 43 42 44 44 45 46 46 45 42 40 41 44 44 43 45 48 55 60 67 68 67 64 71 69 68 73 73
24 20 18 16 15 16 17 20 22 23 28 32 34 37 39 40 42 43 45 45 44 45 47 46 39 39 37 40 48 50 49 48 53 56 56 66 76 71 69 71 71 68 74 77
23 19 17 16 15 15 16 19 23 26 28 29 32 34 34 35 37 39 42 43 44 45 45 44 40 43 41 48 50 49 49 51 55 58 58 65 78 80 70 68 71 70 70 68
23 20 15 16 16 15 18 21 23 25 27 30 31 32 33 35 37 39 42 42 42 45 39 39 41 43 46 49 49 50 52 55 56 57 58 61 72 83 80 72 72 74 75 74
24 21 18 16 16 17 18 20 23 24 26 28 29 30 32 33 35 36 36 38 39 35 33 37 41 39 42 45 47 49 52 52 49 55 61 62 63 74 85 86 80 77 80 83
25 23 21 18 18 19 20 22 23 24 25 24 25 27 26 27 28 28 29 31 28 30 32 36 38 37 40 43 44 45 51 52 54 57 62 67 68 70 84 89 90 87 86 85
28 27 25 21 19 21 23 21 21 20 21 21 21 21 20 22 23 23 25 24 30 35 32 34 36 38 39 39 42 46 48 52 55 56 63 64 68 74 78 86 94 92 98 99
29 29 28 25 23 23 18 18 21 21 20 17 18 20 19 20 20 21 24 27 27 31 32 33 34 36 38 39 38 38 38 43 48 53 56 58 62 65 70 74 79 86 90 91
31 30 29 28 26 24 21 19 23 26 21 17 17 17 18 18 19 20 25 26 25 29 30 30 30 33 36 35 35 35 40 41 43 47 50 57 60 62 65 70 72 73 73 76
31 31 29 25 27 30 23 20 22 24 20 17 15 17 18 17 16 16 18 19 22 25 25 26 29 31 34 37 36 37 41 43 45 48 50 55 59 60 62 65 70 73 75 75
27 27 26 25 29 28 22 23 23 24 21 17 15 16 16 13 12 14 16 17 18 19 22 24 28 31 33 34 35 37 40 43 46 48 48 50 55 59 61 63 65 67 70 73
23 24 28 33 29 29 23 25 31 28 22 17 15 14 12 11 9 10 13 13 15 17 20 23 26 29 29 30 32 33 35 37 40 44 46 47 52 55 58 61 63 66 67 69
24 28 27 25 25 24 27 35 32 26 22 17 16 16 14 11 12 14 14 15 17 19 20 24 26 25 24 21 23 25 28 31 35 38 42 45 49 53 56 59 62 64 66 68
16 16 18 19 22 26 34 38 34 30 21 18 16 15 13 13 12 12 14 16 16 16 19 19 16 19 24 26 28 29 30 33 36 39 42 46 49 51 54 57 59 61 63 65
22 22 23 25 28 34 45 43 33 26 20 18 17 16 14 14 13 13 13 15 17 17 14 16 20 21 24 26 28 30 32 34 36 38 40 43 45 48 50 54 56 59 60 62
22 23 26 31 34 37 39 33 29 27 21 19 17 19 18 17 16 14 14 12 13 15 17 19 22 24 26 27 29 30 32 34 36 39 41 43 45 47 49 51 53 55 57 59
22 24 27 30 36 39 38 35 31 27 23 20 17 17 15 14 15 15 15 15 16 17 19 21 22 24 26 28 30 32 33 35 37 39 41 43 46 48 50 51 53 54 56 57
23 26 31 34 37 40 39 35 31 27 23 20 19 18 15 14 13 13 11 13 12 11 11 11 13 15 17 19 22 25 28 31 34 37 39 42 43 45 47 48 50 51 52 53

GFSNW_250_spd_090.txt.gz
Wind_Speed
83 77 71 69 65 62 58 52 45 40 36 31 31 29 29 28 35 42 47 48 51 51 51 53 54 56 57 60 63 66 65 64 62 61 57 57 55 57 54 55 56 56 56 50
79 73 69 67 64 58 55 47 41 35 31 28 27 26 27 30 36 41 45 47 51 48 54 54 55 56 57 56 54 56 60 61 58 60 59 54 50 52 51 53 52 52 39 42
75 70 67 65 61 54 51 44 38 31 29 27 25 22 24 29 31 39 44 47 49 44 49 52 53 53 57 57 53 53 55 58 60 59 54 52 52 53 51 47 43 38 39 37
70 67 64 61 57 51 47 41 35 29 27 25 23 18 20 26 31 38 42 45 47 48 48 49 54 55 54 52 54 53 54 57 59 56 52 51 51 51 49 43 39 32 35 30
67 64 61 56 53 50 42 38 32 28 26 23 20 14 15 22 31 34 35 36 38 36 35 39 44 46 46 45 49 49 50 52 55 54 51 51 49 52 43 40 36 29 31 32
65 61 59 52 49 46 42 34 29 26 22 19 16 12 17 24 28 29 33 38 39 38 37 36 41 43 46 48 48 49 52 52 53 52 49 47 50 53 45 41 38 30 34 42
61 58 55 50 45 42 39 32 28 24 20 18 15 14 21 26 28 30 35 35 38 37 38 40 45 49 48 49 52 53 52 51 52 53 52 50 53 49 45 44 37 34 40 52
60 57 53 47 41 38 35 29 26 23 19 17 17 17 24 27 30 36 37 36 37 38 40 41 45 48 51 52 52 51 51 51 51 49 51 49 53 51 47 40 39 42 48 60
58 54 49 43 37 36 32 26 23 21 17 17 17 20 25 28 33 35 37 41 45 44 42 42 46 48 48 46 45 44 43 43 46 50 50 51 54 52 47 40 43 49 53 63
54 49 44 39 35 33 28 24 20 20 17 18 19 22 26 29 32 34 36 37 38 39 39 39 42 45 44 43 43 42 43 44 47 47 46 48 51 49 43 40 48 52 59 71
48 43 40 35 32 30 25 22 19 22 19 19 20 22 26 30 32 34 34 35 35 38 39 38 38 41 42 43 42 43 44 45 45 44 44 47 49 44 43 45 53 59 66 80
42 38 36 32 29 27 22 21 20 19 16 17 21 24 27 29 33 35 37 37 37 38 37 36 38 40 42 44 44 43 43 43 45 45 47 51 48 44 43 46 56 65 70 85
37 35 32 29 28 24 20 19 18 17 16 18 20 25 31 32 33 36 37 37 38 37 37 37 36 37 39 41 42 43 43 44 46 45 48 51 50 47 46 48 57 68 71 91
34 32 29 27 26 22 19 19 16 15 15 18 19 21 24 26 27 28 31 35 37 36 37 36 37 38 38 39 43 43 43 47 48 49 49 49 47 47 47 49 57 66 75 81
31 30 28 26 25 22 18 17 16 15 15 16 17 19 22 23 27 30 32 34 36 35 37 39 41 41 40 42 45 45 45 50 52 50 50 49 50 52 51 52 57 63 72 78
31 29 28 25 25 22 18 18 17 14 15 17 18 19 19 22 25 27 29 31 32 32 36 39 41 41 42 44 46 46 48 52 53 48 48 48 48 53 55 56 55 60 66 73
31 29 28 25 25 22 19 19 18 16 17 17 17 18 21 22 24 25 26 27 29 31 34 35 37 41 43 44 47 46 51 54 49 47 45 46 45 48 54 57 59 59 62 66
31 29 27 26 26 25 23 22 19 18 18 17 17 18 19 19 20 22 23 25 29 30 31 34 36 38 38 43 45 48 49 47 45 44 44 45 45 43 47 51 58 61 62 65
29 28 26 27 28 27 25 22 21 20 17 16 18 17 16 15 17 19 22 24 26 26 28 28 32 33 38 40 41 41 40 39 38 41 41 41 42 43 44 45 51 55 58 62
26 25 28 29 27 25 26 24 23 21 17 16 18 16 14 14 16 17 19 21 22 21 22 26 29 30 32 34 34 32 32 32 37 39 41 42 43 43 44 46 49 54 59 62
25 28 30 28 25 26 31 27 23 20 17 18 19 12 11 11 12 13 14 16 19 20 23 25 25 25 27 30 30 31 34 37 39 39 39 40 40 40 42 44 47 52 57 63
28 29 32 27 25 25 33 31 28 23 24 23 16 11 10 8 9 10 11 14 15 17 17 17 17 19 18 20 23 25 28 30 31 32 34 36 37 38 40 43 46 49 53 56
28 29 28 24 25 27 35 36 36 31 24 20 13 10 8 8 9 12 11 11 11 12 14 17 18 19 19 18 19 21 23 26 28 29 32 34 36 36 36 38 41 44 48 52
28 29 23 25 29 32 38 42 34 28 24 18 13 11 8 8 12 12 10 8 6 6 6 6 8 10 12 13 14 16 19 22 24 26 29 31 34 37 39 41 42 43 45 48
26 28 28 34 42 45 44 36 30 30 27 17 13 12 11 12 11 9 7 4 3 3 3 4 5 7 9 11 14 17 19 21 23 26 29 32 35 38 41 44 47 49 50 52
35 36 37 42 39 32 32 33 33 29 21 18 17 16 15 11 8 5 3 3 4 7 9 11 14 17 19 22 23 25 27 30 32 34 37 38 41 43 45 47 50 52 53 55
27 26 28 28 28 31 32 32 27 24 21 18 17 16 15 10 8 6 6 9 11 13 14 13 13 14 17 20 24 28 30 33 35 39 42 44 46 48 49 51 52 54 55 56

GFSNW_250_spd_093.txt.gz
Wind_Speed
96 92 88 83 78 72 68 68 64 57 52 45 37 31 26 24 24 25 27 31 34 40 42 45 50 53 52 56 59 60 59 61 63 65 66 66 64 64 64 64 60 60 59 64
88 84 81 78 73 70 66 64 59 51 46 37 30 25 21 20 20 24 29 31 37 42 45 49 50 52 52 55 59 60 60 60 60 60 59 57 59 58 56 52 51 52 52 54
81 80 76 74 69 67 63 58 53 48 40 30 26 21 17 18 20 22 25 30 37 42 45 48 51 51 55 55 59 62 63 64 64 63 61 58 55 54 53 48 46 44 46 46
79 76 74 70 66 65 60 52 48 43 36 26 22 19 16 17 18 18 24 26 34 40 47 49 51 54 54 55 59 61 63 64 66 65 62 61 60 57 54 48 44 41 39 40
76 75 74 70 63 61 56 50 45 39 32 23 20 17 16 15 17 18 24 28 31 39 43 48 49 50 52 59 60 61 60 59 54 53 52 52 53 52 46 41 38 38 38 35
75 75 71 65 61 57 53 46 42 36 30 19 18 17 21 19 20 21 24 27 28 35 35 34 38 42 47 51 54 53 51 48 46 44 44 46 49 47 43 41 39 39 39 33
75 73 67 62 58 55 51 45 40 32 26 20 16 17 19 20 21 22 23 27 26 30 35 35 37 36 38 41 46 46 45 46 45 44 44 46 47 44 43 43 43 43 39 36
73 70 65 61 56 54 49 43 38 29 24 19 15 19 19 21 23 25 27 28 30 32 35 36 35 38 39 41 44 46 44 45 47 47 46 46 47 47 46 47 43 42 37 35
72 67 62 58 54 52 45 39 35 27 22 18 17 19 20 21 24 26 27 29 31 35 38 41 40 39 41 45 46 48 48 49 49 47 46 47 48 49 46 43 47 43 40 37
68 63 59 56 52 49 42 34 32 26 21 17 18 18 19 21 24 26 27 28 32 33 37 39 39 40 39 44 46 46 46 48 46 47 49 50 47 44 44 47 47 45 43 42
63 60 56 53 50 45 39 29 30 23 17 15 16 17 18 21 25 25 27 29 29 32 35 37 36 36 37 39 41 42 43 40 38 41 46 48 45 45 46 47 47 46 43 46
61 57 53 49 45 41 35 26 26 21 16 15 16 17 20 24 27 28 30 31 31 32 34 35 34 34 34 35 40 43 43 42 42 43 44 49 47 47 44 42 41 43 42 50
56 53 48 45 41 37 30 24 22 18 15 14 16 19 20 24 26 27 28 30 31 32 32 35 36 35 35 36 39 42 43 43 45 45 47 47 45 44 42 42 40 41 47 53
51 47 43 40 37 32 26 23 19 15 14 13 13 16 18 20 24 25 28 31 32 33 35 36 36 35 35 37 40 43 45 45 46 47 47 46 45 43 42 42 41 42 46 53
46 42 40 36 34 29 23 21 17 14 12 12 13 15 18 21 23 25 27 29 32 35 36 38 38 38 38 39 41 42 45 47 48 50 50 48 47 46 44 44 44 44 44 49
40 40 36 34 32 26 21 20 16 15 14 14 14 15 18 21 22 24 26 28 30 32 34 37 38 40 41 42 43 44 45 45 49 51 50 50 49 48 48 47 45 43 45 48
38 36 34 33 30 25 21 20 17 17 15 14 13 14 16 19 21 23 24 26 28 30 33 37 38 39 41 43 46 45 45 46 48 50 47 46 47 47 48 48 50 48 50 49
35 34 33 31 29 24 22 22 18 17 16 15 15 16 16 17 18 19 21 24 26 27 30 33 36 38 39 42 43 43 43 44 45 47 45 42 43 43 45 46 48 51 54 56
33 33 32 30 27 24 22 22 19 18 17 16 16 15 15 15 16 17 19 21 23 24 26 29 33 36 38 37 39 40 42 43 44 44 44 42 43 44 44 45 46 51 55 58
33 32 32 30 26 23 23 24 22 21 18 16 15 13 12 12 12 15 17 18 18 18 21 25 28 28 30 31 33 35 38 39 40 39 38 41 42 44 44 44 44 45 49 55
32 33 31 28 25 23 25 25 23 20 18 18 14 10 9 7 9 10 13 16 16 18 20 21 22 23 25 26 28 29 31 31 33 36 37 39 41 39 39 41 42 44 47 52
33 32 27 22 20 23 27 27 27 24 18 15 11 9 7 4 5 7 9 11 12 13 14 15 18 21 22 23 24 26 27 29 31 32 32 33 35 36 37 39 41 43 46 50
28 25 21 19 22 27 32 33 29 17 15 12 9 7 4 5 4 3 2 5 8 9 12 13 15 17 19 21 23 24 25 26 28 30 30 31 32 34 36 38 40 43 45 48
23 22 23 24 30 34 37 30 19 20 18 13 10 8 6 4 3 2 5 4 4 5 6 9 9 10 10 12 13 15 16 18 21 23 25 28 31 33 35 38 41 43 45 48
23 25 27 32 38 38 35 24 22 23 20 13 11 10 8 6 4 4 8 7 8 8 7 8 6 7 8 10 12 14 17 19 22 26 30 33 36 39 41 43 45 47 48 50
29 34 37 40 38 37 30 26 28 27 20 13 14 12 10 6 7 9 10 11 9 6 4 4 2 3 6 9 12 14 18 21 25 29 32 36 38 41 44 46 48 50 51 53
31 34 34 38 33 29 27 31 31 27 19 16 14 11 9 10 11 12 8 6 4 4 5 8 10 11 14 17 20 23 26 30 33 37 40 43 45 47 48 49 50 51 51 52

GFSNW_250_spd_096.txt.gz
Wind_Speed
97 95 95 93 89 87 80 80 79 75 67 63 59 51 40 31 26 22 20 18 19 24 27 33 37 39 44 48 52 55 52 50 48 48 50 49 51 51 56 58 60 62 60 58
90 87 87 87 84 81 78 76 73 67 62 57 53 43 33 27 22 21 20 16 21 24 30 36 40 44 50 51 55 59 57 51 51 51 50 47 48 49 51 52 52 52 55 54
82 84 84 80 80 77 72 70 66 62 59 51 46 38 29 24 20 19 17 16 23 29 38 44 44 46 46 51 55 58 60 58 55 55 54 54 55 53 50 51 54 54 59 57
78 81 79 78 76 72 67 63 62 59 56 45 40 35 27 23 18 14 16 14 22 28 37 42 43 46 49 55 57 60 62 62 60 57 56 54 54 55 55 56 56 56 55 55
81 77 74 73 68 66 62 61 60 58 53 41 35 33 25 20 20 16 15 16 22 28 35 39 43 46 49 55 56 62 63 63 62 58 58 57 56 55 55 54 51 51 52 49
79 74 70 67 65 63 61 62 58 54 51 37 32 32 25 19 19 21 20 19 21 25 33 37 42 45 48 54 56 59 63 65 60 60 59 58 55 55 55 52 49 49 47 48
72 69 67 64 63 61 60 60 56 51 45 36 28 30 26 18 17 21 21 21 22 26 30 31 37 39 41 48 53 55 57 50 53 56 58 57 54 55 55 54 53 52 49 46
70 67 65 64 61 60 60 57 54 48 40 34 27 27 25 21 15 17 22 22 22 26 29 32 37 35 35 40 45 49 48 45 47 51 53 53 53 53 50 47 45 44 42 40
68 64 63 61 61 60 58 56 52 45 36 31 27 24 23 21 17 17 21 25 26 28 31 34 36 36 31 37 40 42 45 45 49 52 52 52 50 45 43 43 43 41 41 41
66 63 62 63 62 58 56 55 49 41 32 29 26 24 22 20 19 17 23 27 31 31 33 36 38 38 36 38 40 43 48 50 51 52 51 48 47 46 44 45 43 44 45 46
64 64 67 65 61 55 54 52 45 36 29 27 25 23 22 19 19 18 24 29 34 35 36 38 40 41 41 39 40 44 46 48 51 53 52 51 47 46 46 47 46 48 50 46
68 69 69 65 57 53 51 47 42 31 29 24 24 21 21 19 20 19 23 30 36 38 38 41 42 42 40 39 40 40 43 45 48 50 50 46 44 43 45 47 47 47 46 47
73 72 69 61 55 50 47 43 36 29 26 22 21 20 20 18 17 20 25 30 34 36 37 39 40 41 41 39 38 39 40 43 46 48 49 45 41 41 41 42 45 46 49 50
71 67 61 56 50 46 43 39 30 27 23 20 19 18 18 17 19 21 24 28 33 36 37 38 40 41 42 40 39 39 41 42 44 46 47 44 43 43 43 44 46 47 45 45
62 60 56 50 45 42 38 35 26 23 20 19 19 18 19 19 20 21 24 27 31 34 37 38 39 40 40 40 39 39 41 41 44 45 47 46 46 46 45 46 45 44 42 43
60 56 51 45 41 40 34 29 24 21 20 18 17 17 17 19 21 22 23 26 29 34 36 38 38 40 41 42 41 41 41 41 44 47 48 49 47 47 46 45 46 45 44 44
52 49 44 40 39 34 30 27 23 21 19 18 16 16 17 20 20 21 23 25 27 29 32 36 38 40 42 43 43 42 42 42 43 44 45 46 47 48 48 48 48 46 46 46
44 42 38 35 34 28 29 27 22 21 18 17 18 18 19 18 18 20 23 25 25 28 30 33 37 37 39 39 40 41 42 43 43 43 44 45 46 47 48 49 49 50 49 50
39 35 32 31 29 28 28 26 22 22 19 18 19 19 19 18 19 21 23 23 23 25 27 30 33 33 34 36 38 39 40 39 40 42 44 45 46 46 47 48 49 49 51 52
32 30 29 29 29 28 27 25 22 22 19 19 18 17 17 18 20 21 21 22 21 23 26 27 27 28 31 32 33 33 35 37 38 40 42 43 44 46 47 47 49 50 49 52
28 28 29 29 27 27 27 26 24 23 20 18 18 16 18 19 18 17 18 18 18 18 18 19 21 22 26 28 31 33 34 35 36 37 38 40 42 44 46 48 49 50 50 51
29 31 29 27 27 28 27 25 25 23 20 20 17 17 17 16 15 14 15 15 13 13 15 16 18 19 20 22 25 27 30 31 32 33 35 37 37 39 40 41 42 44 45 47
29 27 25 27 29 31 31 28 23 22 20 18 18 17 15 11 9 9 10 7 9 9 10 12 14 15 17 20 21 24 26 28 30 32 34 36 38 40 42 44 45 47 48 50
25 26 28 32 34 33 28 19 23 24 20 20 18 15 10 7 7 7 6 7 7 8 10 11 13 13 15 17 19 20 22 24 26 29 31 34 36 38 41 44 45 47 50 52
29 32 35 37 31 26 22 22 26 24 21 19 16 13 10 8 8 8 7 9 10 10 10 10 11 12 12 13 13 15 17 20 23 26 29 32 35 38 40 43 45 47 49 50
33 35 37 34 29 25 25 28 29 24 21 17 15 12 12 11 11 11 11 10 10 10 8 8 8 10 11 11 11 13 16 20 24 27 31 34 38 41 44 46 48 50 52 53
35 37 33 29 25 23 27 30 28 23 22 17 15 14 13 13 13 13 12 12 9 8 7 3 2 5 7 10 14 18 22 26 30 33 36 40 43 44 47 48 49 49 50 51

GFSNW_250_spd_099.txt.gz
Wind_Speed
106 106 105 107 110 108 102 94 91 89 85 81 79 78 71 61 52 42 33 30 26 22 18 20 23 27 29 31 34 37 37 36 37 35 36 39 44 45 44 37 37 43 49 54
98 104 102 99 101 99 88 86 84 81 76 76 77 69 64 53 46 36 28 23 21 19 18 20 25 30 31 33 35 39 44 44 41 37 37 44 47 48 44 42 42 51 39 48
96 92 95 94 89 88 80 79 79 74 71 73 70 60 58 49 40 30 26 21 15 15 19 23 28 33 38 38 42 47 47 45 41 40 42 45 51 55 54 50 48 48 53 57
84 87 89 86 85 78 77 77 73 68 69 69 63 54 53 44 35 27 20 20 15 18 22 27 34 37 35 40 45 50 51 49 45 44 43 44 44 50 61 64 59 60 59 59
87 85 81 80 76 74 75 71 67 65 67 65 56 49 49 41 32 25 19 19 18 18 20 24 31 32 40 44 49 54 54 53 52 47 45 45 45 43 42 47 54 56 56 51
79 79 75 73 74 72 68 67 63 63 62 59 50 46 45 37 29 24 20 17 20 19 21 23 25 31 40 44 50 56 59 58 56 52 50 51 52 52 52 54 52 51 50 50
76 71 71 75 72 67 64 64 62 58 57 55 48 45 42 36 27 23 21 19 22 23 22 23 26 34 40 42 50 53 58 63 63 60 57 54 54 53 54 53 53 53 54 53
73 68 70 68 64 63 62 63 60 55 53 51 47 44 40 33 25 23 21 19 24 26 25 27 30 36 41 43 49 54 56 60 61 61 58 58 56 53 54 55 57 55 54 53
74 70 68 63 63 64 62 62 56 51 50 49 47 42 37 32 24 23 22 20 25 30 29 30 33 36 38 39 41 49 54 58 57 59 61 59 58 58 59 58 57 56 56 55
74 70 69 68 68 65 64 57 54 50 49 49 47 41 35 30 22 24 23 24 29 34 33 33 34 35 36 38 39 44 48 51 46 51 55 58 60 60 60 59 57 56 56 55
73 71 70 69 68 66 60 54 51 50 49 49 43 40 33 27 23 22 24 27 32 36 38 38 38 36 37 37 40 42 45 48 44 47 52 58 59 60 61 58 54 53 50 49
74 70 70 68 67 62 56 51 52 52 50 48 41 38 30 25 22 22 25 29 34 38 41 40 40 39 39 41 43 44 44 45 46 47 50 51 55 56 55 52 50 49 48 48
74 70 69 67 63 57 53 53 54 53 50 45 39 33 29 23 22 22 25 28 31 38 43 44 42 43 44 44 45 47 46 46 46 45 44 46 48 51 52 51 50 49 49 49
74 73 71 64 58 58 56 55 55 52 49 41 35 29 26 22 22 23 24 27 31 37 43 43 44 45 46 46 47 46 43 41 42 43 43 44 46 48 50 49 49 49 48 50
69 68 65 64 64 61 58 53 51 51 43 36 31 25 22 21 22 23 24 26 28 32 39 44 45 46 47 46 45 43 42 41 41 42 44 45 47 48 49 49 48 47 48 50
69 67 63 60 56 55 51 48 49 45 37 31 26 23 21 21 21 23 24 26 29 31 35 39 43 45 45 44 45 44 42 42 43 43 44 45 46 47 48 50 50 49 50 51
65 61 56 53 52 51 46 47 45 37 31 27 23 22 22 22 21 22 24 24 26 31 34 37 39 42 43 44 44 43 43 43 43 43 43 44 45 47 48 50 52 52 52 52
59 56 54 51 49 45 42 42 37 29 28 24 22 23 21 20 19 19 22 24 26 28 30 34 36 37 39 41 41 44 45 46 45 44 43 44 44 45 47 48 50 51 52 52
51 48 44 42 42 39 37 37 30 26 25 23 22 22 20 19 18 20 21 23 23 24 27 30 32 33 36 37 39 40 41 42 43 44 44 44 43 44 45 46 47 49 50 50
46 43 40 38 38 35 34 31 26 25 22 22 22 21 20 19 20 20 20 19 20 23 24 25 25 27 29 31 33 36 38 39 40 42 43 44 45 47 47 48 48 49 51 52
36 36 36 36 34 31 30 27 26 25 24 23 22 20 20 20 19 18 19 19 20 19 21 21 22 24 26 28 30 32 34 35 37 39 41 44 46 47 48 50 52 52 53 54
36 35 36 32 29 29 29 27 27 25 25 25 22 20 19 18 18 18 18 17 16 17 18 20 20 21 22 24 26 28 30 32 34 36 37 40 42 44 46 48 51 53 54 55
33 33 30 30 31 32 30 28 25 24 25 24 21 19 18 18 16 16 15 14 13 14 15 17 18 19 20 21 22 24 26 28 30 32 35 38 40 42 45 47 49 51 53 54
30 29 31 32 33 30 23 24 27 28 26 24 23 20 19 16 14 14 12 12 11 12 13 14 15 16 18 19 20 21 23 25 27 30 32 35 37 40 42 44 46 49 51 53
31 33 36 37 29 25 27 27 27 28 27 25 22 21 16 13 12 12 11 8 7 6 7 9 9 10 11 13 14 16 19 21 23 26 29 31 34 37 41 43 46 48 50 52
33 36 36 27 28 30 29 28 29 30 27 25 23 17 13 13 12 7 4 7 7 7 8 7 7 8 10 11 13 15 18 20 23 26 30 33 36 40 43 45 49 51 52 54
37 36 26 28 27 28 28 29 30 30 27 25 23 18 15 13 12 11 10 10 9 7 8 10 10 11 11 12 14 16 20 23 27 30 34 37 40 43 45 48 51 52 54 56

GFSNW_250_spd_102.txt.gz
Wind_Speed
86 86 90 90 95 100 102 104 105 109 112 109 114 105 101 89 81 71 68 57 42 33 26 16 15 15 15 22 22 19 20 24 28 30 32 34 30 27 27 32 30 35 36 44
96 98 96 95 99 104 100 105 107 106 108 105 102 97 85 77 70 66 62 49 37 28 19 9 11 13 19 23 24 27 29 28 28 28 26 32 40 38 27 25 35 42 47 53
96 96 99 99 100 101 106 103 105 101 102 98 91 80 70 69 65 63 53 43 31 24 15 7 12 20 23 23 26 31 34 34 32 34 31 33 39 40 33 39 39 46 49 53
83 86 93 92 97 99 95 98 98 97 88 83 75 66 63 64 63 57 45 38 29 20 13 11 17 20 24 27 31 34 35 37 36 37 32 37 46 46 44 45 41 46 44 42
89 92 97 98 93 97 95 86 82 84 77 73 65 59 61 63 61 50 39 35 27 19 14 14 16 24 27 31 37 40 39 39 39 43 38 42 47 53 46 50 50 46 43 42
83 84 80 83 86 83 83 81 77 69 65 61 57 58 60 61 56 45 35 31 26 20 17 19 19 27 32 36 43 45 49 48 48 45 41 41 45 53 48 49 49 48 47 44
81 81 82 83 78 78 77 72 64 62 59 57 57 57 60 60 51 41 32 27 25 25 19 21 21 26 34 40 47 50 50 52 53 47 46 45 46 50 53 56 60 57 56 56
82 81 85 80 76 75 74 68 63 65 62 60 56 58 60 57 47 38 31 28 25 26 24 25 28 30 37 42 47 52 54 56 53 51 51 49 49 49 49 48 48 55 59 62
79 79 80 77 77 75 76 66 64 63 62 59 56 58 58 53 43 35 28 28 25 26 28 30 33 35 36 42 46 50 55 56 57 55 53 52 54 52 51 50 50 47 47 49
80 79 77 78 76 78 71 66 63 63 61 58 58 59 54 47 40 32 28 27 27 27 31 32 36 39 41 45 47 48 51 58 57 56 55 55 54 53 52 53 54 55 54 55
80 79 81 80 80 81 71 66 62 63 59 57 60 59 48 43 37 30 26 28 28 28 31 35 39 40 41 43 45 47 48 48 53 52 56 59 58 56 56 55 55 55 56 57
84 86 83 82 79 74 64 65 65 62 60 61 61 53 46 38 34 28 26 28 29 29 32 39 40 42 42 44 44 43 46 50 50 45 45 51 57 58 58 58 59 60 60 60
85 83 84 82 75 69 66 65 63 66 65 64 57 47 42 37 31 26 26 28 29 29 32 38 42 46 46 46 44 45 45 46 47 47 46 47 55 58 61 62 63 64 64 63
87 87 84 76 70 69 65 65 65 64 61 55 49 45 40 35 28 25 26 26 26 29 32 37 41 45 47 47 46 46 46 48 48 47 46 44 47 54 60 62 61 60 60 60
81 77 73 71 68 66 66 65 60 55 58 52 48 44 38 31 26 25 23 22 24 28 32 36 40 44 46 48 50 50 49 48 48 46 42 40 43 48 53 56 57 57 58 58
76 73 69 68 67 64 63 63 59 59 53 51 47 42 33 27 25 22 20 20 23 26 30 33 36 42 43 46 49 49 51 51 50 46 42 42 43 46 48 50 52 54 55 56
73 71 70 69 68 66 63 59 57 51 50 49 45 36 29 25 22 19 17 19 22 25 29 32 34 35 39 41 42 44 48 49 48 46 44 43 43 44 45 47 49 51 52 54
72 70 68 64 61 59 58 52 50 49 48 46 38 30 25 22 19 17 18 19 22 24 26 29 32 34 36 36 35 38 38 41 42 43 44 44 43 44 45 47 48 50 51 53
68 64 64 61 58 54 47 47 46 44 40 37 31 26 23 20 18 18 19 20 21 23 25 26 28 29 30 32 35 35 37 39 41 41 42 43 43 44 45 45 46 48 49 50
63 60 57 57 54 47 46 41 40 37 35 30 27 24 22 19 18 17 17 18 19 21 23 24 25 27 28 29 32 35 36 37 38 40 40 40 42 43 45 46 47 48 50 51
58 57 55 53 48 43 37 39 36 31 28 27 25 23 20 18 16 16 16 16 17 18 18 20 23 25 25 28 30 31 33 34 36 37 39 41 43 45 47 49 50 51 52 54
52 50 48 44 39 33 34 33 30 28 27 26 25 21 18 17 17 16 15 14 14 13 15 17 18 20 21 23 25 27 29 31 34 36 38 41 43 45 47 49 51 53 54 56
42 39 38 35 30 32 33 31 27 25 26 25 22 19 17 17 14 15 13 11 10 11 13 15 16 17 19 20 22 23 25 27 29 32 35 37 39 42 44 46 48 51 53 55
35 33 31 29 33 34 28 21 25 30 28 24 20 19 17 13 12 11 9 8 10 10 11 13 14 15 16 17 19 20 21 22 24 25 28 30 33 37 40 42 45 48 50 52
33 31 33 36 33 25 27 31 30 28 24 22 21 20 15 13 11 9 9 9 8 8 8 9 9 11 12 13 13 13 14 16 18 21 24 27 31 34 37 41 45 48 51 53
32 35 34 28 24 28 32 31 29 27 25 24 22 18 15 13 11 9 10 10 7 5 4 3 2 3 4 5 7 10 14 17 20 24 27 31 34 37 40 44 47 50 52 54
35 32 27 27 31 33 33 31 29 27 26 24 22 20 17 13 14 10 7 6 5 4 1 1 2 4 7 10 12 14 18 21 25 27 30 32 35 38 41 45 48 49 52 53

GFSNW_250_spd_105.txt.gz
Wind_Speed
69 66 72 74 77 78 79 81 83 88 88 95 100 106 109 110 111 110 105 87 69 53 49 36 30 18 12 11 11 16 14 16 18 21 24 29 32 35 36 36 35 33 30 40
74 76 70 69 72 73 72 79 86 91 94 98 102 105 105 106 106 101 88 74 59 50 44 31 26 15 13 15 16 16 18 21 25 28 30 33 34 34 35 31 34 38 40 45
67 69 69 72 74 78 82 86 89 92 94 95 96 94 94 92 93 86 75 63 52 49 39 27 24 17 16 19 19 22 24 26 30 37 37 34 38 37 31 28 31 34 38 45
68 66 71 74 73 76 78 79 83 89 92 88 87 83 91 85 79 69 63 55 48 47 35 22 19 16 20 22 25 28 29 33 36 41 38 32 29 36 38 35 34 36 41 43
65 69 72 68 71 72 76 79 80 84 83 84 80 87 81 75 65 59 56 52 48 43 31 20 17 19 23 25 27 30 32 34 40 42 45 43 44 45 46 43 40 44 43 44
67 67 67 70 70 75 77 82 83 82 83 82 87 81 75 65 60 54 51 49 49 42 28 20 21 23 27 31 31 34 37 41 43 44 45 46 42 42 48 43 35 37 39 40
69 69 76 75 79 82 85 85 84 81 81 81 75 68 64 59 56 52 46 47 48 40 26 22 21 25 31 35 38 40 41 43 47 44 42 40 39 38 38 37 37 34 38 38
74 78 78 83 82 80 75 79 81 79 75 76 72 66 62 58 54 48 47 46 45 38 27 23 21 27 33 37 43 46 45 45 48 52 47 45 46 45 50 47 42 41 45 42
77 78 76 75 75 76 78 79 79 75 75 73 67 63 57 54 52 46 47 45 42 35 29 23 23 34 37 40 47 48 49 51 50 49 51 49 47 46 46 54 50 47 48 51
81 80 74 72 77 77 79 72 76 69 70 72 68 63 56 53 51 48 46 43 39 32 29 24 27 37 43 46 47 53 54 54 52 51 52 51 48 47 48 52 60 54 52 53
77 75 76 75 75 77 75 74 72 74 75 74 64 61 56 54 49 50 44 38 36 30 27 27 28 35 47 49 50 48 56 57 56 55 55 55 51 49 49 50 52 54 55 54
74 72 70 71 71 76 75 71 76 75 74 70 67 59 55 53 51 46 38 35 32 29 26 28 29 31 47 49 50 50 52 57 59 59 58 55 56 56 54 52 53 53 53 53
72 73 79 76 78 76 75 76 72 71 73 72 60 57 55 50 45 39 35 31 28 26 24 27 30 33 42 51 53 54 54 54 54 57 58 58 58 58 58 57 56 57 57 58
75 75 77 81 75 79 79 77 74 74 74 62 58 55 51 45 42 36 31 26 24 23 23 27 30 31 34 45 50 52 52 52 51 52 53 54 54 56 55 58 61 62 62 63
82 84 80 79 79 78 75 73 73 76 68 60 57 51 46 43 38 35 29 23 21 21 23 26 28 30 33 37 44 52 53 53 54 53 52 51 51 50 51 56 62 65 66 68
87 83 85 84 75 75 77 78 72 65 62 58 53 50 45 42 38 31 24 20 20 20 22 24 24 27 31 33 37 45 49 55 55 55 55 54 52 50 49 51 55 59 63 65
87 82 84 88 82 82 76 69 64 62 58 54 51 49 45 41 34 26 21 19 18 18 20 21 22 25 28 29 30 34 42 48 53 54 52 51 50 49 47 49 50 53 54 56
83 81 79 80 77 71 72 66 59 55 55 52 47 46 44 35 28 23 19 17 16 16 17 18 19 21 23 23 24 28 31 34 39 43 47 46 44 43 43 45 48 49 50 50
76 77 79 75 68 64 61 53 52 53 51 45 43 42 36 29 24 20 18 16 15 15 17 18 18 18 19 21 25 26 29 30 31 32 33 36 39 43 44 45 47 48 49 50
71 71 69 66 62 59 53 50 51 49 47 41 40 36 29 23 20 18 17 16 15 16 16 16 17 18 21 23 24 25 27 28 29 30 32 34 38 40 43 46 48 50 51 52
69 71 65 60 57 56 50 48 49 48 44 36 35 30 25 20 19 18 17 15 14 13 15 16 16 17 18 20 22 23 25 27 28 29 31 32 35 37 40 42 45 47 49 51
65 64 61 58 53 47 45 49 48 43 33 31 29 24 20 18 18 16 15 13 13 13 16 16 16 17 18 20 22 24 25 26 27 28 29 31 33 36 38 40 43 46 48 50
59 57 53 50 48 45 47 47 40 29 26 26 23 20 18 17 16 14 13 11 12 13 13 14 14 15 16 17 18 19 21 22 24 24 25 27 29 31 34 38 41 44 47 50
54 52 46 41 42 41 42 35 27 26 27 23 20 18 18 17 14 11 10 10 9 9 10 10 10 10 10 10 11 12 14 16 18 20 23 25 27 30 33 36 39 42 45 48
45 41 37 37 37 37 31 24 25 27 23 21 20 19 17 15 11 8 6 6 4 5 4 5 5 5 6 7 8 10 11 12 14 15 18 21 24 28 31 35 39 43 46 50
35 35 36 35 32 26 23 25 26 22 23 22 22 19 17 13 9 6 5 4 3 5 5 6 6 6 4 2 1 3 7 11 14 18 21 25 29 32 35 38 43 46 49 52
32 32 33 31 25 24 27 27 25 25 24 24 22 20 17 13 11 10 9 9 8 10 8 7 6 4 0 3 6 8 11 15 19 21 23 28 32 35 38 41 45 48 50 52

GFSNW_250_spd_108.txt.gz
Wind_Speed
73 76 67 67 67 61 57 61 65 65 67 69 73 74 77 83 86 92 97 102 101 97 83 67 59 47 35 33 29 25 17 11 13 16 16 19 22 26 28 30 30 26 31 31
69 65 60 64 64 55 56 57 59 63 66 69 70 74 76 80 84 89 91 91 97 87 74 62 49 38 30 28 27 21 17 15 19 21 25 28 31 33 38 40 36 28 20 28
67 65 62 54 53 55 57 61 62 63 64 66 69 72 77 79 80 85 89 90 90 81 66 54 42 34 26 23 24 22 17 17 19 24 27 30 34 36 43 48 41 33 33 32
66 61 63 62 57 61 60 63 63 64 67 69 73 75 77 76 78 87 88 85 79 70 60 47 35 29 23 20 22 20 19 21 25 30 35 35 37 40 47 48 44 44 45 45
68 61 61 59 59 59 57 58 61 61 63 64 69 71 73 77 84 83 75 76 69 63 53 42 32 27 23 21 21 23 22 26 32 36 41 45 46 47 53 55 47 51 54 50
62 60 58 63 58 55 56 56 57 59 63 69 71 71 76 80 81 77 74 68 60 56 47 39 29 24 23 25 26 27 28 34 41 42 46 48 49 48 42 43 49 48 44 42
61 59 60 59 59 57 58 59 60 60 62 65 70 75 76 78 79 70 63 59 55 50 45 38 27 23 25 26 33 32 35 41 44 46 48 53 51 45 47 46 46 45 33 30
60 60 61 61 63 60 62 62 62 59 62 69 74 75 73 76 74 64 59 54 50 48 42 37 29 25 26 30 35 36 38 45 48 48 45 44 45 42 37 35 32 29 25 26
61 61 61 62 62 64 63 61 61 64 66 70 75 74 73 74 69 59 56 52 48 46 42 35 28 26 27 34 39 40 42 48 51 52 52 52 50 49 49 42 41 40 40 39
59 59 63 64 61 59 59 60 63 64 68 68 72 72 71 68 67 58 55 49 47 44 40 34 28 27 30 38 43 45 47 47 52 52 52 48 50 52 50 52 49 50 50 47
61 64 62 64 62 62 61 62 66 68 66 74 68 68 68 71 62 58 50 48 46 41 38 34 28 29 34 39 46 49 48 51 53 54 52 51 48 49 50 51 52 54 53 53
65 62 59 59 61 61 64 63 66 68 71 68 67 68 71 63 57 55 48 49 43 40 37 34 28 30 36 39 47 51 53 54 55 55 56 53 53 52 50 49 49 49 54 56
58 59 60 60 61 63 66 63 67 69 68 68 70 70 64 57 57 49 50 46 40 38 35 31 27 29 36 38 44 51 54 55 58 58 56 57 58 58 56 54 51 52 53 53
64 61 61 62 64 65 68 66 69 69 67 69 70 70 65 60 54 50 47 41 37 34 31 27 26 28 32 37 43 49 52 57 58 59 58 58 57 59 61 60 58 56 56 57
66 65 68 67 66 65 68 67 71 70 71 71 70 71 68 56 53 48 45 37 33 28 26 24 24 26 29 34 39 43 49 53 58 59 59 59 56 56 58 60 63 63 62 62
67 69 66 68 68 69 69 68 69 72 67 72 71 65 57 55 49 45 40 34 28 24 23 21 22 23 26 29 34 40 46 52 55 56 57 59 60 59 56 55 56 58 61 66
70 69 69 73 72 71 69 66 69 71 72 72 65 61 58 52 46 40 37 31 24 20 19 20 21 22 25 26 29 37 41 46 49 52 55 57 59 57 58 61 58 58 59 62
70 71 70 69 70 68 70 67 70 74 72 68 58 57 49 47 43 39 34 28 21 18 18 18 20 20 21 23 26 30 34 36 40 43 48 50 48 53 58 59 55 55 57 59
76 76 76 76 75 75 72 72 71 73 66 61 57 47 45 43 41 38 31 24 18 17 16 15 15 16 18 20 23 25 27 28 29 30 33 37 40 41 46 49 52 54 51 51
75 75 75 75 71 71 70 69 70 67 66 54 44 43 42 42 40 34 28 21 16 16 14 13 14 13 14 15 17 20 23 25 26 28 29 32 33 34 37 40 43 46 50 51
77 77 75 70 67 63 61 63 66 63 49 42 41 39 41 39 33 28 23 18 16 15 14 13 12 12 13 14 16 17 18 20 22 24 25 27 29 30 33 36 38 40 43 45
68 68 62 59 59 59 57 57 57 47 39 39 42 40 37 32 27 23 20 17 16 17 13 12 13 13 13 14 15 16 16 18 18 19 20 22 25 27 30 33 36 39 43 46
59 58 57 54 50 49 53 57 48 40 40 41 39 35 29 25 22 20 17 16 16 14 13 12 12 12 12 13 14 14 15 16 18 19 21 23 25 27 29 32 35 38 41 44
49 48 48 48 52 54 56 48 43 41 39 36 31 26 23 21 18 16 15 14 13 12 11 11 11 10 10 11 12 13 14 16 17 18 20 22 24 27 29 32 35 37 40 42
52 51 51 51 51 51 47 43 39 35 31 28 25 21 20 18 16 14 13 12 11 10 11 11 11 11 11 10 10 10 11 13 15 15 16 17 19 22 26 30 34 39 43 46
49 47 48 48 48 45 40 35 32 29 26 24 22 20 19 17 16 14 13 12 11 10 11 10 9 8 8 7 7 5 4 6 9 12 16 20 25 28 31 34 38 42 45 49
45 45 44 43 40 37 33 31 29 27 24 22 21 21 20 18 18 14 15 15 14 13 12 11 11 10 7 3 1 4 6 10 14 16 19 23 28 31 34 37 41 44 47 50

GFSNW_250_spd_111.txt.gz
Wind_Speed
72 81 87 85 88 87 85 82 79 78 67 59 58 58 57 56 59 61 64 70 74 78 87 85 92 81 65 52 48 39 28 22 22 22 21 18 14 12 16 19 23 25 27 28
59 62 66 71 77 77 76 80 72 60 59 61 60 52 52 54 59 61 65 70 74 78 80 88 92 75 59 47 42 30 24 19 21 24 22 18 16 17 20 26 26 28 30 29
50 56 62 64 67 70 66 66 58 53 59 58 51 48 50 53 58 63 68 69 71 75 83 87 88 62 51 42 36 23 20 19 21 21 21 22 22 25 28 29 32 33 31 31
49 54 57 60 65 64 61 57 49 52 54 52 49 51 54 58 59 63 66 67 71 78 82 82 75 57 44 37 31 18 18 19 21 21 23 24 30 28 31 31 34 35 37 32
53 56 58 65 62 52 50 48 49 50 45 46 51 51 53 57 59 59 64 65 73 77 79 77 68 51 41 35 27 18 19 20 24 25 27 28 34 36 39 35 39 37 40 41
57 54 54 49 49 49 50 50 52 51 45 46 48 50 53 56 56 58 64 68 73 74 73 69 61 48 40 32 26 20 20 24 28 31 30 37 39 43 44 40 39 38 36 33
57 50 49 46 47 48 53 56 54 49 45 48 51 51 54 56 59 62 65 69 73 69 67 61 54 43 37 29 25 23 23 27 35 37 40 48 47 45 43 43 41 40 39 40
54 46 46 48 49 54 49 46 46 48 50 51 48 51 56 58 62 66 66 68 65 68 61 56 47 40 34 27 25 27 26 33 39 44 45 53 53 50 51 47 46 47 47 46
53 49 48 51 54 53 51 47 49 53 52 52 53 55 57 59 63 62 66 66 67 60 57 53 45 40 30 28 26 30 31 37 42 46 50 54 53 52 52 49 50 49 50 50
55 51 53 52 51 49 50 48 47 49 51 51 50 54 58 63 61 61 63 63 57 57 54 50 42 37 31 30 29 32 34 40 45 48 52 55 55 52 51 48 48 46 44 44
53 51 50 48 49 51 50 51 51 49 49 50 51 56 60 61 64 63 64 66 59 55 52 47 42 37 32 31 32 34 37 41 45 51 53 54 52 53 52 51 46 45 42 43
49 47 47 51 52 54 52 52 52 49 48 53 55 58 60 61 64 63 69 63 58 54 49 44 41 38 33 32 34 37 40 44 50 53 56 56 57 57 56 56 51 47 42 42
49 49 52 53 54 53 51 48 48 47 48 54 58 56 58 60 65 64 63 61 55 51 47 43 40 36 32 31 33 37 42 46 51 55 55 57 60 58 58 57 56 57 55 54
54 55 51 51 50 47 45 44 46 49 53 56 55 58 60 66 64 63 63 57 52 49 44 41 37 33 28 28 34 36 43 47 52 56 58 59 60 60 59 58 56 55 60 60
58 54 52 50 48 46 48 49 50 56 55 57 55 60 63 64 63 60 64 56 52 46 42 37 32 28 25 27 32 35 41 48 52 54 56 58 58 60 62 62 60 59 61 62
58 58 56 53 50 49 51 52 54 53 57 58 60 64 64 63 66 65 57 53 48 42 36 31 26 25 25 27 32 35 39 44 46 52 56 58 59 62 60 61 63 63 62 61
56 57 57 54 52 55 56 55 54 55 58 58 58 62 65 65 65 59 58 51 47 38 30 25 23 23 24 27 31 34 38 41 44 48 50 55 57 58 57 58 58 58 59 61
57 58 58 55 54 55 56 56 57 58 57 58 61 65 64 65 62 60 54 49 41 33 26 21 21 21 22 25 28 32 36 39 40 43 44 48 53 55 53 53 54 54 54 58
63 61 59 59 61 59 57 57 58 59 58 61 64 68 65 58 55 53 50 45 39 29 23 20 19 20 21 23 25 28 31 34 38 40 39 41 44 47 49 48 47 51 57 57
64 63 61 60 58 58 58 60 62 63 63 62 62 60 53 53 49 47 45 41 33 27 22 19 16 18 20 21 22 26 28 29 30 33 33 34 34 36 39 42 45 47 49 52
62 62 62 61 61 59 61 61 63 63 62 64 57 52 47 45 43 43 41 35 28 25 19 17 16 17 17 17 18 20 22 24 25 27 29 30 31 32 34 37 40 43 46 48
64 62 61 62 63 62 63 63 62 58 54 54 50 44 43 40 41 41 34 27 25 21 17 17 16 15 15 14 14 16 16 18 20 21 23 25 27 29 32 34 36 39 42 44
62 62 61 60 59 59 60 61 55 48 47 46 43 40 40 41 39 34 26 23 21 17 17 16 15 14 14 13 13 15 16 18 20 21 22 23 24 25 27 30 33 35 38 40
61 60 61 59 63 65 60 50 47 46 42 40 38 39 40 37 31 25 22 19 17 16 16 16 15 15 15 15 15 16 15 16 15 16 17 19 21 23 26 29 32 35 37 39
56 56 55 53 54 52 51 46 40 39 39 38 39 37 34 29 23 20 19 17 15 15 15 14 14 14 14 14 14 13 12 13 14 15 16 18 20 21 24 28 32 35 39 43
52 50 50 50 50 47 43 40 39 37 39 37 36 32 27 24 20 18 18 15 15 15 14 13 13 13 12 11 10 10 9 8 9 10 12 15 19 24 29 33 36 39 43 46
45 46 46 47 47 44 42 40 40 40 35 35 31 27 24 21 20 19 17 17 16 15 14 14 13 12 11 10 8 5 5 7 11 14 17 20 24 28 32 36 38 41 44 48

GFSNW_250_spd_114.txt.gz
Wind_Speed
58 60 67 71 77 82 92 87 87 86 86 87 81 80 81 73 73 69 65 60 56 51 56 65 70 75 78 79 82 69 51 45 41 32 22 19 19 19 19 17 15 12 15 19
47 51 54 62 72 76 84 80 87 89 86 84 80 77 74 68 70 65 61 56 50 50 57 64 70 74 76 81 74 59 45 40 36 27 21 21 20 19 21 21 14 12 14 21
43 42 48 56 58 68 74 80 84 82 83 78 79 72 67 66 67 61 55 51 48 53 57 64 68 73 79 77 66 51 41 34 30 20 19 20 20 19 18 16 13 17 25 31
37 42 43 44 49 56 64 69 69 72 77 77 67 62 60 59 55 53 50 47 46 54 58 59 66 73 79 72 58 45 36 29 25 17 21 22 23 19 19 17 22 25 33 39
35 34 35 35 38 40 42 43 50 55 57 61 51 43 44 47 48 47 46 45 48 55 57 61 68 74 77 66 51 41 33 27 19 18 22 25 26 23 24 25 29 33 34 43
26 26 32 39 41 43 44 45 45 44 42 42 43 45 43 44 42 41 43 45 50 55 59 63 64 68 70 60 47 39 31 25 19 24 25 31 28 31 28 31 33 39 40 44
30 31 36 41 41 43 46 46 45 38 38 41 44 40 41 42 39 42 43 49 52 54 57 61 63 69 67 58 43 37 29 25 23 26 30 37 34 33 30 34 35 40 42 48
44 48 43 34 33 40 44 45 42 39 39 39 40 39 42 43 42 42 47 51 53 55 59 61 63 69 62 55 41 36 29 26 27 27 35 36 43 38 38 39 37 46 44 48
45 42 39 35 36 49 43 39 34 36 38 39 41 43 42 41 43 45 49 53 53 56 60 59 63 64 55 47 41 35 30 27 31 30 36 47 45 45 40 37 43 40 44 45
42 36 36 40 39 40 38 36 38 39 41 39 36 38 39 41 44 47 50 52 54 56 57 61 61 59 49 40 42 34 32 28 33 34 36 45 49 51 49 44 42 45 43 43
41 37 41 44 40 40 34 35 36 38 37 35 36 38 39 43 46 48 49 51 56 57 60 59 61 57 47 37 39 35 31 33 33 40 40 44 51 53 52 53 48 44 48 46
43 43 39 40 42 41 39 38 40 39 35 35 37 38 43 45 49 48 49 51 54 58 59 63 61 54 47 37 36 36 34 35 35 41 41 52 54 55 53 55 57 52 47 51
41 45 46 45 41 39 38 38 37 36 35 35 40 44 46 48 49 48 50 54 56 60 63 61 57 52 45 35 35 36 36 37 37 41 46 51 59 58 58 57 56 60 59 55
42 45 44 43 42 39 38 37 37 37 39 40 42 45 48 48 48 51 52 54 57 63 60 57 52 47 41 35 34 35 35 36 39 42 48 50 52 58 60 61 61 59 59 55
43 38 45 46 41 41 41 40 40 39 37 39 42 44 47 48 49 50 51 56 61 62 61 53 49 43 39 34 32 32 32 34 38 41 45 49 51 53 57 60 62 62 62 62
43 41 39 40 39 37 37 34 34 37 39 42 43 46 46 48 48 51 54 59 65 63 57 48 43 40 35 30 28 28 29 32 35 39 42 46 48 53 54 57 59 61 60 60
42 40 39 42 41 41 38 36 37 37 40 43 45 46 46 49 51 54 59 60 64 58 53 44 40 36 29 26 25 26 27 29 33 36 40 43 48 48 50 53 53 53 55 58
43 41 42 46 45 42 41 41 41 42 43 44 45 47 48 49 52 56 60 64 61 55 48 41 35 31 24 23 24 25 26 28 30 34 37 41 42 42 48 51 53 52 52 53
46 46 41 40 45 47 48 46 44 45 46 45 48 49 49 51 56 59 62 61 55 52 45 39 31 26 22 21 22 23 25 27 29 30 35 37 38 38 39 42 45 47 49 51
48 47 46 46 46 44 45 45 46 46 47 49 50 50 51 53 55 60 57 51 50 47 43 36 28 22 21 21 20 22 23 24 26 29 32 34 35 35 36 38 39 41 44 47
52 49 51 51 50 49 47 48 47 46 49 50 50 52 53 52 57 53 48 49 47 44 39 31 25 19 18 19 19 19 20 22 24 26 29 31 31 32 33 35 38 41 44 46
48 50 49 49 50 50 50 48 47 48 50 52 53 53 49 54 48 46 46 45 44 40 32 27 21 18 16 17 17 18 18 19 20 22 24 27 29 31 33 36 38 39 41 44
50 49 49 50 50 49 48 48 48 49 51 50 50 54 49 44 44 45 43 42 39 31 26 22 19 17 15 15 16 17 18 19 19 20 21 22 24 25 27 30 33 35 38 40
54 55 53 51 52 51 50 51 49 47 47 51 52 45 41 43 42 41 40 36 30 25 21 18 18 16 16 15 15 15 15 15 16 16 17 19 21 22 24 26 28 31 35 38
54 53 52 53 53 52 48 47 48 47 49 48 42 40 42 40 40 38 35 29 24 21 19 18 17 16 15 14 14 13 13 13 13 13 14 15 16 19 21 25 28 31 36 40
47 46 48 50 49 47 45 45 45 46 45 43 41 40 38 39 38 33 28 23 20 20 18 16 14 14 12 12 11 11 10 9 9 9 10 12 15 19 23 27 31 36 40 43
53 52 52 52 48 47 47 46 45 43 41 39 37 38 39 36 32 27 22 20 19 17 15 13 12 11 11 10 10 8 7 6 6 8 11 14 18 22 26 29 31 36 40 45

GFSNW_250_spd_117.txt.gz
Wind_Speed
61 62 60 63 63 62 65 67 73 78 83 84 83 81 81 83 80 77 74 71 72 74 72 71 67 62 62 63 64 64 69 71 60 47 39 32 23 20 15 15 17 15 15 15
54 53 56 56 51 53 60 63 63 70 77 78 75 78 80 81 77 74 72 71 70 70 69 67 64 58 57 58 59 67 71 67 55 45 37 29 19 14 11 11 14 17 19 15
51 49 50 45 47 53 55 56 61 60 64 63 67 71 74 78 74 69 70 68 68 66 62 58 54 54 54 55 61 66 73 63 48 42 34 28 18 11 10 5 17 23 22 17
43 43 42 47 48 48 51 52 49 49 50 53 56 60 65 71 71 70 67 66 65 58 54 53 52 51 52 59 63 68 68 61 45 38 32 25 19 12 8 3 21 27 25 23
42 43 44 44 42 42 39 38 33 32 39 43 50 54 57 59 58 62 64 61 49 45 46 47 45 48 54 58 63 69 65 57 42 35 29 25 22 15 11 6 24 29 29 30
34 36 37 34 34 37 34 33 37 38 37 36 38 42 45 45 46 48 45 39 38 40 42 43 44 48 54 59 64 66 62 49 37 32 29 27 26 21 16 13 26 32 32 31
36 40 39 37 33 33 37 38 37 36 35 34 34 33 36 36 33 31 33 35 33 37 40 42 46 51 54 55 61 61 56 43 36 30 28 28 30 26 25 22 24 35 37 38
41 40 35 37 36 36 37 38 41 38 36 30 30 32 30 26 26 32 34 32 37 38 40 44 49 51 53 55 58 60 53 42 37 30 28 31 33 34 31 31 29 36 41 44
41 42 41 42 38 38 40 44 43 45 41 37 37 35 31 29 34 33 31 34 37 37 42 47 49 52 54 55 54 61 51 43 36 32 27 32 34 40 37 36 34 32 42 47
39 36 33 33 33 35 38 41 41 43 40 36 27 24 27 29 30 30 33 34 35 40 44 47 51 52 57 56 56 54 49 43 37 33 30 33 40 44 47 39 32 37 39 45
32 30 27 28 31 31 37 40 42 37 33 30 28 31 32 31 31 29 31 33 37 42 46 49 52 55 56 58 55 49 45 43 39 33 32 33 42 46 52 46 42 37 38 41
27 28 28 30 31 30 37 36 33 32 30 27 32 31 29 27 26 28 32 37 41 44 49 51 53 54 57 58 53 46 43 40 41 34 34 34 39 50 50 50 42 44 46 42
27 30 28 36 32 32 35 34 35 33 31 30 30 29 28 27 29 31 36 40 44 48 49 53 54 57 58 54 50 44 41 37 38 35 33 36 40 47 55 56 53 50 50 51
35 31 26 35 37 37 38 35 33 31 29 29 29 30 27 28 31 36 40 42 43 48 51 52 56 58 54 49 46 42 40 36 35 35 33 36 42 49 53 56 54 54 55 56
38 34 31 36 37 37 35 34 31 31 32 31 29 25 27 32 35 36 38 39 44 48 50 54 57 56 51 45 42 39 37 31 29 30 31 34 41 47 54 56 54 53 55 58
36 36 37 37 35 35 36 33 31 30 28 26 28 24 28 32 34 37 36 42 45 49 52 57 58 54 47 41 39 36 32 27 25 26 28 31 37 45 50 54 55 58 58 59
32 33 29 27 37 37 37 35 31 30 28 26 26 29 31 34 36 35 39 44 47 51 56 57 55 49 44 38 35 30 26 24 23 24 25 28 32 39 45 48 52 56 57 57
34 31 25 26 31 38 36 31 28 26 25 28 29 31 33 35 36 38 42 46 50 54 56 56 53 47 41 36 30 26 23 22 21 22 24 26 28 32 37 41 45 50 53 55
35 28 30 30 31 31 33 30 28 29 28 29 34 37 37 37 38 43 46 49 53 57 57 54 50 46 43 34 26 22 21 20 21 21 22 23 26 28 32 35 39 37 39 44
37 36 34 33 31 27 27 29 30 30 36 39 39 37 37 39 43 46 48 52 53 57 54 51 48 45 40 32 22 20 20 19 19 21 22 23 25 27 28 31 34 35 38 40
42 42 38 34 31 30 30 34 38 40 40 39 37 38 40 42 44 47 49 52 56 53 51 48 46 42 34 27 22 19 18 18 18 19 20 22 23 25 26 29 31 34 37 40
43 44 40 38 37 36 35 37 38 38 40 39 39 42 42 43 46 48 51 52 50 48 46 45 42 34 27 22 20 20 18 16 17 18 19 20 22 23 25 28 30 32 33 35
43 41 37 36 37 38 37 41 44 45 41 41 42 42 44 46 47 50 50 48 47 46 45 41 33 27 22 19 18 18 17 16 15 15 15 15 16 18 20 21 23 26 28 30
41 42 41 33 36 41 41 42 41 40 39 42 44 45 47 46 49 47 46 45 45 46 40 33 26 21 18 16 15 14 14 14 14 15 14 14 14 14 16 18 20 23 25 27
41 42 40 39 40 40 41 39 39 40 44 46 45 45 44 45 45 44 43 44 44 39 33 26 20 16 15 14 13 12 12 13 13 13 13 13 13 12 12 14 17 21 25 29
39 38 37 37 39 41 42 43 44 46 45 45 44 43 41 42 42 41 41 41 38 32 26 18 14 13 13 12 12 12 12 11 11 10 9 7 6 9 12 16 19 23 28 32
39 37 35 36 39 43 44 45 44 42 41 41 42 39 40 41 40 40 38 36 31 26 19 13 11 11 12 12 11 11 11 10 8 5 5 6 8 10 13 18 22 26 31 36

GFSNW_250_spd_120.txt.gz
Wind_Speed
84 79 68 67 53 59 70 73 74 57 62 68 68 72 81 82 77 76 77 77 81 74 75 77 73 73 70 69 71 67 62 58 61 64 64 58 48 40 33 25 13 13 14 24
68 62 59 61 52 54 68 73 73 56 58 55 63 61 63 68 63 68 66 69 68 71 72 71 69 67 65 65 67 63 57 57 58 61 63 55 40 34 24 10 8 15 19 23
61 62 60 59 58 67 75 75 58 52 51 52 55 54 53 54 57 58 58 57 59 60 68 66 61 56 59 61 58 54 53 53 55 61 64 53 38 31 19 10 12 22 24 27
51 52 49 52 60 69 71 54 41 43 43 46 48 52 48 46 48 46 44 52 53 56 59 58 60 54 56 55 52 49 49 51 55 61 61 48 38 30 15 9 15 28 30 29
46 47 46 51 60 63 51 41 40 39 44 46 46 46 42 42 43 45 51 50 49 48 56 57 55 53 51 46 47 46 48 53 56 61 56 46 37 30 14 13 11 32 33 31
43 48 52 54 51 43 45 39 40 42 42 41 40 31 33 33 35 35 39 41 43 44 44 42 39 39 42 43 45 44 49 53 56 58 53 46 37 32 17 18 14 26 37 36
42 44 45 44 47 45 40 41 39 36 36 36 33 32 32 33 32 32 32 31 32 32 34 33 33 38 41 44 42 48 50 55 57 59 52 44 38 32 27 21 22 24 35 40
35 36 37 42 36 38 38 37 37 40 40 40 40 40 37 32 31 31 29 30 30 33 33 30 32 37 40 41 46 51 54 55 60 59 51 44 36 33 34 26 27 28 34 42
39 40 39 39 42 40 40 41 44 44 45 43 43 41 40 39 37 34 33 32 34 30 27 31 37 38 38 42 48 53 55 59 58 56 50 46 37 35 34 37 34 32 36 38
38 39 41 43 43 42 43 44 44 43 44 45 44 40 39 39 36 34 33 32 29 25 30 34 35 37 41 46 50 54 57 60 58 52 46 42 41 36 35 41 42 34 33 37
46 49 47 48 48 49 50 51 54 53 51 48 44 40 37 36 35 33 29 27 28 31 33 32 34 39 46 49 54 57 58 61 58 51 43 41 41 39 38 38 47 41 35 37
45 45 46 46 47 48 47 49 49 49 49 46 40 38 35 33 30 26 23 25 29 31 30 31 38 44 48 54 56 58 60 59 57 49 42 39 40 40 40 40 43 47 38 39
45 43 41 40 40 40 42 45 43 42 39 39 38 38 34 29 28 24 26 29 29 25 30 38 43 48 52 55 58 58 59 57 51 45 40 38 40 41 42 43 42 47 47 40
49 46 42 41 40 42 42 40 40 40 41 36 34 32 31 29 27 26 27 27 23 31 38 40 44 48 51 55 56 56 57 52 47 41 38 35 38 40 42 44 47 48 47 48
42 40 42 37 33 37 37 37 42 41 37 34 31 29 28 27 27 26 26 24 31 36 38 41 46 49 53 56 56 52 49 47 41 37 35 31 34 39 42 45 49 53 52 52
40 38 41 38 33 34 37 37 38 37 35 31 29 27 26 27 26 26 24 30 33 36 38 43 48 52 56 58 51 44 43 43 36 32 30 28 30 36 40 44 47 51 55 55
39 35 35 37 37 38 38 36 35 34 33 31 28 25 26 23 23 22 25 30 35 37 40 45 50 55 57 56 49 37 38 37 29 27 26 25 27 31 37 41 45 49 53 55
40 37 33 35 38 37 36 37 35 32 31 30 28 24 22 23 23 25 29 33 34 38 43 49 54 57 57 55 47 38 34 31 25 24 23 23 25 27 32 36 42 46 50 51
37 38 38 37 33 34 33 37 33 29 28 27 25 24 21 23 26 30 33 34 38 43 47 51 54 57 56 49 46 42 31 26 22 22 22 23 24 25 27 31 36 40 43 46
38 34 30 29 25 28 32 32 31 28 26 26 23 23 23 28 31 34 35 37 41 46 49 52 56 56 51 46 45 41 29 22 20 20 20 22 24 24 26 28 30 33 36 39
29 32 29 26 23 26 29 30 30 30 26 26 26 26 30 35 35 36 38 41 46 48 51 54 56 51 46 45 42 36 26 20 19 18 19 20 22 23 24 25 27 29 31 33
29 29 25 20 21 21 28 28 29 30 28 29 31 33 35 36 36 38 41 46 48 51 53 55 51 46 44 42 35 29 23 18 16 15 14 16 18 20 22 24 25 27 29 30
29 23 22 20 21 22 26 28 27 29 31 32 34 36 35 35 36 41 44 47 50 53 53 49 44 43 42 34 27 22 19 17 14 12 11 12 13 14 16 17 19 19 20 21
33 30 31 28 28 32 33 32 31 32 33 33 34 35 37 40 42 43 45 47 53 53 48 44 43 40 33 25 20 18 17 16 15 12 11 10 11 12 12 13 15 16 18 20
37 33 34 36 33 35 35 35 35 35 35 34 34 36 37 38 42 45 47 51 51 47 44 43 41 33 25 20 17 16 17 16 15 13 12 12 12 11 12 14 15 15 17 19
35 32 36 38 37 39 38 34 34 36 36 36 36 37 40 43 45 46 48 47 45 43 42 42 34 26 21 19 17 16 16 16 16 15 14 14 15 14 13 12 12 14 17 22
44 39 35 36 36 38 37 34 34 35 35 36 37 40 42 46 45 45 44 42 41 41 41 35 28 22 20 17 16 15 16 15 15 15 15 15 12 11 11 12 15 19 23 29

GFSNW_250_spd_123.txt.gz
Wind_Speed
110 110 107 107 110 109 106 95 90 78 87 87 78 62 60 62 65 65 72 72 75 71 72 71 65 59 63 64 72 73 72 72 73 74 67 64 61 66 63 55 43 35 33 27
95 95 98 99 100 94 84 76 72 71 78 81 56 54 51 55 60 61 60 63 63 63 65 61 57 54 46 45 54 62 65 65 67 61 59 57 59 62 58 49 38 34 29 21
82 85 89 92 87 78 73 63 66 69 70 68 44 46 48 56 58 53 51 53 49 50 49 49 47 47 45 54 55 58 60 59 55 52 53 53 54 56 57 45 36 29 26 21
82 85 84 81 72 65 65 59 69 73 70 53 45 49 55 53 45 43 43 39 36 35 29 36 31 38 40 44 50 54 51 54 48 50 51 50 51 54 56 47 34 26 24 21
76 72 67 68 66 65 62 55 69 69 65 50 53 54 52 49 42 35 32 31 30 27 27 32 33 32 40 38 43 46 46 43 45 48 51 49 51 56 57 48 33 26 22 26
62 62 61 60 56 54 43 54 60 44 44 55 53 45 46 43 39 37 40 42 37 37 41 39 35 42 45 42 46 44 39 42 49 48 47 48 53 57 54 47 35 26 25 32
52 51 52 51 47 43 50 54 42 42 47 48 46 47 45 41 41 45 49 49 46 44 41 46 39 36 37 42 41 38 38 45 47 49 48 49 54 57 53 47 38 28 27 28
43 45 46 45 42 47 40 40 48 50 47 46 44 39 37 40 44 45 42 42 46 48 45 40 41 37 39 40 36 36 41 44 45 50 52 51 56 59 56 49 41 33 30 32
39 39 38 34 37 36 37 49 47 43 44 42 44 41 41 41 40 41 41 45 44 41 37 37 39 41 40 35 34 38 42 43 48 51 55 57 58 61 56 50 41 39 32 36
41 38 37 35 36 38 42 41 40 45 46 46 46 44 42 42 42 43 42 42 41 36 37 40 38 36 33 31 36 40 42 45 52 55 58 59 63 61 57 49 42 39 40 36
34 37 38 39 38 40 41 43 45 45 48 53 53 51 47 47 45 44 44 43 40 39 37 35 33 31 29 37 39 39 44 52 56 59 62 64 62 59 56 48 44 40 41 40
38 40 41 40 42 44 44 46 49 52 53 51 50 48 49 48 46 44 44 41 37 34 35 34 29 29 37 37 36 41 51 56 58 61 65 64 61 59 52 48 44 41 42 43
38 37 38 40 44 46 49 54 55 52 53 55 52 51 48 45 42 36 34 31 35 36 33 28 31 36 36 34 41 52 55 55 58 62 64 62 59 51 47 47 44 43 43 44
47 45 43 46 51 54 57 57 58 57 55 52 50 45 41 37 35 33 33 34 32 27 26 31 35 36 32 43 49 51 55 58 62 64 63 59 53 46 45 44 43 43 44 45
46 45 46 49 51 51 53 55 56 55 53 49 45 41 41 38 37 36 31 27 26 28 32 35 33 32 42 45 50 54 57 59 63 61 57 54 48 43 40 40 41 43 44 45
46 49 50 47 45 43 44 44 47 50 50 45 42 42 39 38 35 32 31 29 30 32 34 30 32 39 43 50 53 57 59 60 50 50 52 51 44 37 35 36 38 41 45 46
49 46 44 42 41 42 45 48 48 46 46 42 38 36 35 34 31 30 29 30 31 31 28 29 35 41 46 49 54 58 60 56 46 44 47 41 35 31 32 34 36 39 44 46
48 47 44 39 38 38 39 45 48 45 41 36 34 33 32 31 29 29 28 28 29 27 27 33 38 43 47 53 56 60 56 52 45 40 37 32 29 28 28 31 35 38 42 46
48 44 40 38 39 39 42 44 42 41 38 34 35 34 31 27 27 28 28 27 26 27 31 37 41 47 51 54 59 58 53 47 43 35 31 28 27 26 27 28 32 36 40 44
45 40 36 39 41 40 39 37 37 37 37 36 32 32 28 25 24 25 26 26 29 33 37 41 46 50 52 58 60 54 49 46 39 30 27 25 24 25 25 27 30 35 38 41
42 40 37 36 35 33 33 33 34 32 29 28 27 27 28 27 26 26 27 29 32 36 41 45 48 51 56 60 56 51 48 43 34 26 24 22 22 23 24 26 29 31 34 36
41 40 36 35 31 30 33 33 35 37 32 29 29 31 30 29 29 30 30 32 36 41 43 47 49 54 57 55 52 48 44 37 28 22 21 21 21 22 23 24 27 28 30 31
37 34 32 29 23 23 28 33 35 35 34 33 32 32 33 33 33 32 33 36 39 43 46 48 53 57 55 50 47 43 37 31 23 20 19 19 19 20 21 22 24 25 27 28
35 34 29 24 24 24 28 31 33 33 33 35 36 35 35 33 33 33 35 38 42 43 46 52 56 54 49 46 43 37 31 26 23 19 17 18 18 17 18 19 21 22 23 24
31 30 23 23 27 23 21 23 27 31 31 30 31 32 33 32 33 35 36 40 42 46 52 56 54 50 45 42 38 32 26 24 22 20 18 17 17 16 16 17 18 19 20 20
26 26 26 24 27 26 24 24 28 30 30 32 33 35 36 37 37 37 39 42 45 50 54 54 51 46 41 39 34 27 24 23 22 20 19 19 19 17 17 17 17 18 19 19
32 31 28 28 26 24 27 30 29 30 33 33 32 36 39 39 38 39 42 45 49 52 53 50 46 42 41 36 29 24 23 22 21 20 21 21 19 17 18 19 19 17 17 19